[[{"header":{"parameterUnit":"m.s-1","parameterCategory":1,"la1":31.0,"la2":29.5877,"lo1":-88.7671,"lo2":-86.6584,"dy":0.0162,"dx":0.0185,"nx":115,"ny":88,"refTime":"2023-08-18T12:00:00:Z","depth":0,"parameterNumber":2,"parameterNumberName":"U-component_of_WINDS"},"data":[0.0,0.0,0.0,0.0,0.0,0.0,0.0,0.0,0.0,0.0,0.0,0.0,0.0,0.0,0.0,0.0,0.0,0.0,0.0,0.0,0.0,0.0,0.0,0.0,0.0,0.0,0.0,0.0,0.0,0.0,0.0,0.0,0.0,0.0,0.0,0.0,0.0,0.0,0.0,0.0,0.0,0.0,0.0,0.0,0.0,0.0,0.0,0.0,0.0,0.0,0.0,0.0,0.0,0.0,0.0,0.0,0.0,0.0,0.0,0.0,0.0,0.0,0.0,0.0,0.0,0.0,0.0,0.0,0.0,0.0,0.0,0.0,0.0,0.0,0.0,0.0,0.0,0.0,0.0,0.0,0.0,0.0,0.0,0.0,0.0,0.0,0.0,0.0,0.0,0.0,0.0,0.0,0.0,0.0,0.0,0.0,0.0,0.0,0.0,0.0,0.0,0.0,0.0,0.0,0.0,0.0,0.0,0.0,0.0,0.0,0.0,0.0,0.0,0.0,0.0,0.0,0.0,0.0,0.0,0.0,0.0,0.0,0.0,0.0,0.0,0.0,0.0,0.0,0.0,0.0,0.0,0.0,0.0,0.0,0.0,0.0,0.0,0.0,0.0,0.0,0.0,0.0,0.0,0.0,0.0,0.0,0.0,0.0,0.0,0.0,0.0,0.0,0.0,0.0,0.0,0.0,0.0,0.0,0.0,0.0,0.0,0.0,0.0,0.0,0.0,0.0,0.0,0.0,0.0,0.0,0.0,0.0,0.0,0.0,0.0,0.0,0.0,0.0,0.0,0.0,0.0,0.0,0.0,0.0,0.0,0.0,0.0,0.0,0.0,0.0,0.0,0.0,0.0,0.0,0.0,0.0,0.0,0.0,0.0,0.0,0.0,0.0,0.0,0.0,0.0,0.0,0.0,0.0,0.0,0.0,0.0,0.0,0.0,0.0,0.0,0.0,0.0,0.0,0.0,0.0,0.0,0.0,0.0,0.0,0.0,0.0,0.0,0.0,0.0,0.0,0.0,0.0,0.0,0.0,0.0,0.0,0.0,0.0,0.0,0.0,0.0,0.0,0.0,0.0,0.0,0.0,0.0,0.0,0.0,0.0,0.0,0.0,0.0,0.0,0.0,0.0,0.0,0.0,0.0,0.0,0.0,0.0,0.0,0.0,0.0,0.0,0.0,0.0,0.0,0.0,0.0,0.0,0.0,0.0,0.0,0.0,0.0,0.0,0.0,0.0,0.0,0.0,0.0,0.0,0.0,0.0,0.0,0.0,0.0,0.0,0.0,0.0,0.0,0.0,0.0,0.0,0.0,0.0,0.0,0.0,0.0,0.0,0.0,0.0,0.0,0.0,0.0,0.0,0.0,0.0,0.0,0.0,0.0,0.0,0.0,0.0,0.0,0.0,0.0,0.0,0.0,0.0,0.0,0.0,0.0,0.0,0.0,0.0,0.0,0.0,0.0,0.0,0.0,0.0,0.0,0.0,0.0,0.0,0.0,0.0,0.0,0.0,0.0,0.0,0.0,0.0,0.0,0.0,0.0,0.0,0.0,0.0,0.0,0.0,0.0,0.0,0.0,0.0,0.0,0.0,0.0,0.0,0.0,0.0,0.0,0.0,0.0,0.0,0.0,0.0,0.0,0.0,0.0,0.0,0.0,0.0,0.0,0.0,0.0,0.0,0.0,0.0,0.0,0.0,0.0,0.0,0.0,0.0,0.0,0.0,0.0,0.0,0.0,0.0,0.0,0.0,0.0,0.0,0.0,0.0,0.0,0.0,0.0,0.0,0.0,0.0,0.0,0.0,0.0,0.0,0.0,0.0,0.0,0.0,0.0,0.0,0.0,0.0,0.0,0.0,0.0,0.0,0.0,0.0,0.0,0.0,0.0,0.0,0.0,0.0,0.0,0.0,0.0,0.0,0.0,0.0,0.0,0.0,0.0,0.0,0.0,0.0,0.0,0.0,0.0,0.0,0.0,0.0,0.0,0.0,0.0,0.0,0.0,0.0,0.0,0.0,0.0,0.0,0.0,0.0,0.0,0.0,0.0,0.0,0.0,0.0,0.0,0.0,0.0,0.0,0.0,0.0,0.0,0.0,0.0,0.0,0.0,0.0,0.0,0.0,0.0,0.0,0.0,0.0,0.0,0.0,0.0,0.0,0.0,0.0,0.0,0.0,0.0,0.0,0.0,0.0,0.0,0.0,0.0,0.0,0.0,0.0,0.0,0.0,0.0,0.0,0.0,0.0,0.0,0.0,0.0,0.0,0.0,0.0,0.0,0.0,0.0,0.0,0.0,0.0,0.0,0.0,0.0,0.0,0.0,0.0,0.0,0.0,0.0,0.0,0.0,0.0,0.0,0.0,0.0,0.0,0.0,0.0,0.0,0.0,0.0,0.0,0.0,0.0,0.0,0.0,0.0,0.0,0.0,0.0,0.0,0.0,0.0,0.0,0.0,0.0,0.0,0.0,0.0,0.0,0.0,0.0,0.0,0.0,0.0,0.0,0.0,0.0,0.0,0.0,0.0,0.0,0.0,0.0,0.0,0.0,0.0,0.0,0.0,0.0,0.0,0.0,0.0,0.0,0.0,0.0,0.0,0.0,0.0,0.0,0.0,0.0,0.0,0.0,0.0,0.0,0.0,0.0,0.0,0.0,0.0,0.0,0.0,0.0,0.0,0.0,0.0,0.0,0.0,0.0,0.0,0.0,0.0,0.0,0.0,0.0,0.0,0.0,0.0,0.0,0.0,0.0,0.0,0.0,0.0,0.0,0.0,0.0,0.0,0.0,0.0,0.0,0.0,0.0,0.0,0.0,0.0,0.0,0.0,0.0,0.0,0.0,0.0,0.0,0.0,0.0,0.0,0.0,0.0,0.0,0.0,0.0,0.0,0.0,0.0,0.0,0.0,0.0,0.0,0.0,0.0,0.0,0.0,0.0,0.0,0.0,0.0,0.0,0.0,0.0,0.0,0.0,0.0,0.0,0.0,0.0,0.0,0.0,0.0,0.0,0.0,0.0,0.0,0.0,0.0,0.0,0.0,0.0,0.0,0.0,0.0,0.0,0.0,0.0,0.0,0.0,0.0,0.0,0.0,0.0,0.0,0.0,0.0,0.0,0.0,0.0,0.0,0.0,0.0,0.0,0.0,0.0,0.0,0.0,0.0,0.0,0.0,0.0,0.0,0.0,0.0,0.0,0.0,0.0,0.0,0.0,0.0,0.0,0.0,0.0,0.0,0.0,0.0,0.0,0.0,0.0,0.0,0.0,0.0,0.0,0.0,0.0,0.0,0.0,0.0,0.0,0.0,0.0,0.0,0.0,0.0,0.0,0.0,0.0,0.0,0.0,0.0,0.0,0.0,0.0,0.0,0.0,0.0,0.0,0.0,0.0,0.0,0.0,0.0,0.0,0.0,0.0,0.0,0.0,0.0,0.0,0.0,0.0,0.0,0.0,0.0,0.0,0.0,0.0,0.0,0.0,0.0,0.0,0.0,0.0,0.0,0.0,0.0,0.0,0.0,0.0,0.0,0.0,0.0,0.0,0.0,0.0,0.0,0.0,0.0,0.0,0.0,0.0,0.0,0.0,0.0,0.0,0.0,0.0,0.0,0.0,0.0,0.0,0.0,0.0,0.0,0.0,0.0,0.0,0.0,0.0,0.0,0.0,0.0,0.0,0.0,0.0,0.0,0.0,0.0,0.0,0.0,0.0,0.0,0.0,0.0,0.0,0.0,0.0,0.0,0.0,0.0,0.0,0.0,0.0,0.0,0.0,0.0,0.0,0.0,0.0,0.0,0.0,0.0,0.0,0.0,0.0,0.0,0.0,0.0,0.0,0.0,0.0,0.0,0.0,0.0,0.0,0.0,0.0,0.0,0.0,0.0,0.0,0.0,0.0,0.0,0.0,0.0,0.0,0.0,0.0,0.0,0.0,0.0,0.0,0.0,0.0,0.0,0.0,0.0,0.0,0.0,0.0,0.0,0.0,0.0,0.0,0.0,0.0,0.0,0.0,0.0,0.0,0.0,0.0,0.0,0.0,0.0,0.0,0.0,0.0,0.0,0.0,0.0,0.0,0.0,0.0,0.0,0.0,0.0,0.0,0.0,0.0,0.0,0.0,0.0,0.0,0.0,0.0,0.0,0.0,0.0,0.0,0.0,0.0,0.0,0.0,0.0,0.0,0.0,0.0,0.0,0.0,0.0,0.0,0.0,0.0,0.0,0.0,0.0,0.0,0.0,0.0,0.0,0.0,0.0,0.0,0.0,0.0,0.0,0.0,0.2822,0.0,0.0,0.0,0.0,0.0,0.0,0.0,0.0,0.0,0.0,0.0,0.0,0.0,0.0,0.0,0.0,0.0,0.0,0.0,0.0,0.0,0.0,0.0,0.0,0.0,0.0,0.0,0.0,0.0,0.0,0.0,0.0,0.0,0.0,0.0,0.0,0.0,0.0,0.0,0.0,0.0,0.0,0.0,0.0,0.0,0.0,0.0,0.0,0.0,0.0,0.0,0.0,0.0,0.0,0.0,0.0,0.0,0.0,0.0,0.0,0.0,0.0,0.0,0.0,0.0,0.0,0.0,0.0,0.0,0.0,0.0,0.0,0.0,0.0,0.0,0.0,0.0,0.0,0.0,0.0,0.0,0.0,0.0,0.0,0.0,0.0,0.0,0.0,0.0,0.0,0.0,0.0,0.0,0.0,0.0,0.0,0.0,0.0,0.0,0.0,0.0,0.0,0.0,0.0,0.0,0.0,0.0,0.0,0.0,0.0,0.3886,0.4004,0.3454,0.3184,0.3311,0.0,0.0,0.0,0.0,0.0,0.0,0.0,0.0,0.0,0.0,0.0,0.0,0.0,0.0,0.0,0.0,0.0,0.0,0.0,0.0,0.0,0.0,0.0,0.0,0.0,0.0,0.0,0.0,0.0,0.0,0.0,0.0,0.0,0.0,0.0,0.0,0.0,0.0,0.0,0.0,0.0,0.0,0.0,0.0,0.0,0.0,0.0,0.0,0.0,0.0,0.0,0.0,0.0,0.0,0.0,0.0,0.0,0.0,0.0,0.0,0.0,0.0,0.0,0.0,0.0,0.0,0.0,0.0,0.0,0.0,0.0,0.0,0.0,0.0,0.0,0.0,0.0,0.0,0.0,0.0,0.0,0.0,0.0,0.0,0.0,0.0,0.0,0.0,0.0,0.0,0.0,0.0,0.0,0.0,0.0,0.0,0.0,0.0,0.0,0.0,0.0,0.0,0.0,0.0,0.0,0.0,0.0,0.0,0.0,0.0,0.0,0.0,0.4161,0.3823,0.3766,0.0,0.0,0.0,0.0,0.0,0.0,0.0,0.0,0.0,0.0,0.0,0.0,0.0,0.0,0.0,0.0,0.0,0.0,0.0,0.0,0.0,0.0,0.0,0.0,0.0,0.0,0.0,0.0,0.0,0.0,0.0,0.0,0.0,0.0,0.0,0.0,0.0,0.0,0.0,0.0,0.0,0.0,0.0,0.0,0.0,0.0,0.0,0.0,0.0,0.0,0.0,0.0,0.0,0.0,0.0,0.0,0.0,0.0,0.0,0.0,0.0,0.0,0.0,0.0,0.0,0.0,0.0,0.0,0.0,0.0,0.0,0.0,0.0,0.0,0.0,0.0,0.0,0.0,0.0,0.0,0.0,0.0,0.0,0.0,0.0,0.0,0.0,0.0,0.0,0.0,0.0,0.0,0.0,0.0,0.0,0.0,0.0,0.0,0.0,0.0,0.0,0.0,0.0,0.0,0.0,0.0,0.0,0.0,0.0,0.0,0.5103,0.5802,0.5262,0.0,0.4335,0.0,0.0,0.0,0.0,0.0,0.0,0.0,0.0,0.0,0.0,0.0,0.0,0.0,0.0,0.0,0.0,0.0,0.0,0.0,0.0,0.0,0.0,0.0,0.0,0.0,0.0,0.0,0.0,0.0,0.0,0.0,0.0,0.0,0.0,0.0,0.0,0.0,0.0,0.0,0.0,0.0,0.0,0.0,0.0,0.0,0.0,0.0,0.0,0.0,0.0,0.0,0.0,0.0,0.0,0.0,0.0,0.0,0.0,0.0,0.0,0.0,0.0,0.0,0.0,0.0,0.0,0.0,0.0,0.0,0.0,0.0,0.0,0.0,0.0,0.0,0.0,0.0,0.0,0.0,0.0,0.0,0.0,0.0,0.0,0.0,0.0,0.0,0.0,0.0,0.0,0.0,0.0,0.0,0.0,0.0,0.0,0.0,0.0,0.0,0.0,0.0,0.0,0.0,0.0,0.0,0.0,0.0,0.0,0.0,0.0,0.5641,0.6287,0.5783,0.5182,0.0,0.0,0.0,0.0,0.0,0.0,0.0,0.0,0.0,0.0,0.0,0.0,0.0,0.0,0.0,0.0,0.0,0.0,0.0,0.0,0.0,0.0,0.0,0.0,0.0,0.0,0.0,0.0,0.0,0.0,0.0,0.0,0.0,0.0,0.0,0.0,0.0,0.0,0.0,0.0,0.0,0.0,0.0,0.0,0.0,0.0,0.0,0.0,0.0,0.0,0.0,0.0,0.0,0.0,0.0,0.0,0.0,0.0,0.0,0.0,0.0,0.0,0.0,0.0,0.0,0.0,0.0,0.0,0.0,0.0,0.0,0.0,0.0,0.0,0.0,0.0,0.0,0.0,0.0,0.0,0.0,0.0,0.0,0.0,0.0,0.0,0.0,0.0,0.0,0.0,0.0,0.0,0.0,0.0,0.0,0.0,0.0,0.0,0.0,0.0,0.0,0.0,0.0,0.0,0.0,0.0,0.0,0.0,0.0,0.0,0.6105,0.6046,0.6554,0.6065,0.5466,0.4835,0.0,0.0,0.0,0.0,0.0,0.0,0.0,0.0,0.0,0.0,0.0,0.0,0.0,0.0,0.0,0.0,0.0,0.0,0.0,0.0,0.0,0.0,0.0,0.0,0.0,0.0,0.0,0.0,0.0,0.0,0.0,0.0,0.0,0.0,0.0,0.0,0.0,0.0,0.0,0.0,0.0,0.0,0.0,0.0,0.0,0.0,0.0,0.0,0.0,0.0,0.0,0.0,0.0,0.0,0.0,0.0,0.0,0.0,0.0,0.0,0.0,0.0,0.0,0.0,0.0,0.0,0.0,0.0,0.0,0.0,0.0,0.0,0.0,0.0,0.0,0.0,0.0,0.0,0.0,0.0,0.0,0.0,0.0,0.0,0.0,0.0,0.0,0.0,0.0,0.0,0.0,0.0,0.0,0.0,0.0,0.0,0.0,0.0,0.0,0.0,0.0,0.0,0.0,0.0,0.0,0.0,0.0,0.0,0.8327,0.6857,0.6297,0.6874,0.6125,0.5652,0.0,0.0,0.0,0.0,0.0,0.0,0.0,0.0,0.0,0.0,0.0,0.0,0.0,0.0,0.0,0.0,0.0,0.0,0.0,0.0,0.0,0.0,0.0,0.0,0.0,0.0,0.0,0.0,0.0,0.0,0.0,0.0,0.0,0.0,0.0,0.0,0.0,0.0,0.0,0.0,0.0,0.0,0.0,0.0,0.0,0.0,0.0,0.0,0.0,0.0,0.0,0.0,0.0,0.0,0.0,0.0,0.0,0.0,0.0,0.0,0.0,0.0,0.0,0.0,0.0,0.0,0.0,0.0,0.0,0.0,0.0,0.0,0.0,0.0,0.0,0.0,0.0,0.0,0.0,0.0,0.0,0.0,0.0,0.0,0.0,0.0,0.0,0.0,0.0,0.0,0.0,0.0,0.0,0.0,0.0,0.0,0.0,0.0,0.0,0.0,0.0,0.0,0.0,0.0,0.0,0.0,0.0,0.0,0.0,0.7789,0.7356,0.7166,0.7253,0.6701,0.631,0.0,0.0,0.0,0.0,0.0,0.0,0.0,0.0,0.0,0.0,0.0,0.0,0.0,0.0,0.0,0.0,0.0,0.0,0.0,0.0,0.0,0.0,0.0,0.0,0.0,0.0,0.0,0.0,0.0,0.0,0.0,0.0,0.0,0.0,0.0,0.0,0.0,0.0,0.0,0.0,0.0,0.0,0.0,0.0,0.0,0.0,0.0,0.0,0.0,0.0,0.0,0.0,0.0,0.0,0.0,0.0,0.0,0.0,0.0,0.0,0.0,0.0,0.0,0.0,0.0,0.0,0.0,0.0,0.0,0.0,0.0,0.0,0.0,0.0,0.0,0.0,0.0,0.0,0.0,0.0,0.0,0.0,0.0,0.0,0.0,0.0,0.0,0.0,0.0,0.0,0.0,0.0,0.0,0.0,0.0,0.0,0.0,0.0,0.0,0.0,0.0,0.0,0.0,0.0,0.0,0.0,0.0,0.0,0.0,0.7553,0.0,0.7892,0.7471,0.7036,0.6638,0.0,0.0,0.0,0.0,0.0,0.0,0.0,0.0,0.0,0.0,0.0,0.0,0.0,0.0,0.0,0.0,0.0,0.0,0.0,0.0,0.0,0.0,0.0,0.0,0.0,0.0,0.0,0.0,0.0,0.0,0.0,0.0,0.0,0.0,0.0,0.0,0.0,0.0,0.0,0.0,0.0,0.0,0.0,0.0,0.0,0.0,0.0,0.0,0.0,0.0,0.0,0.0,0.0,0.0,0.0,0.0,0.0,0.0,0.0,0.0,0.0,0.0,0.0,0.0,0.0,0.0,0.0,0.0,0.0,0.0,0.0,0.0,0.0,0.0,0.0,0.0,0.0,0.0,0.0,0.0,0.0,0.0,0.0,0.0,0.0,0.0,0.0,0.0,0.0,0.0,0.0,0.0,0.0,0.0,0.0,0.0,0.0,0.0,0.0,0.0,0.0,0.0,0.0,0.0,0.0,0.0,0.0,0.0,0.8034,0.7844,0.8498,0.8418,0.7464,0.7075,0.6582,0.0,0.0,0.0,0.0,0.0,0.0,0.0,0.0,0.0,0.0,0.0,0.0,0.0,0.0,0.0,0.0,0.0,0.0,0.0,0.0,0.0,0.0,0.0,0.0,0.0,0.0,0.0,0.0,0.0,0.0,0.0,0.0,0.0,0.0,0.0,0.0,0.0,0.0,0.0,0.0,0.0,0.0,0.0,0.0,0.0,0.0,0.0,0.0,0.0,0.0,0.0,0.0,0.0,0.0,0.0,0.0,0.0,0.0,0.0,0.0,0.0,0.0,0.0,0.0,0.0,0.0,0.0,0.0,0.0,0.0,0.0,0.0,0.0,0.0,0.0,0.0,0.0,0.0,0.0,0.0,0.0,0.0,0.0,0.0,0.0,0.0,0.0,0.0,0.0,0.0,0.0,0.0,0.0,0.0,0.0,0.0,0.0,0.0,0.0,0.0,0.0,0.0,0.0,0.0,0.0,0.0,0.0,0.0,0.0,0.8587,0.8602,0.8824,0.9193,0.799,0.7488,0.0,0.0,0.0,0.0,0.0,0.0,0.0,0.0,0.0,0.0,0.0,0.0,0.0,0.0,0.0,0.0,0.0,0.0,0.0,0.0,0.0,0.0,0.0,0.0,0.0,0.0,0.0,0.0,0.0,0.0,0.0,0.0,0.0,0.0,0.0,0.0,0.0,0.0,0.0,0.0,0.0,0.0,0.0,0.0,0.0,0.0,0.0,0.0,0.0,0.0,0.0,0.0,0.0,0.0,0.0,0.0,0.0,0.0,0.0,0.0,0.0,0.0,0.0,0.0,0.0,0.0,0.0,0.0,0.0,0.0,0.0,0.0,0.0,0.0,0.0,0.0,0.0,0.0,0.0,0.0,0.0,0.0,0.0,0.0,0.0,0.0,0.0,0.0,0.0,0.0,0.0,0.0,0.0,0.0,0.0,0.0,0.0,0.0,0.0,0.0,0.0,0.0,0.0,0.0,0.0,0.0,0.0,0.0,0.0,0.9687,0.9442,0.9594,1.0149,0.8942,0.8378,0.8554,0.0,0.0,0.0,0.0,0.0,0.0,0.0,0.0,0.0,0.0,0.0,0.0,0.0,0.0,0.0,0.0,0.0,0.0,0.0,0.0,0.0,0.0,0.0,0.0,0.0,0.0,0.0,0.0,0.0,0.0,0.0,0.0,0.0,0.0,0.0,0.0,0.0,0.0,0.0,0.0,0.0,0.0,0.0,0.0,0.0,0.0,0.0,0.0,0.0,0.0,0.0,0.0,0.0,0.0,0.0,0.0,0.0,0.0,0.0,0.0,0.0,0.0,0.0,0.0,0.0,0.0,0.0,0.0,0.0,0.0,0.0,0.0,0.0,0.0,0.0,0.0,0.0,0.0,0.0,0.0,0.0,0.0,0.0,0.0,0.0,0.0,0.0,0.0,0.0,0.0,0.0,0.0,0.0,0.0,0.0,0.0,0.0,0.0,0.0,0.0,0.0,0.0,0.0,0.0,0.0,0.0,0.0,0.0,1.1098,1.0957,1.0758,1.0489,0.9938,0.9244,0.0,0.0,0.0,0.0,0.0,0.0,0.0,0.0,0.0,0.0,0.0,0.0,0.0,0.0,0.0,0.0,0.0,0.0,0.0,0.0,0.0,0.0,0.0,0.0,0.0,0.0,0.0,0.0,0.0,0.0,0.0,0.0,0.0,0.0,0.0,0.0,0.0,0.0,0.0,0.0,0.0,0.0,0.0,0.0,0.0,0.0,0.0,0.0,0.0,0.0,0.0,0.0,0.0,0.0,0.0,0.0,0.0,0.0,0.0,0.0,0.0,0.0,0.0,0.0,0.0,0.0,0.0,0.0,0.0,0.0,0.0,0.0,0.0,0.0,0.0,0.0,0.0,0.0,0.0,0.0,0.0,0.0,0.0,0.0,0.0,0.0,0.0,0.0,0.0,0.0,0.0,0.0,0.0,0.0,0.0,0.0,0.0,0.0,0.0,0.0,0.0,0.0,0.0,0.0,0.0,0.0,0.0,0.0,0.0,1.2228,1.2739,1.2809,1.2424,1.0884,1.0046,0.0,0.0,0.0,0.0,0.0,0.0,0.0,0.0,0.0,0.0,0.0,0.0,0.0,0.0,0.0,0.0,0.0,0.0,0.0,0.0,0.0,0.0,0.0,0.0,0.0,0.0,0.0,0.0,0.0,0.0,0.0,0.0,0.0,0.0,0.0,0.0,0.0,0.0,0.0,0.0,0.0,0.0,0.0,0.0,0.0,0.0,0.0,0.0,0.0,0.0,0.0,0.0,0.0,0.0,0.0,0.0,0.0,0.0,0.0,0.0,0.0,0.0,0.0,0.0,0.0,0.0,0.0,0.0,0.0,0.0,0.0,0.0,0.0,0.0,0.0,0.0,0.0,0.0,0.0,0.0,0.0,0.0,0.0,0.0,0.0,0.0,0.0,0.0,0.0,0.0,0.0,0.0,0.0,0.0,0.0,0.0,0.0,0.0,0.0,0.0,0.0,0.0,0.0,0.0,0.0,0.0,0.0,0.0,1.2127,1.2687,1.3834,1.4309,1.4057,1.2263,1.1122,0.0,0.0,0.0,0.0,0.0,0.0,0.0,0.0,0.0,0.0,0.0,0.0,0.0,0.0,0.0,0.0,0.0,0.0,0.0,0.0,0.0,0.0,0.0,0.0,0.0,0.0,0.0,0.0,0.0,0.0,0.0,0.0,0.0,0.0,0.0,0.0,0.0,0.0,0.0,0.0,0.0,0.0,0.0,0.0,0.0,0.0,0.0,0.0,0.0,0.0,0.0,0.0,0.0,0.0,0.0,0.0,0.0,0.0,0.0,0.0,0.0,0.0,0.0,0.0,0.0,0.0,0.0,0.0,0.0,0.0,0.0,0.0,0.0,0.0,0.0,0.0,0.0,0.0,0.0,0.0,0.0,0.0,0.0,0.0,0.0,0.0,0.0,0.0,0.0,0.0,0.0,0.0,0.0,0.0,0.0,0.0,0.0,0.0,0.0,0.0,0.0,0.0,0.0,0.0,0.0,0.0,0.0,0.0,1.2678,1.2854,1.4445,1.5257,1.5159,1.3682,1.2226,0.0,0.0,0.0,0.0,0.0,0.0,0.0,0.0,0.0,0.0,0.0,0.0,0.0,0.0,0.0,0.0,0.0,0.0,0.0,0.0,0.0,0.0,0.0,0.0,0.0,0.0,0.0,0.0,0.0,0.0,0.0,0.0,0.0,0.0,0.0,0.0,0.0,0.0,0.0,0.0,0.0,0.0,0.0,0.0,0.0,0.0,0.0,0.0,0.0,0.0,0.0,0.0,0.0,0.0,0.0,0.0,0.0,0.0,0.0,0.0,0.0,0.0,0.0,0.0,0.0,0.0,0.0,0.0,0.0,0.0,0.0,0.0,0.0,0.0,0.0,0.0,0.0,0.0,0.0,0.0,0.0,0.0,0.0,0.0,0.0,0.0,0.0,0.0,0.0,0.0,0.0,0.0,0.0,0.0,0.0,0.0,0.0,0.0,0.0,0.0,0.0,0.0,0.0,0.0,0.0,0.0,0.0,0.0,1.302,1.3728,1.4761,1.5262,1.5207,1.3847,1.255,0.0,0.0,0.0,0.0,0.0,0.0,0.0,0.0,0.0,0.0,0.0,0.0,0.0,0.0,0.0,0.0,0.0,0.0,0.0,0.0,0.0,0.0,0.0,0.0,0.0,0.0,0.0,0.0,0.0,0.0,0.0,0.0,0.0,0.0,0.0,0.0,0.0,0.0,0.0,0.0,0.0,0.0,0.0,0.0,0.0,0.0,0.0,0.0,1.1178,0.0,0.0,0.0,0.0,0.0,0.0,0.0,0.0,0.0,0.0,0.0,0.0,0.0,0.0,0.0,0.0,0.0,0.0,0.0,0.0,0.0,0.0,0.0,0.0,0.0,0.0,0.0,0.0,0.0,0.0,0.0,0.0,0.0,0.0,0.0,0.0,0.0,0.0,0.0,0.0,0.0,0.0,0.0,0.0,0.0,0.0,0.0,0.0,0.0,0.0,0.0,0.0,0.0,0.0,0.0,0.0,0.0,0.0,0.0,1.3066,1.39,1.4821,1.5289,1.5214,1.4405,1.3198,0.0,0.0,0.0,0.0,0.0,0.0,0.0,0.0,0.0,0.0,0.0,0.0,0.0,0.0,0.0,0.0,0.0,0.0,0.0,0.0,0.0,0.0,0.0,0.0,0.0,0.0,0.0,0.0,0.0,0.0,0.0,0.0,0.0,0.0,0.0,0.0,0.0,0.0,0.0,0.0,0.0,0.0,0.0,0.0,0.0,0.0,0.0,0.0,0.0,0.0,0.0,0.0,0.0,0.0,0.0,0.0,0.0,0.0,0.0,0.0,0.0,0.0,0.0,0.0,0.0,0.0,0.0,0.0,0.0,0.0,0.0,0.0,0.0,0.0,0.0,0.0,0.0,0.0,0.0,0.0,0.0,0.0,0.0,0.0,0.0,0.0,0.0,0.0,0.0,0.0,0.0,0.0,0.0,0.0,0.0,0.0,0.0,0.0,0.0,0.0,0.0,0.0,0.0,0.0,0.0,0.0,0.0,1.2324,1.3198,1.397,1.4853,1.5292,1.529,1.4873,1.3709,1.1718,0.0,0.0,0.0,0.0,0.0,0.0,0.0,0.0,0.0,0.0,0.0,0.0,0.0,0.0,0.0,0.0,0.0,0.0,0.0,0.0,0.0,0.0,0.0,0.0,0.0,0.0,0.0,0.0,0.0,0.0,0.0,0.0,0.0,0.0,0.0,0.0,0.0,0.0,1.2514,1.2293,0.0,0.0,0.0,0.0,0.0,0.0,0.0,0.0,1.1497,0.0,0.0,0.0,0.0,0.0,0.0,0.0,0.0,0.0,0.0,0.0,0.0,0.0,0.0,0.0,0.0,0.0,0.0,0.0,0.0,0.0,0.0,0.0,0.0,0.0,0.0,0.0,0.0,0.0,0.0,0.0,0.0,0.0,0.0,0.0,0.0,0.0,0.0,0.0,0.0,0.0,0.0,0.0,0.0,0.0,0.0,0.0,0.0,0.0,0.0,0.0,0.0,0.0,0.0,0.0,0.0,1.2189,1.3221,1.4105,1.4801,1.518,1.533,1.5203,1.4458,1.3328,1.1872,0.0,0.0,0.0,0.0,0.0,0.0,0.0,0.0,0.0,0.0,0.0,0.0,0.0,0.0,0.0,0.0,0.0,0.0,0.0,0.0,0.0,0.0,0.0,0.0,0.0,0.0,0.0,0.0,0.0,0.0,0.0,0.0,0.0,0.0,0.0,0.0,0.0,0.0,0.0,1.2323,1.2143,0.0,0.0,0.0,0.0,0.0,0.0,0.0,0.0,1.1353,0.0,0.0,0.0,0.0,0.0,0.0,0.0,0.0,0.0,0.0,0.0,0.0,0.0,0.0,0.0,0.0,0.0,0.0,0.0,0.0,0.0,0.0,0.0,0.0,0.0,0.0,0.0,0.0,0.0,0.0,0.0,0.0,0.0,0.0,0.0,0.0,0.0,0.0,0.0,0.0,0.0,0.0,0.0,0.0,0.0,0.0,0.0,0.0,0.0,0.0,0.0,0.0,0.0,0.0,0.0,1.2823,1.3432,1.408,1.4766,1.4724,1.4848,1.517,1.3917,1.2777,0.0,0.0,0.0,0.0,0.0,0.0,0.0,0.0,0.0,0.0,0.0,0.0,0.0,0.0,0.0,0.0,0.0,0.0,0.0,0.0,0.0,0.0,0.0,0.0,0.0,0.0,0.0,0.0,0.0,0.0,0.0,0.0,0.0,0.0,0.0,0.0,0.0,0.0,0.0,0.0,1.2803,1.2837,1.2267,0.0,0.0,0.0,0.0,0.0,0.0,1.1896,1.1541,0.0,0.0,0.0,0.0,0.0,0.0,0.0,0.0,0.0,0.0,0.0,0.0,0.0,0.0,0.0,0.0,0.0,0.0,0.0,0.0,0.0,0.0,0.0,0.0,0.0,0.0,0.0,0.0,0.0,0.0,0.0,0.0,0.0,0.0,0.0,0.0,0.0,0.0,0.0,0.0,0.0,0.0,0.0,0.0,0.0,0.0,0.0,0.0,0.0,0.0,0.0,0.0,0.0,0.0,0.0,1.3287,1.358,1.4001,1.4581,1.4224,1.4389,1.5119,1.3317,1.2183,0.0,0.0,0.0,0.0,0.0,0.0,0.0,0.0,0.0,0.0,0.0,0.0,0.0,0.0,0.0,0.0,0.0,0.0,0.0,0.0,0.0,0.0,0.0,0.0,0.0,0.0,0.0,0.0,0.0,0.0,0.0,0.0,0.0,0.0,0.0,0.0,0.0,0.0,0.0,0.0,0.0,1.3537,1.2711,1.3005,0.0,0.0,0.0,0.0,1.3016,1.2539,0.0,0.0,0.0,0.0,0.0,0.0,0.0,0.0,0.0,0.0,0.0,0.0,0.0,0.0,0.0,0.0,0.0,0.0,0.0,0.0,0.0,0.0,0.0,0.0,0.0,0.0,0.0,0.0,0.0,0.0,0.0,0.0,0.0,0.0,0.0,0.0,0.0,0.0,0.0,0.0,0.0,0.0,0.0,0.0,0.0,0.0,0.0,0.0,0.0,0.0,0.0,0.0,0.0,0.0,0.0,0.0,1.3468,1.4096,1.4504,1.4732,1.427,1.4376,1.5131,1.2662,1.1517,0.0,0.0,0.0,0.0,0.0,0.0,0.0,0.0,0.0,0.0,0.0,0.0,0.0,0.0,0.0,0.0,0.0,0.0,0.0,0.0,0.0,0.0,0.0,0.0,0.0,0.0,0.0,0.0,0.0,0.0,0.0,0.0,0.0,0.0,0.0,0.0,0.0,0.0,0.0,0.0,0.0,1.3876,1.3642,1.367,1.373,0.0,0.0,1.3961,1.3424,1.3482,0.0,0.0,0.0,0.0,0.0,0.0,0.0,0.0,0.0,0.0,0.0,0.0,0.0,0.0,0.0,0.0,0.0,0.0,0.0,0.0,0.0,0.0,0.0,0.0,0.0,0.0,0.0,0.0,0.0,0.0,0.0,0.0,0.0,0.0,0.0,0.0,0.0,0.0,0.0,0.0,0.0,0.0,0.0,0.0,0.0,0.0,0.0,0.0,0.0,0.0,0.0,0.0,0.0,0.0,0.0,1.3301,1.3919,1.4127,1.4037,1.3671,1.3334,1.3312,1.3652,1.1584,1.0752,0.0,0.0,0.0,0.0,0.0,0.0,0.0,0.0,0.0,0.0,0.0,0.0,0.0,0.0,0.0,0.0,0.0,0.0,0.0,0.0,0.0,0.0,0.0,0.0,0.0,0.0,0.0,0.0,0.0,0.0,0.0,0.0,0.0,0.0,0.0,0.0,0.0,0.0,0.0,0.0,0.0,0.0,1.3958,1.4572,0.0,0.0,0.0,1.5176,1.4766,0.0,0.0,0.0,0.0,0.0,0.0,0.0,0.0,0.0,0.0,0.0,0.0,0.0,0.0,0.0,0.0,0.0,0.0,0.0,0.0,0.0,0.0,0.0,0.0,0.0,0.0,0.0,0.0,0.0,0.0,0.0,0.0,0.0,0.0,0.0,0.0,0.0,0.0,0.0,0.0,0.0,0.0,0.0,0.0,0.0,0.0,0.0,0.0,0.0,0.0,0.0,0.0,0.0,0.0,0.0,0.0,0.0,1.4209,1.3972,1.3498,1.2789,1.274,1.2663,1.2512,1.1048,0.0,0.0,0.0,0.0,0.0,0.0,0.0,0.0,0.0,0.0,0.0,0.0,0.0,0.0,0.0,0.0,0.0,0.0,0.0,0.0,0.0,0.0,0.0,0.0,0.0,0.0,0.0,1.149,0.0,0.0,0.0,0.0,0.0,0.0,0.0,0.0,0.0,0.0,0.0,0.0,0.0,0.0,1.5379,1.4657,1.5528,1.6061,0.0,0.0,1.6229,1.5732,1.4973,1.4126,0.0,0.0,0.0,0.0,0.0,0.0,0.0,0.0,0.0,0.0,0.0,0.0,0.0,0.0,0.0,0.0,0.0,0.0,0.0,0.0,0.0,0.0,0.0,0.0,0.0,0.0,0.0,0.0,0.0,0.0,0.0,0.0,0.0,0.0,0.0,0.0,0.0,0.0,0.0,0.0,0.0,0.0,0.0,0.0,0.0,0.0,0.0,0.0,0.0,0.0,0.0,0.0,0.0,0.0,0.0,1.3989,1.3633,1.3176,1.2651,1.3132,1.3169,1.26,1.1562,1.1011,0.0,0.0,0.0,0.0,0.0,0.0,0.0,0.0,0.0,0.0,0.0,0.0,0.0,0.0,0.0,0.0,0.0,0.0,0.0,0.0,0.0,0.0,0.0,0.0,0.0,0.0,0.0,0.0,0.0,0.0,0.0,0.0,0.0,0.0,0.0,0.0,0.0,0.0,0.0,0.0,0.0,1.6504,1.6416,1.6559,1.6699,0.0,0.0,1.6901,1.5694,1.5785,1.5168,1.2857,0.0,0.0,0.0,0.0,0.0,0.0,0.0,0.0,0.0,0.0,0.0,0.0,0.0,0.0,0.0,0.0,0.0,0.0,0.0,0.0,0.0,0.0,0.0,0.0,0.0,0.0,0.0,0.0,0.0,0.0,0.0,0.0,0.0,0.0,0.0,0.0,0.0,0.0,0.0,0.0,0.0,0.0,0.0,0.0,0.0,0.0,0.0,0.0,0.0,0.0,0.0,0.0,0.0,1.3829,1.3938,1.3583,1.31,1.2525,1.3184,1.3214,1.2567,1.2184,1.1696,0.0,0.0,0.0,0.0,0.0,0.0,0.0,0.0,0.0,0.0,0.0,0.0,0.0,0.0,0.0,0.0,0.0,0.0,0.0,0.0,0.0,0.0,0.0,0.0,0.0,0.0,0.0,0.0,1.249,1.2305,1.2289,0.0,0.0,0.0,0.0,0.0,0.0,0.0,0.0,0.0,0.0,1.6761,1.6843,1.7298,0.0,0.0,1.742,1.7535,1.6691,1.642,1.5907,1.4635,1.4444,0.0,0.0,0.0,0.0,0.0,0.0,0.0,0.0,0.0,0.0,0.0,0.0,0.0,0.0,0.0,0.0,0.0,0.0,0.0,0.0,0.0,0.0,0.0,0.0,0.0,0.0,0.0,0.0,0.0,0.0,0.0,0.0,0.0,0.0,0.0,0.0,0.0,0.0,0.0,0.0,0.0,0.0,0.0,0.0,0.0,0.0,0.0,0.0,0.0,0.0,0.0,0.0,1.3861,1.3877,1.361,1.3106,1.2398,1.3395,1.3505,1.2587,1.2822,1.2119,0.0,0.0,0.0,0.0,0.0,0.0,0.0,0.0,0.0,0.0,0.0,0.0,0.0,0.0,0.0,0.0,0.0,0.0,0.0,0.0,0.0,0.0,0.0,0.0,0.0,0.0,0.0,0.0,1.2657,1.2189,1.2207,0.0,0.0,0.0,0.0,0.0,0.0,0.0,0.0,0.0,0.0,1.7294,1.7334,1.7821,1.7918,1.7261,1.7595,1.7681,1.707,1.6669,1.6138,1.5284,0.0,0.0,0.0,0.0,0.0,0.0,0.0,0.0,0.0,0.0,0.0,0.0,0.0,0.0,0.0,0.0,0.0,0.0,0.0,0.0,0.0,0.0,0.0,0.0,0.0,0.0,0.0,0.0,0.0,0.0,1.0017,0.0,0.0,0.0,0.0,0.0,0.0,0.0,0.0,0.0,0.0,0.0,0.0,0.0,0.0,0.0,0.0,0.0,0.0,0.0,0.0,0.0,0.0,1.4057,1.3793,1.365,1.3184,1.2411,1.3918,1.4097,1.273,1.3431,1.22,0.8726,0.0,0.0,0.0,0.0,0.0,0.0,0.0,0.0,0.0,0.0,0.0,0.0,0.0,0.0,0.0,0.0,0.0,0.0,0.0,0.0,0.0,0.0,0.0,0.0,0.0,0.0,1.3104,1.3176,1.3177,0.0,0.0,0.0,0.0,0.0,0.0,0.0,0.0,0.0,0.0,1.8115,1.8281,1.8097,1.8094,1.8069,1.7971,1.7653,1.7206,1.6663,1.637,1.5698,0.0,0.0,0.0,0.0,0.0,0.0,0.0,0.0,0.0,0.0,0.0,0.0,0.0,0.0,0.0,0.0,0.0,0.0,0.0,0.0,0.0,0.0,0.0,0.0,0.0,0.0,0.0,1.1255,1.1039,0.0,0.0,0.0,0.0,0.0,0.0,0.0,0.0,0.0,0.0,0.0,1.1856,1.2208,0.0,0.0,0.0,0.0,0.0,0.0,0.0,0.0,0.0,0.0,0.0,0.0,1.3802,1.3905,1.3529,1.3335,1.3395,1.44,1.4743,1.4419,1.4648,1.3872,1.1985,0.0,0.0,0.0,0.0,0.0,0.0,0.0,0.0,0.0,0.0,0.0,0.0,0.0,0.0,0.0,0.0,0.0,0.0,0.0,0.0,0.0,0.0,0.0,0.0,0.0,1.282,0.0,0.0,0.0,0.0,0.0,0.0,0.0,0.0,0.0,0.0,0.0,1.6456,1.6588,1.7446,1.8125,1.8287,1.8128,1.8069,0.0,0.0,0.0,0.0,0.0,0.0,0.0,0.0,0.0,0.0,0.0,0.0,0.0,0.0,1.5341,1.3548,1.2963,1.2899,1.3344,0.0,0.0,0.0,0.0,0.0,0.0,0.0,0.0,0.0,0.0,0.0,0.0,0.0,0.0,1.2439,0.0,1.2364,0.0,0.0,0.0,0.0,0.0,0.0,0.0,0.0,1.219,1.2695,1.3055,1.3408,1.3605,0.0,1.3923,1.4437,0.0,0.0,0.0,0.0,0.0,0.0,0.0,0.0,1.3781,1.3729,1.3622,1.3718,1.4077,1.4725,1.5126,1.5245,1.4316,1.3947,1.4199,1.0608,1.0225,0.0,0.0,0.0,0.0,0.0,0.0,0.0,0.0,0.0,0.0,0.0,0.0,0.0,0.0,0.0,0.0,0.0,0.0,0.0,0.0,0.0,0.0,0.0,1.2992,0.0,0.0,0.0,0.0,0.0,0.0,0.0,0.0,0.0,1.4247,1.5867,1.7075,1.6921,1.7705,1.829,1.8365,0.0,0.0,0.0,0.0,0.0,0.0,0.0,1.7093,1.6784,1.693,1.7085,1.7069,1.7052,1.7061,1.7077,0.0,0.0,1.4593,1.4106,1.406,1.4412,1.439,1.4506,1.5177,1.5208,1.5105,0.0,0.0,0.0,0.0,0.0,0.0,0.0,0.0,1.3238,1.2891,0.0,1.3467,0.0,0.0,0.0,0.0,0.0,1.2216,0.0,0.0,1.3906,1.4641,1.4629,1.5466,1.5908,1.5961,1.679,1.6413,1.4916,1.4131,0.0,0.0,0.0,0.0,0.0,0.0,1.3991,1.3304,1.3853,1.4253,1.4405,1.4908,1.5202,1.516,1.2633,1.2503,1.4901,1.1608,1.1302,1.4835,1.354,0.0,0.0,0.0,0.0,0.0,0.0,0.0,0.0,0.0,0.0,0.0,0.0,0.0,0.0,0.0,0.0,0.0,0.0,0.0,0.0,1.3713,0.0,0.0,0.0,0.0,0.0,0.0,0.0,0.0,0.0,0.0,1.5888,1.6818,1.7755,1.8426,0.0,0.0,0.0,0.0,1.808,1.7625,1.7417,1.7306,1.7248,1.7345,1.724,1.6735,0.0,0.0,1.7815,1.7449,1.7205,1.7316,1.6915,1.6481,1.6492,1.647,1.6527,1.6318,1.6234,1.6418,1.659,1.6438,1.6218,-0.0253,0.0,0.0,0.0,0.0,1.3217,1.4997,1.498,1.4764,1.4293,1.3786,1.4531,0.0,0.0,0.0,0.0,0.0,0.0,1.2666,1.3068,1.3598,1.405,1.4462,1.4844,1.524,1.5698,1.6021,1.6146,1.6091,1.5901,1.559,1.5099,0.0,0.0,0.0,0.0,1.3542,1.383,1.3944,1.4156,1.4548,1.4878,1.5139,1.5323,1.2635,1.2477,1.5162,1.2313,1.2298,1.5699,1.4949,0.0,0.0,0.0,0.0,0.0,0.0,0.0,0.0,0.0,0.0,0.0,0.0,0.0,0.0,0.0,0.0,0.0,0.0,0.0,1.3601,1.4984,1.5279,0.0,0.0,0.0,0.0,0.0,0.0,0.0,0.0,0.0,1.6407,1.6976,1.7488,0.0,0.0,1.8304,1.8095,1.804,1.7997,1.7927,1.7811,0.0,0.0,1.7738,1.7642,1.749,1.7757,1.7984,1.8048,1.8094,1.8121,1.8142,1.7983,1.7761,1.7422,1.6603,1.6192,1.6559,1.6551,1.6696,1.7376,1.7351,1.7199,0.6154,0.7299,0.9225,1.0156,1.0667,1.3969,1.541,1.5404,1.542,1.5085,1.4671,1.5508,1.5044,1.3655,1.3594,0.0,0.0,0.0,1.3485,1.3857,1.4249,1.4788,1.5405,1.5536,1.5729,1.6023,1.6716,1.6686,1.6015,1.6824,1.6567,1.5356,0.0,0.0,1.4391,1.3869,1.3671,1.3829,1.4077,1.4367,1.468,1.4993,1.523,1.5348,1.3749,1.3653,1.5191,1.3702,1.4059,1.6753,1.6086,1.5797,0.0,0.0,0.0,0.0,0.0,0.0,0.0,0.0,0.0,0.0,0.0,1.2502,1.3023,0.0,0.0,0.0,1.478,1.4407,1.447,1.522,0.0,0.0,0.0,0.0,0.0,0.0,0.0,1.5887,1.6886,1.7557,1.7431,1.7452,1.7577,1.7915,1.8246,1.8406,1.826,0.0,1.8184,1.8138,1.8035,1.7975,1.8069,1.8086,1.8082,1.8107,1.8211,1.8313,1.8467,1.8487,1.851,1.8623,1.8448,1.8201,1.8057,1.7177,1.658,1.7076,1.7009,1.7132,1.7788,1.7805,1.7726,1.1635,1.0749,1.0643,1.0676,1.1062,1.4093,1.5446,1.5496,1.5506,1.5557,1.5652,1.6386,1.6211,1.5306,1.4434,0.0,1.4169,1.456,1.4817,1.4883,1.5574,1.6263,1.6975,1.704,1.6938,1.6721,1.8265,1.7776,1.5613,1.7202,1.7285,1.5833,1.5862,1.5152,1.3783,1.4249,1.4203,1.3519,1.4315,1.4772,1.4844,1.5202,1.542,1.541,1.5408,1.5352,1.5323,1.5353,1.6155,1.7664,1.6982,1.7234,1.862,0.0,0.0,0.0,0.0,0.0,0.0,0.0,0.0,0.0,0.0,0.0,0.0,0.0,0.0,0.0,1.5943,0.0,1.5672,1.475,0.0,0.0,0.0,1.5276,1.6116,1.6976,1.7489,1.7436,0.0,0.0,1.8628,1.8128,1.8036,1.8893,1.8984,1.8878,1.8617,1.8563,1.8489,1.8249,1.8128,1.8086,1.817,1.8348,1.8485,1.8545,1.8659,1.8715,1.8824,1.8676,1.8639,1.8843,1.8448,1.8074,1.8322,1.7963,1.7749,1.7585,1.7579,1.7641,1.7833,1.79,1.7961,0.9579,0.7444,1.2055,1.4,1.4073,1.4984,1.5691,1.6168,1.6305,1.6736,1.7279,1.6829,1.6339,1.5852,1.6052,1.6146,1.6128,1.6224,1.6277,1.6327,1.6492,1.6648,1.6854,1.6982,1.717,1.7455,1.7941,1.8095,1.795,1.8394,1.7905,1.6608,1.6604,1.5912,1.4516,1.4722,1.4707,1.4321,1.4717,1.4988,1.5101,1.5292,1.5407,1.5409,1.5409,1.5382,1.5376,1.5381,1.6161,1.7773,1.767,1.7982,1.8885,1.7359,0.0,0.0,0.0,0.0,0.0,0.0,0.0,0.0,0.0,1.2993,1.3463,0.0,1.3981,0.0,1.6346,1.616,1.4673,1.4981,0.0,0.0,1.5208,1.5742,1.708,1.7486,1.7678,1.7695,1.8232,1.8464,1.8084,1.8391,1.8749,1.9031,1.8878,1.8641,1.8465,1.8542,1.8522,1.8348,1.843,1.8508,1.8485,1.8526,1.8601,1.86,1.8715,1.8843,1.8842,1.8861,1.8807,1.8661,1.8506,1.8246,1.7932,1.79,1.7878,1.7726,1.7687,1.7772,1.8027,1.8005,1.7971,0.8406,0.7837,1.1642,1.3935,1.5042,1.5185,1.5458,1.5832,1.5869,1.6377,1.7186,1.7035,1.6835,1.664,1.6787,1.6885,1.6893,1.7126,1.714,1.6956,1.7211,1.7365,1.7412,1.7431,1.7526,1.768,1.812,1.8303,1.8199,1.8646,1.8301,1.7264,1.7734,1.7247,1.5856,1.5243,1.4898,1.4787,1.5016,1.5173,1.5276,1.537,1.5377,1.535,1.5327,1.531,1.5263,1.526,1.5835,1.7043,1.713,1.7465,1.8125,1.7113,1.6126,0.0,0.0,0.0,0.0,0.0,0.0,0.0,0.0,0.0,0.0,0.0,1.4469,1.5334,1.6107,1.59,1.434,1.5085,1.5713,1.5886,1.6287,1.7007,1.8172,1.8383,1.8413,1.8417,1.8814,1.8921,1.8504,1.8814,1.9086,1.9101,1.8913,1.877,1.8659,1.8713,1.8657,1.8584,1.8641,1.8697,1.8639,1.8696,1.8715,1.8713,1.8806,1.8896,1.8896,1.8843,1.877,1.8606,1.8373,1.8121,1.79,1.7811,1.7811,1.7789,1.7749,1.7816,1.8048,1.8048,1.8091,0.782,0.9326,1.034,1.2206,1.4482,1.4802,1.5038,1.521,1.5095,1.5552,1.6449,1.73,1.7606,1.7443,1.7213,1.7141,1.7243,1.7718,1.7709,1.7349,1.7866,1.817,1.8276,1.8188,1.7948,1.7664,1.8467,1.8395,1.7471,1.8414,1.8519,1.7894,1.8739,1.8522,1.7242,1.5912,1.5245,1.5225,1.5381,1.5494,1.5575,1.5462,1.5369,1.5312,1.523,1.5168,1.5113,1.5093,1.5407,1.6084,1.6176,1.6493,1.7159,1.6325,1.5793,0.0,1.4733,0.0,0.0,0.0,0.0,0.0,0.0,0.0,0.0,1.4755,1.496,1.5135,1.5478,1.5336,1.4551,1.5171,1.6,1.689,1.765,1.8419,1.9107,1.9261,1.9277,1.9235,1.9251,1.9266,1.9182,1.9184,1.917,1.912,1.9019,1.8967,1.9002,1.8861,1.877,1.8861,1.877,1.8697,1.8715,1.8788,1.8843,1.8824,1.8896,1.8932,1.8984,1.8807,1.8678,1.8643,1.8275,1.7966,1.8009,1.7833,1.7726,1.7839,1.7839,1.7878,1.7983,1.8108,1.8172,0.7927,0.7038,0.9492,1.0996,1.1838,1.3762,1.5084,1.5837,1.5932,1.6286,1.6913,1.8493,1.8646,1.7789,1.8486,1.8672,1.8394,1.8591,1.8609,1.8481,1.8641,1.873,1.8747,1.8748,1.8373,1.7751,1.8449,1.8378,1.7577,1.8414,1.8516,1.799,1.8318,1.8106,1.7403,0.0,0.0,0.0,1.6356,1.6386,1.6426,1.576,1.5362,1.5299,1.5241,0.0,1.5099,1.5056,1.5408,1.6202,1.6178,0.0,0.0,0.0,0.0,0.0,0.0,0.0,0.0,0.0,0.0,0.0,1.4244,1.4199,1.4252,1.4329,1.4356,1.4401,1.4469,1.4769,1.538,1.5625,1.6349,1.7753,1.8066,1.8474,1.9182,1.9295,1.928,1.9292,1.9248,1.9235,1.9269,1.9186,1.9137,1.9153,1.8966,1.8914,1.9053,1.8896,1.8752,1.8715,1.8678,1.8659,1.8752,1.8806,1.8843,1.8878,1.8984,1.902,1.8932,1.8932,1.8825,1.8661,1.8487,1.8287,1.8184,1.8134,1.8031,1.8044,1.8035,1.8027,1.8005,1.8108,1.8194,0.889,0.0,1.166,1.2745,0.0,1.4463,1.5373,1.577,1.5413,1.5839,1.689,1.8489,1.8974,1.8614,1.8977,1.9024,1.8843,1.8948,1.8948,1.8896,1.8861,1.8913,1.9051,1.8966,1.8681,1.8304,1.8164,1.8164,1.827,1.8753,1.8836,1.8557,1.8748,1.8715,1.8504,1.8696,1.8489,1.7894,1.7462,1.748,1.7928,1.7126,1.6449,1.5968,0.0,0.0,0.0,0.0,0.0,0.0,0.0,0.0,0.0,0.0,0.0,1.5076,1.4599,1.4507,1.4965,1.466,1.4563,1.4921,1.5001,1.4994,1.4841,1.4868,1.4907,1.4956,1.536,1.5668,1.5801,1.6601,1.7448,1.8202,1.8652,1.9045,1.9372,1.9387,1.9357,1.936,1.9248,1.92,1.9182,1.9135,1.9104,1.9104,1.9019,1.8949,1.8967,1.8825,1.8697,1.8659,1.8696,1.8715,1.877,1.8825,1.8878,1.8967,1.9019,1.9019,1.8949,1.8896,1.8789,1.8604,1.8469,1.8348,1.8184,1.8142,1.8125,1.81,1.8074,1.807,1.8087,1.813,1.8194,0.9148,1.1639,1.3219,1.3948,1.4101,1.5046,1.5503,1.5512,0.0,0.0,0.0,1.8139,1.8959,1.9182,1.9038,1.8943,1.8914,1.8983,1.8982,1.893,1.8807,1.8896,1.9102,1.8966,1.8824,1.8644,1.7986,1.8022,1.8681,1.9035,1.9175,1.9102,1.9329,1.9493,1.9652,1.9675,1.9554,1.9264,1.85,1.8464,1.9223,1.8278,1.7382,1.6605,1.7217,1.6783,1.5185,1.5866,1.5838,1.4885,1.4748,1.4631,1.4448,1.4259,1.4239,1.4356,1.4375,1.4703,1.547,1.4871,1.4774,1.5472,1.5563,1.5631,1.5724,1.58,1.5853,1.5892,1.6639,1.6873,1.6395,1.7589,1.8535,1.8577,1.9191,1.9574,1.9541,1.946,1.935,1.9341,1.9266,1.9168,1.9115,1.9086,1.9053,1.9019,1.8984,1.8967,1.8878,1.8752,1.8678,1.8622,1.8696,1.8788,1.8806,1.8878,1.8948,1.9035,1.9036,1.9019,1.8966,1.8843,1.8697,1.8605,1.8413,1.829,1.8243,1.8163,1.8125,1.8138,1.8048,1.8022,1.813,1.8108,1.8117,0.6198,0.939,0.9766,1.0211,1.0876,1.3476,1.4873,1.5428,1.654,1.6624,1.6062,1.7968,1.8663,1.8475,1.8699,1.8705,1.8505,1.8635,1.8673,0.0,1.8696,1.8716,1.8753,1.8861,1.8537,1.7946,1.8412,1.8393,1.8016,1.8779,1.9153,1.915,1.942,1.9679,1.9781,1.9201,1.9269,1.9988,1.9259,1.8974,1.9175,1.7632,1.6726,1.6534,1.6595,1.6143,1.5171,1.5871,1.5887,1.5006,1.4803,1.4661,1.4587,1.4485,1.4417,1.4325,1.4469,1.4574,1.4598,1.4699,1.4771,1.482,1.4799,1.5305,1.6565,1.6711,1.6716,1.6753,1.6933,1.7318,1.7938,1.8261,1.8707,1.9198,1.9439,1.9475,1.936,1.9341,1.9292,1.9232,1.9219,1.9168,1.9082,1.8999,1.8948,1.8949,1.8843,1.8696,1.8694,1.8677,1.8677,1.8619,1.8658,1.8733,1.8824,1.8914,1.8984,1.9019,1.9053,1.9018,1.8931,1.8861,1.8788,1.8824,1.8565,1.8448,1.86,1.8304,1.818,1.8243,1.8074,1.79,1.8022,1.8005,1.8014,0.7927,1.0014,1.1283,1.2152,1.2825,1.4842,1.5638,1.5728,1.7163,1.7368,1.6757,1.7864,1.8471,1.8625,1.8679,1.8644,1.855,1.8697,1.8714,1.8619,1.8677,1.8734,1.8807,1.8913,1.8769,1.8445,1.8853,1.8835,1.8497,1.895,1.9227,1.9277,1.9596,1.9788,1.9824,1.9599,1.9687,2.0161,1.945,1.9324,1.9875,1.871,1.7831,1.7333,1.7288,1.659,1.5274,1.6008,1.6055,1.5145,1.495,1.483,1.4757,1.4595,1.4462,1.4416,1.4595,1.4616,1.4398,1.4574,1.4892,1.5309,1.5741,1.6417,1.7567,1.7227,1.6948,1.695,1.7725,1.8264,1.8264,1.8656,1.9064,1.9361,1.9427,1.9398,1.9295,1.923,1.918,1.9184,1.9104,1.9036,1.8983,1.8914,1.8825,1.8825,1.8698,1.8659,1.8694,1.8658,1.8641,1.8601,1.8622,1.8715,1.8861,1.8913,1.8984,1.9036,1.9018,1.8984,1.8896,1.8861,1.8861,1.8878,1.8677,1.8584,1.8677,1.8368,1.8222,1.8215,1.8031,1.79,1.8044,1.8087,1.8091,0.9602,1.095,1.2664,1.3907,1.4828,1.613,1.649,1.6282,1.749,1.779,1.7535,1.7872,1.8307,1.8698,1.8569,1.8532,1.8643,1.8753,1.8716,1.8622,1.8678,1.877,1.8878,1.8983,1.9035,1.9052,1.915,1.9166,1.9102,1.9222,1.9361,1.9489,1.9744,1.9866,1.9847,1.9831,1.9943,2.0145,1.9464,1.9535,2.0385,1.9336,1.847,1.8067,1.7975,1.7115,1.5485,1.631,1.6345,1.5293,1.5066,1.495,1.4876,1.4688,1.4545,1.453,1.4678,1.4698,1.4512,1.453,1.4884,1.5602,1.6376,1.7158,1.7855,1.7575,1.7338,1.756,1.8599,1.9055,1.8577,1.8915,1.9301,1.9193,1.9225,1.9212,1.9168,1.9084,1.9033,1.9069,1.8985,1.8861,1.8843,1.8806,1.8751,1.8696,1.8677,1.8696,1.8733,1.8659,1.8622,1.8641,1.8641,1.8697,1.8896,1.8895,1.8948,1.9036,1.8966,1.8914,1.8878,1.8861,1.8861,1.8843,1.8715,1.8603,1.8563,1.8328,1.818,1.8151,1.7939,1.7811,1.7966,1.8048,1.8108,0.8536,1.0521,1.1206,1.2448,1.445,1.5862,1.6734,1.7163,1.7595,1.7822,1.7945,1.8095,1.8211,1.8256,1.8201,1.8266,1.8428,1.8428,1.8506,1.8622,1.8733,1.8806,1.8843,1.907,1.9134,1.9115,1.9219,1.9286,1.9285,1.9453,1.9583,1.9673,1.9755,1.9836,1.9828,1.9335,1.9435,2.0162,1.9458,1.9512,2.0204,1.8124,1.7273,1.7986,1.7939,1.7066,1.5463,1.6852,1.6913,1.5383,1.5059,1.4933,1.4812,1.4766,1.4688,1.4533,1.4627,1.4709,1.4738,1.4603,1.4633,1.4903,1.5662,1.6434,1.7213,1.7779,1.837,1.8882,1.9161,1.917,1.9057,1.9125,1.9079,1.8824,1.8842,1.8843,1.8807,1.8752,1.8752,1.8824,1.886,1.8806,1.8752,1.8696,1.8622,1.8601,1.8637,1.8638,1.8641,1.8641,1.8658,1.8751,1.8769,1.8752,1.877,1.8843,1.8896,1.8914,1.8896,1.8861,1.8842,1.877,1.8734,1.8752,1.8545,1.8428,1.8428,1.8266,1.7966,1.7966,1.7833,1.7658,1.7732,1.7794,1.7878,0.9062,1.0476,1.1621,1.3554,1.5792,1.6708,1.7282,1.7711,1.7708,1.7794,1.7944,1.807,1.8176,1.8243,1.8138,1.8239,1.852,1.852,1.8581,1.8659,1.8733,1.8825,1.8983,1.9084,1.9182,1.9209,1.935,1.9383,1.9338,1.9508,1.9686,1.9823,1.9922,1.9973,1.9934,1.9794,1.9903,2.0155,1.9473,1.9312,1.9522,1.875,1.8381,1.8617,1.8181,1.7329,1.6222,1.6656,1.6388,1.5214,1.5023,1.4944,1.4804,1.4813,1.4747,1.4627,1.4592,1.4656,1.4785,1.4581,1.4659,1.5175,1.6036,1.6841,1.7457,1.8342,1.895,1.9077,1.9117,1.9101,1.9034,1.893,1.8771,1.868,1.8698,1.8698,1.8584,1.8678,1.8788,1.886,1.8878,1.8825,1.8752,1.8639,1.8545,1.8582,1.86,1.8617,1.8641,1.8659,1.8677,1.8676,1.8714,1.877,1.8789,1.8771,1.8807,1.8861,1.8843,1.8788,1.8788,1.8715,1.8659,1.8659,1.8428,1.8249,1.829,1.8061,1.7777,1.7794,1.7726,1.7572,1.7526,1.7641,1.7749,0.9684,1.05,1.2448,1.4597,1.6605,1.7037,1.7524,1.7975,1.7618,1.7591,1.7905,1.8031,1.8159,1.8307,1.8184,1.8304,1.854,1.8581,1.8657,1.8752,1.877,1.8896,1.9099,1.9182,1.9243,1.9353,1.9493,1.9522,1.9456,1.956,1.9707,1.9899,2.0031,2.0096,2.0078,2.0227,2.0272,2.0188,1.968,1.9391,1.9243,1.9256,1.9034,1.8523,1.8107,1.7341,1.6206,1.6522,1.6168,1.5084,1.4976,1.4919,1.4813,1.4832,1.4794,1.4699,1.4585,1.4592,1.4766,1.4581,1.4787,1.557,1.6439,1.7197,1.7848,1.8663,1.9049,1.8949,1.8896,1.8825,1.8807,1.8678,1.8565,1.8526,1.8528,1.8526,1.8485,1.8582,1.8658,1.8788,1.8789,1.8789,1.8733,1.8601,1.8524,1.8582,1.86,1.8637,1.8678,1.8678,1.8641,1.8619,1.8658,1.8715,1.8789,1.8734,1.8734,1.8788,1.877,1.8734,1.8752,1.8641,1.8601,1.8563,1.8307,1.8142,1.8061,1.7844,1.7641,1.7658,1.7589,1.7519,1.7496,1.7566,1.7572,1.0027,1.0729,1.3273,1.5025,1.5882,1.6326,1.7134,1.8025,1.7177,1.7194,1.7871,1.7983,1.8155,1.8385,1.8328,1.8351,1.8505,1.8584,1.8715,1.8878,1.8949,1.9017,1.9097,1.9295,1.9416,1.9485,1.962,1.9705,1.9757,1.9725,1.9763,1.9903,2.0039,2.0137,2.0195,2.0268,2.0296,2.0212,2.0171,1.9897,1.9237,1.9124,1.8322,1.7085,1.7452,1.7045,1.5753,1.6754,1.6724,1.506,1.4944,1.4876,1.4813,1.485,1.4832,1.4718,1.4627,1.4616,1.4687,1.4659,1.4984,1.5813,1.6523,1.7176,1.7959,1.8551,1.8843,1.8806,1.8619,1.8465,1.8465,1.8485,1.8426,1.8339,1.8263,1.827,1.8385,1.831,1.8365,1.8559,1.862,1.8641,1.8604,1.8545,1.8542,1.8561,1.8579,1.86,1.8659,1.8642,1.8623,1.8641,1.8641,1.8604,1.8604,1.8623,1.8659,1.8696,1.8696,1.8697,1.8659,1.8603,1.8544,1.8406,1.8121,1.7905,1.7833,1.7721,1.7606,1.7519,1.7448,1.7377,1.7394,1.7401,1.7361,1.2075,1.343,1.4929,1.5802,1.616,1.6631,1.7079,1.7363,1.6922,1.716,1.7842,1.8074,1.8184,1.8287,1.8487,1.8639,1.8733,1.8751,1.8788,1.8914,1.9019,1.9137,1.9232,1.9357,1.9475,1.9574,1.966,1.9744,1.9788,1.9804,1.9912,2.0068,2.0137,2.0231,2.032,2.0308,2.0057,1.9588,1.9549,1.9018,1.7977,1.7657,1.7268,1.6922,1.7461,1.7483,1.6828,1.6804,1.6181,1.4993,1.493,1.4877,1.4794,1.4804,1.4785,1.4705,1.4643,1.4611,1.4659,1.4934,1.5441,1.6228,1.7016,1.7668,1.8287,1.8682,1.8824,1.8657,1.8522,1.8385,1.8322,1.8319,1.8277,1.8236,1.8194,1.8138,1.8138,1.8205,1.8348,1.8406,1.8467,1.8506,1.8485,1.8445,1.8463,1.8522,1.8559,1.86,1.8603,1.8601,1.86,1.8619,1.8544,1.8505,1.86,1.86,1.86,1.86,1.8619,1.8619,1.8581,1.8385,1.8263,1.818,1.7883,1.7681,1.7606,1.7512,1.7434,1.7321,1.7248,1.7232,1.7265,1.7134,1.7018,1.361,1.5177,1.6089,1.642,1.6466,1.6949,1.7084,1.6981,1.6819,1.7207,1.7933,1.8205,1.8307,1.8428,1.8677,1.8825,1.8914,1.8878,1.8878,1.8948,1.9069,1.9202,1.9295,1.9416,1.9513,1.9628,1.9699,1.9788,1.9858,1.9909,2.006,2.0246,2.0275,2.0308,2.041,2.0377,2.0069,1.9632,1.9558,1.8867,1.7543,1.7144,1.7088,1.7181,1.7087,1.708,1.7252,1.6636,1.5872,1.5087,1.4913,1.4859,1.4765,1.4736,1.4695,1.4629,1.4571,1.4549,1.4584,1.5109,1.5781,1.6486,1.7211,1.7914,1.8498,1.8657,1.8617,1.8483,1.8383,1.8281,1.8236,1.8172,1.813,1.819,1.8151,1.8095,1.8035,1.8205,1.8307,1.831,1.8388,1.8426,1.8385,1.8365,1.8385,1.8408,1.8465,1.8505,1.8506,1.8505,1.8502,1.8502,1.8483,1.8463,1.85,1.8502,1.8542,1.8524,1.8483,1.8483,1.8403,1.8197,1.7988,1.7878,1.7721,1.7512,1.737,1.7314,1.7216,1.7117,1.7075,1.7043,1.6959,1.6795,1.6686,1.4372,1.5655,1.6522,1.6738,1.6665,1.7082,1.7176,1.6981,1.686,1.7391,1.8235,1.8385,1.8524,1.8751,1.8824,1.8932,1.8966,1.8931,1.8931,1.9001,1.9135,1.9232,1.9289,1.9489,1.962,1.9712,1.9782,1.987,1.9973,1.9993,2.0131,2.0341,2.0369,2.0418,2.0507,2.0461,2.0448,2.0266,2.0207,1.9509,1.8137,1.7819,1.7853,1.7732,1.6397,1.5882,1.649,1.6342,1.5795,1.5112,1.4921,1.485,1.4717,1.4664,1.4567,1.4462,1.4467,1.4439,1.4477,1.52,1.5982,1.6661,1.7167,1.7861,1.8425,1.8385,1.826,1.8246,1.818,1.8113,1.8113,1.7988,1.7988,1.8168,1.813,1.8155,1.8205,1.8191,1.8208,1.827,1.8307,1.831,1.8328,1.8287,1.8266,1.8307,1.8348,1.8348,1.8388,1.8385,1.8348,1.8385,1.8403,1.8363,1.84,1.84,1.8443,1.8465,1.8385,1.8325,1.8201,1.7992,1.7794,1.7658,1.7441,1.7248,1.7134,1.7075,1.7025,1.6933,1.6892,1.6773,1.6633,1.6474,1.634,1.5156,1.6153,1.6589,1.6731,1.674,1.712,1.7195,1.7021,1.7099,1.7631,1.836,1.8565,1.8677,1.8788,1.8861,1.8966,1.907,1.9053,1.9035,1.9104,1.9198,1.9277,1.9335,1.9555,1.9751,1.9825,1.9861,1.9907,2.0003,2.0095,2.0253,2.0353,2.0383,2.0438,2.0502,2.0443,2.0204,1.9653,1.959,1.9183,1.8449,1.8032,1.8368,1.9209,1.7348,1.6478,1.7175,1.6086,1.5277,1.4955,1.4904,1.4832,1.4705,1.4624,1.453,1.4428,1.4416,1.466,1.5108,1.5817,1.6565,1.7265,1.7826,1.823,1.8531,1.8363,1.8218,1.8246,1.818,1.8113,1.807,1.7922,1.79,1.7988,1.7922,1.7905,1.7992,1.8053,1.8095,1.8138,1.8159,1.818,1.8201,1.818,1.8243,1.8281,1.8304,1.829,1.8307,1.8263,1.8243,1.8266,1.8246,1.8243,1.8243,1.8239,1.8222,1.8205,1.8142,1.81,1.7971,1.78,1.7595,1.7384,1.7183,1.7025,1.6908,1.6857,1.6805,1.6659,1.6554,1.6448,1.6313,1.6176,1.6009,1.5565,1.6555,1.6753,1.6829,1.6874,1.7439,1.7458,1.7147,1.7528,1.8027,1.8492,1.8698,1.8825,1.8878,1.8966,1.9052,1.9104,1.9104,1.9104,1.9153,1.928,1.9338,1.938,1.9682,1.9851,1.9918,1.9981,2.0031,2.0075,2.0219,2.0328,2.0439,2.0444,2.0458,2.0523,2.0464,2.0133,1.9745,1.9715,1.9275,1.8578,1.8319,1.8501,1.8658,1.7305,1.6798,1.7097,1.5758,1.4976,1.4947,1.4886,1.4803,1.4672,1.46,1.4504,1.4399,1.4405,1.4645,1.535,1.6091,1.687,1.7523,1.8142,1.8452,1.845,1.8284,1.8222,1.8205,1.8159,1.8113,1.8009,1.7856,1.7789,1.7883,1.7816,1.7772,1.7878,1.8009,1.8091,1.8095,1.8095,1.8095,1.8113,1.8113,1.8194,1.8215,1.818,1.8166,1.8184,1.8138,1.8138,1.8121,1.8159,1.8138,1.81,1.8057,1.8009,1.7927,1.7844,1.78,1.7732,1.7526,1.7313,1.7142,1.6933,1.6805,1.6701,1.6649,1.6581,1.6421,1.6265,1.6093,1.5981,1.5782,1.5653,1.5685,1.6767,1.6969,1.7021,1.713,1.8004,1.7971,1.7431,1.8036,1.8454,1.8659,1.8807,1.8913,1.9001,1.9119,1.9153,1.912,1.9137,1.9152,1.9232,1.9357,1.9446,1.9509,1.9821,1.9972,2.0031,2.0122,2.0188,2.0222,2.0328,2.0425,2.0483,2.0499,2.0529,2.0561,2.0515,2.0469,2.0391,2.0428,1.9639,1.8343,1.8813,1.8581,1.7247,1.6939,1.6732,1.6567,1.5613,1.4987,1.4974,1.486,1.4726,1.4611,1.4533,1.4429,1.4342,1.4348,1.4815,1.54,1.6312,1.7035,1.7631,1.8118,1.8385,1.8348,1.8266,1.8142,1.8117,1.813,1.8087,1.79,1.7726,1.7704,1.7816,1.7816,1.7856,1.7961,1.8121,1.8121,1.8048,1.8095,1.8142,1.8005,1.8005,1.8048,1.807,1.8009,1.8014,1.8031,1.8009,1.7988,1.7988,1.7992,1.7949,1.7927,1.7822,1.7749,1.7572,1.7462,1.7392,1.7368,1.7175,1.7027,1.6866,1.6686,1.657,1.6463,1.6409,1.637,1.6255,1.6065,1.5844,1.5758,1.5725,1.5531,1.5413,1.6697,1.6724,1.7126,1.7769,1.822,1.8246,1.8106,1.8439,1.8696,1.8807,1.886,1.8983,1.9087,1.9152,1.9219,1.9235,1.9298,1.9326,1.9383,1.9532,1.9641,1.972,1.9909,2.0041,2.0087,2.0164,2.026,2.0338,2.0371,2.0456,2.0497,2.0506,2.0499,2.0513,2.0508,2.0506,2.0501,2.0513,2.0288,1.9826,1.9799,1.978,1.936,1.8551,1.7872,1.7221,1.5755,1.4923,1.486,1.4774,1.4664,1.453,1.4462,1.4435,1.4507,1.4943,1.556,1.6287,1.7019,1.773,1.8324,1.8366,1.8403,1.8368,1.8222,1.8117,1.8074,1.8031,1.7944,1.7772,1.7681,1.7658,1.7681,1.7772,1.7816,1.7772,1.7883,1.7949,1.7878,1.79,1.7905,1.7905,1.7939,1.7961,1.7966,1.7944,1.7883,1.79,1.7856,1.7772,1.7794,1.7794,1.7749,1.7704,1.7595,1.7455,1.7224,1.7052,1.6876,1.685,1.6763,1.6659,1.6554,1.6436,1.6316,1.6222,1.6139,1.6111,1.6203,1.5964,1.5814,1.6042,1.6099,1.5768,1.5644,1.6892,1.6775,1.7287,1.8149,1.8287,1.8368,1.8465,1.8603,1.8734,1.8896,1.8966,1.9051,1.9204,1.9264,1.9311,1.9363,1.9402,1.9442,1.9523,1.9743,1.9877,1.9952,2.0096,2.0172,2.0167,2.0262,2.0328,2.0357,2.0419,2.0472,2.0506,2.0506,2.0499,2.0508,2.05,2.0508,2.051,2.0483,2.0313,1.9914,2.016,1.9733,1.9439,1.8858,1.8376,1.7049,1.5958,1.5226,1.4859,1.4705,1.4614,1.4433,1.4409,1.4532,1.479,1.5311,1.5982,1.6944,1.7561,1.8037,1.8536,1.8542,1.8385,1.8304,1.8201,1.818,1.7966,1.7992,1.7927,1.7794,1.7726,1.7704,1.7721,1.7772,1.7777,1.7641,1.78,1.7839,1.7833,1.7833,1.7816,1.78,1.7794,1.7811,1.7833,1.7749,1.7749,1.7749,1.7641,1.7595,1.7635,1.7595,1.7549,1.7479,1.7408,1.7101,1.6876,1.6664,1.6433,1.6421,1.6398,1.6429,1.6347,1.6182,1.6118,1.6156,1.6204,1.6288,1.6276,1.6004,1.5998,1.629,1.6319,1.5972,1.629,1.7296,1.7122,1.7544,1.8255,1.8385,1.8445,1.8524,1.8603,1.8734,1.8931,1.9049,1.9182,1.9314,1.9405,1.9431,1.9435,1.9485,1.9577,1.9719,1.9935,2.0109,2.0114,2.0269,2.0283,2.0234,2.04,2.041,2.0394,2.0461,2.0503,2.0506,2.051,2.0506,2.0506,2.0508,2.0515,2.0494,2.0488,2.0167,1.9747,1.9992,1.9711,1.8789,1.8739,1.822,1.7093,1.63,1.5807,1.4783,1.4714,1.4552,1.4368,1.438,1.4726,1.5284,1.5646,1.6309,1.7441,1.7818,1.8056,1.8514,1.8542,1.8365,1.8218,1.8222,1.8184,1.7961,1.8078,1.8061,1.7888,1.7866,1.7856,1.7833,1.7833,1.7772,1.771,1.7794,1.7856,1.7789,1.7794,1.7755,1.7687,1.7618,1.7589,1.7721,1.7635,1.7566,1.7542,1.7472,1.7472,1.7536,1.7472,1.7384,1.7288,1.7175,1.6809,1.6474,1.6281,1.6097,1.6083,1.6095,1.6215,1.6192,1.6245,1.6383,1.6509,1.6571,1.6564,1.6536,1.6346,1.6445,1.6573,1.6418,1.6159,1.7429,1.8056,1.8017,1.8151,1.8368,1.8403,1.8467,1.8601,1.8715,1.8861,1.9051,1.92,1.9311,1.9398,1.9545,1.962,1.9574,1.963,1.9738,1.9925,2.0142,2.025,2.0283,2.0399,2.0369,2.0353,2.0394,2.0444,2.0497,2.0519,2.0509,2.05,2.0508,2.0501,2.0507,2.0507,2.048,2.0432,2.0409,2.0302,2.0083,2.0137,2.0054,1.9462,1.9095,1.865,1.8154,1.7439,1.6541,1.5625,1.497,1.4641,1.4453,1.4447,1.4848,1.5555,1.6182,1.6859,1.7702,1.8302,1.8592,1.855,1.8485,1.838,1.8232,1.8243,1.8225,1.8138,1.826,1.8225,1.8023,1.7932,1.7883,1.7878,1.7811,1.7681,1.7542,1.7589,1.7635,1.7582,1.7496,1.7439,1.7536,1.7401,1.7425,1.7566,1.7519,1.7401,1.7345,1.7297,1.7297,1.7345,1.7256,1.7142,1.6977,1.6783,1.6389,1.6172,1.598,1.5679,1.5669,1.595,1.607,1.6263,1.6456,1.6579,1.6589,1.6755,1.6739,1.6717,1.6711,1.6791,1.6775,1.6567,1.6348,1.7815,1.8348,1.8426,1.8465,1.8485,1.8526,1.8584,1.8715,1.8825,1.8984,1.915,1.9298,1.9405,1.9489,1.9629,1.9665,1.9688,1.9797,1.9955,2.0161,2.033,2.058,2.0837,2.0662,2.0546,2.0816,2.0986,2.1007,2.0968,2.0681,2.049,2.047,2.0501,2.0527,2.0505,2.05,2.0453,2.0402,2.0381,2.0357,2.032,2.0296,2.0216,2.0097,1.9563,1.9141,1.8583,1.8102,1.7274,1.6386,1.5551,1.4885,1.4581,1.4782,1.5322,1.6018,1.6835,1.7571,1.83,1.8645,1.8753,1.8582,1.8428,1.8287,1.8201,1.8208,1.8246,1.8222,1.8263,1.8287,1.8061,1.7805,1.7755,1.7749,1.7635,1.7472,1.7361,1.7384,1.7425,1.7362,1.7314,1.7314,1.7289,1.7199,1.7224,1.7362,1.7264,1.7183,1.7216,1.7141,1.7092,1.705,1.7,1.6882,1.667,1.6363,1.5938,1.5817,1.5794,1.5384,1.5082,1.555,1.6016,1.6149,1.6207,1.6441,1.6494,1.6697,1.6959,1.7066,1.7128,1.7103,1.7009,1.6756,1.6458,1.7949,1.8365,1.8522,1.86,1.8622,1.8697,1.877,1.8861,1.8966,1.912,1.9251,1.9375,1.9512,1.9611,1.9673,1.9719,1.9797,1.9964,2.0161,2.0336,2.0405,2.0756,2.1107,2.1036,2.104,2.1609,2.1568,2.1549,2.1206,2.0962,2.071,2.0488,2.0527,2.0534,2.0504,2.0483,2.0445,2.036,2.0363,2.0347,2.0311,2.0273,2.0161,1.9992,1.9861,1.9469,1.8962,1.8578,1.8059,1.7198,1.6452,1.5621,1.5075,1.5129,1.5896,1.6529,1.7287,1.8013,1.8538,1.8752,1.8639,1.8483,1.8328,1.8208,1.8086,1.8125,1.8184,1.8163,1.8163,1.8082,1.7966,1.7641,1.7509,1.7502,1.7337,1.7191,1.7142,1.7191,1.7158,1.7191,1.7141,1.7117,1.7133,1.7108,1.7133,1.7108,1.7009,1.6942,1.6975,1.6956,1.6837,1.6743,1.6665,1.6394,1.616,1.5879,1.5463,1.5383,1.5428,1.5179,1.4874,1.5558,1.6048,1.5795,1.5859,1.6214,1.6605,1.6864,1.7116,1.7354,1.7325,1.7096,1.697,1.6905,1.6527,1.8082,1.8176,1.8467,1.8625,1.8717,1.8807,1.8932,1.9053,1.9137,1.9251,1.9393,1.9512,1.9611,1.9673,1.9757,1.9866,1.9964,2.0139,2.0282,2.0419,2.0519,2.0848,2.1143,2.1396,2.1605,2.1682,2.1672,2.1371,2.1107,2.1155,2.0928,2.0585,2.0505,2.0492,2.0453,2.0419,2.0385,2.0334,2.0334,2.0301,2.0289,2.0222,2.0106,1.9901,1.9764,1.9551,1.9449,1.9263,1.8855,1.7947,1.7749,1.71,1.6312,1.5835,1.6052,1.6643,1.739,1.8145,1.8627,1.8582,1.8408,1.8266,1.8163,1.8053,1.7949,1.8031,1.8117,1.8031,1.7883,1.7777,1.7881,1.7446,1.7296,1.7288,1.7167,1.6942,1.6866,1.6815,1.6825,1.6908,1.6882,1.6898,1.6914,1.6889,1.6863,1.6837,1.6753,1.6712,1.6712,1.6623,1.6506,1.6398,1.6316,1.5968,1.5609,1.533,1.5027,1.4921,1.4943,1.5019,1.5031,1.5801,1.6078,1.5554,1.5864,1.6512,1.6811,1.6956,1.7018,1.7102,1.7044,1.696,1.6735,1.6466,1.6207,1.8184,1.8415,1.8657,1.8771,1.8838,1.8948,1.9087,1.9216,1.9277,1.9372,1.9493,1.9587,1.9668,1.9713,1.9847,2.0002,2.0154,2.0282,2.0376,2.0499,2.0923,2.1483,2.162,2.1864,2.2117,2.2185,2.1939,2.1488,2.1169,2.1045,2.0914,2.0642,2.0511,2.047,2.0414,2.0385,2.036,2.0314,2.026,2.025,2.0241,2.0152,2.0011,1.9798,1.9382,1.9199,1.9374,1.8857,1.8697,1.8479,1.8172,1.7731,1.7271,1.6936,1.674,1.7159,1.7753,1.8216,1.8512,1.8406,1.8246,1.8117,1.7988,1.7922,1.7883,1.7992,1.8035,1.7992,1.7732,1.7509,1.7406,1.7085,1.6926,1.6799,1.6696,1.6581,1.6474,1.6394,1.6448,1.6538,1.6581,1.6607,1.6717,1.6665,1.6612,1.6559,1.6463,1.6448,1.6432,1.6313,1.6136,1.5896,1.5725,1.5463,1.5118,1.4859,1.4578,1.4446,1.4513,1.4576,1.4833,1.5414,1.5363,1.4993,1.5619,1.6527,1.6514,1.6509,1.6671,1.6791,1.665,1.6509,1.6293,1.6064,1.5712,1.8304,1.8686,1.8842,1.8911,1.8968,1.9063,1.9182,1.9323,1.9398,1.9475,1.9597,1.9675,1.972,1.9781,1.9943,2.0134,2.0322,2.0381,2.0441,2.0584,2.1082,2.1911,2.2352,2.2143,2.1818,2.2308,2.1734,2.15,2.1294,2.1141,2.0781,2.0529,2.05,2.0469,2.042,2.0363,2.034,2.0284,2.0238,2.0197,2.0144,2.003,1.9885,1.9744,1.8944,1.8851,1.9243,1.8776,1.8663,1.8707,1.8476,1.8048,1.8016,1.793,1.7843,1.7879,1.834,1.8475,1.8388,1.8184,1.7997,1.7883,1.7726,1.7664,1.7579,1.7562,1.7659,1.7788,1.7452,1.715,1.6952,1.6696,1.6528,1.6367,1.6258,1.6163,1.6123,1.6067,1.6024,1.612,1.6215,1.6313,1.6355,1.6285,1.6203,1.6246,1.6191,1.6052,1.6009,1.5924,1.5725,1.533,1.509,1.4859,1.4624,1.4465,1.4163,1.3927,1.4098,1.4274,1.4487,1.4799,1.4703,1.4837,1.5438,1.6181,1.6111,1.6132,1.6286,1.6349,1.6238,1.6051,1.58,1.54,1.5028,1.8415,1.8566,1.8878,1.903,1.9115,1.9204,1.9326,1.9387,1.9456,1.9536,1.9611,1.9738,1.9774,1.9866,2.0058,2.0237,2.0366,2.0445,2.0506,2.0575,2.0915,2.1513,2.1825,2.097,2.1523,2.1998,2.123,2.0698,2.0838,2.125,2.1124,2.0617,2.0445,2.0405,2.0396,2.0334,2.0299,2.0292,2.0235,2.0136,1.999,1.9847,1.9726,1.954,1.9206,1.902,1.9175,1.8845,1.8853,1.8875,1.8841,1.8717,1.8664,1.8554,1.8479,1.8439,1.8452,1.8428,1.8205,1.791,1.771,1.7572,1.7384,1.7175,1.7044,1.6885,1.691,1.7117,1.6747,1.6538,1.6485,1.6313,1.6163,1.6141,1.6102,1.6,1.5915,1.5921,1.5847,1.5624,1.5681,1.5868,1.6011,1.5911,1.5811,1.5854,1.587,1.5726,1.558,1.5477,1.527,1.4876,1.4651,1.4456,1.4419,1.4226,1.4083,1.3685,1.3856,1.4076,1.4309,1.4566,1.4845,1.5081,1.5548,1.5656,1.5548,1.5636,1.5888,1.5856,1.5567,1.54,1.5232,1.4823,1.4305,1.8877,1.8843,1.9035,1.9148,1.9201,1.9286,1.9387,1.9493,1.9546,1.9601,1.9668,1.9763,1.9877,2.0041,2.0195,2.0336,2.0457,2.0531,2.0562,2.0867,2.1357,2.2084,2.2422,2.2135,2.2216,2.1915,2.1276,2.0605,2.0662,2.079,2.0809,2.0581,2.043,2.0369,2.0354,2.0287,2.0227,2.018,2.0098,2.0007,1.9835,1.9695,1.9572,1.9397,1.8837,1.8802,1.8939,1.8547,1.8554,1.8681,1.8807,1.8752,1.8658,1.8526,1.8428,1.8211,1.8103,1.7975,1.7844,1.7469,1.7296,1.7126,1.6926,1.6706,1.6544,1.6374,1.6336,1.6648,1.6378,1.6176,1.605,1.5909,1.5769,1.5727,1.5965,1.5802,1.5742,1.581,1.573,1.5424,1.5179,1.5359,1.5507,1.5477,1.5433,1.5492,1.5433,1.5285,1.5104,1.4921,1.469,1.4374,1.423,1.4126,1.4201,1.4162,1.4328,1.4111,1.4012,1.4225,1.4253,1.447,1.4716,1.4819,1.4979,1.5027,1.4915,1.5085,1.5311,1.513,1.4892,1.4674,1.4398,1.3956,1.3494,1.928,1.9137,1.9202,1.9264,1.9289,1.932,1.9442,1.9606,1.9614,1.9675,1.9769,1.9862,2.0031,2.0229,2.0294,2.0385,2.0531,2.0586,2.0586,2.1062,2.1705,2.231,2.231,2.2375,2.229,2.2744,2.1187,2.0565,2.0471,2.0528,2.0546,2.0459,2.0352,2.0334,2.028,2.0211,2.0134,2.0011,1.9996,1.9861,1.9668,1.9504,1.9372,1.9072,1.8658,1.8404,1.8767,1.8448,1.8378,1.861,1.8622,1.8526,1.8505,1.8345,1.8184,1.7898,1.7614,1.719,1.7044,1.6837,1.67,1.6507,1.6239,1.592,1.6028,1.5879,1.5796,1.5945,1.5879,1.5652,1.558,1.5477,1.5609,1.5677,1.5828,1.563,1.5535,1.573,1.5758,1.5474,1.5173,1.4825,1.4949,1.5011,1.5041,1.5118,1.5013,1.4845,1.4672,1.4479,1.4249,1.4,1.4156,1.4068,1.4014,1.4124,1.4299,1.4428,1.4345,1.4339,1.4346,1.4437,1.4616,1.4642,1.4519,1.4323,1.419,1.4433,1.4674,1.434,1.405,1.3826,1.3505,1.3112,1.288,1.9387,1.9202,1.9266,1.9295,1.9323,1.9435,1.9546,1.9694,1.9699,1.9794,1.9947,2.0041,2.0192,2.0336,2.0395,2.046,2.0584,2.0605,2.0636,2.06,2.0675,2.1448,2.1696,2.1647,2.1285,2.1737,2.0957,2.0529,2.0406,2.0395,2.0404,2.0408,2.0295,2.0277,2.0222,2.0144,2.001,1.9892,1.9856,1.9718,1.9475,1.9256,1.9097,1.9082,1.8894,1.8843,1.8966,1.8664,1.8519,1.8696,1.8333,1.8135,1.8073,1.7776,1.7535,1.7269,1.6664,1.6218,1.5991,1.5912,1.5874,1.5664,1.533,1.5002,1.5168,1.4864,1.4831,1.5047,1.5061,1.5086,1.5072,1.5176,1.543,1.5791,1.5952,1.6064,1.5969,1.5893,1.5831,1.5524,1.5263,1.5073,1.4814,1.4948,1.4707,1.4714,1.4533,1.4374,1.4216,1.4027,1.3866,1.3758,1.4085,1.4072,1.3915,1.4083,1.4417,1.4528,1.4505,1.4441,1.4405,1.4516,1.4462,1.4198,1.4032,1.3711,1.3447,1.3637,1.3684,1.3447,1.3208,1.3025,1.289,1.2647,1.2559,1.9431,1.9329,1.9387,1.9402,1.939,1.9512,1.9606,1.9694,1.9745,1.9847,2.0001,2.0105,2.0241,2.033,2.0441,2.0513,2.0599,2.0553,2.0795,2.1146,2.1351,2.1731,2.192,2.1682,2.1484,2.1477,2.0914,2.0489,2.0413,2.0332,2.0276,2.026,2.0215,2.0222,2.0182,2.0039,1.9862,1.9732,1.9609,1.946,1.9355,1.9067,1.8895,1.8896,1.877,1.875,1.8806,1.8676,1.8563,1.8293,1.7829,1.7535,1.7279,1.6807,1.6463,1.6213,1.5542,1.5155,1.4843,1.4795,1.476,1.4558,1.4288,1.4173,1.4288,1.4057,1.4025,1.4154,1.4278,1.44,1.4721,1.4982,1.5283,1.582,1.6165,1.633,1.6385,1.628,1.6129,1.5888,1.5735,1.5583,1.5283,1.5032,1.4641,1.4322,1.4105,1.3894,1.3812,1.3796,1.369,1.3763,1.4101,1.4356,1.4256,1.4409,1.4607,1.4631,1.4658,1.4516,1.4384,1.4202,1.41,1.3826,1.3505,1.317,1.2977,1.288,1.2783,1.2735,1.255,1.2255,1.2166,1.2175,1.2271,1.9489,1.9431,1.9504,1.9489,1.945,1.9555,1.9665,1.9757,1.9806,1.9918,2.0079,2.02,2.0308,2.0376,2.0476,2.0522,2.0553,2.0586,2.0883,2.1076,2.1284,2.1721,2.1865,2.1711,2.1163,2.121,2.0896,2.0461,2.0374,2.0244,2.02,2.0192,2.0169,2.0153,2.0079,1.9907,1.972,1.9513,1.9438,1.9227,1.9176,1.8966,1.8877,1.8861,1.8715,1.8454,1.834,1.8066,1.7735,1.7355,1.6922,1.6492,1.6113,1.5692,1.5169,1.4786,1.4435,1.4115,1.3821,1.3697,1.3683,1.3483,1.3496,1.3429,1.3475,1.3441,1.3441,1.3467,1.3638,1.3956,1.442,1.4783,1.5381,1.6002,1.6284,1.6496,1.6642,1.659,1.6453,1.6278,1.6042,1.5651,1.5472,1.5095,1.4502,1.407,1.3695,1.3608,1.3657,1.3689,1.3742,1.3923,1.4259,1.4497,1.4701,1.472,1.4711,1.4716,1.4699,1.4484,1.4321,1.4025,1.3695,1.3351,1.3016,1.2647,1.2461,1.2304,1.2264,1.2224,1.2026,1.1819,1.1868,1.1945,1.2113,1.9541,1.9499,1.9574,1.9555,1.9518,1.9583,1.9712,1.987,1.9911,2.0001,2.0188,2.0321,2.042,2.0476,2.0542,2.055,2.0522,2.0522,2.0678,2.0856,2.0817,2.0721,2.0765,2.0819,2.0792,2.0581,2.0463,2.039,2.0301,2.0173,2.0129,2.0144,2.0108,2.0049,1.9981,1.9804,1.9518,1.9204,1.9311,1.917,1.9038,1.8896,1.8825,1.8592,1.8344,1.7948,1.7495,1.7133,1.6735,1.6249,1.5732,1.5326,1.4979,1.4786,1.4359,1.3898,1.3579,1.328,1.2967,1.2926,1.2861,1.272,1.2801,1.2883,1.3057,1.3047,1.2959,1.3069,1.3398,1.3754,1.4163,1.4701,1.5466,1.6036,1.6309,1.6572,1.6704,1.673,1.6533,1.6533,1.5956,1.5464,1.5362,1.5119,1.4408,1.3879,1.3415,1.3341,1.3545,1.3684,1.3843,1.3997,1.4317,1.4526,1.4702,1.4799,1.4824,1.4812,1.4582,1.4212,1.3884,1.3505,1.317,1.2822,1.254,1.2264,1.1977,1.1728,1.1778,1.1828,1.1669,1.1569,1.1619,1.1746,1.1894,1.9597,1.9564,1.9636,1.9662,1.9699,1.9712,1.9813,1.9915,2.0041,2.0148,2.0269,2.042,2.048,2.0526,2.0539,2.0522,2.0522,2.0476,2.0585,2.1222,2.0818,2.0984,2.099,2.0712,2.0476,2.0446,2.0397,2.0315,2.0233,2.0103,2.005,2.0049,1.9945,1.9866,1.9775,1.9609,1.932,1.9044,1.9033,1.9056,1.9093,1.8691,1.8235,1.7812,1.7389,1.6872,1.636,1.5978,1.5591,1.5168,1.4665,1.4173,1.3811,1.3585,1.3057,1.2783,1.2566,1.2507,1.2352,1.2309,1.2401,1.2348,1.2351,1.2471,1.2508,1.2718,1.2749,1.2913,1.3326,1.3705,1.4205,1.4708,1.5332,1.5932,1.6241,1.6519,1.6641,1.6587,1.651,1.6677,1.6419,1.5847,1.5615,1.5314,1.4681,1.4203,1.3798,1.3612,1.3714,1.3924,1.4071,1.4147,1.4346,1.4529,1.4677,1.4584,1.4387,1.4258,1.3931,1.3552,1.3228,1.2987,1.2695,1.237,1.2104,1.1877,1.1728,1.1578,1.1477,1.1418,1.1368,1.1411,1.1565,1.158,1.1604,1.9647,1.9673,1.9732,1.9782,1.9825,1.9813,1.9877,2.0011,2.0148,2.0255,2.0369,2.0456,2.0503,2.0506,2.0516,2.0487,2.0495,2.0837,2.0667,2.139,2.115,2.1056,2.0975,2.0789,2.0452,2.0349,2.0271,2.0192,2.0201,2.0098,1.9933,1.9771,1.972,1.9434,1.9291,1.9091,1.9046,1.8842,1.8789,1.8788,1.8614,1.8214,1.7671,1.7036,1.636,1.5625,1.5178,1.4774,1.4421,1.4042,1.3585,1.301,1.26,1.2283,1.1811,1.17,1.1689,1.1852,1.211,1.2152,1.2357,1.2605,1.2377,1.24,1.2528,1.2835,1.2963,1.3088,1.3358,1.3727,1.4238,1.4716,1.5262,1.5844,1.6107,1.6324,1.6454,1.6386,1.6429,1.6637,1.6612,1.6128,1.5699,1.5435,1.4947,1.4588,1.4204,1.4032,1.3868,1.3996,1.4149,1.4216,1.4272,1.4416,1.4378,1.4247,1.3999,1.3716,1.3354,1.3008,1.2706,1.2461,1.214,1.1944,1.1799,1.1704,1.1578,1.1477,1.1385,1.1285,1.1226,1.1336,1.1481,1.1498,1.1473,1.9801,1.9818,1.98,1.9854,1.9889,1.9854,1.996,2.0203,2.0212,2.0328,2.0472,2.0484,2.0503,2.0513,2.0516,2.0476,2.0497,2.1205,2.1046,2.092,2.1037,2.0917,2.0659,2.0396,2.0318,2.0246,2.0188,2.0164,2.0183,2.0098,1.9805,1.95,1.9448,1.9084,1.8804,1.8409,1.8316,1.8009,1.8141,1.7883,1.7423,1.7249,1.6729,1.6082,1.5269,1.4493,1.3947,1.3494,1.2958,1.2567,1.221,1.1763,1.1505,1.1404,1.1078,1.0957,1.1082,1.1692,1.2285,1.2331,1.2513,1.2851,1.3117,1.3098,1.31,1.3237,1.3354,1.3443,1.3692,1.3946,1.4279,1.4773,1.5285,1.5603,1.5856,1.6032,1.6219,1.6262,1.6262,1.6318,1.6275,1.5948,1.5501,1.5195,1.4961,1.4616,1.4237,1.4061,1.395,1.3982,1.4149,1.4244,1.4286,1.4329,1.415,1.3784,1.3525,1.319,1.2988,1.2681,1.2317,1.2154,1.2082,1.1921,1.1668,1.153,1.1436,1.1335,1.126,1.1217,1.1217,1.1226,1.1379,1.1461,1.1517,1.9813,1.9801,1.983,1.9926,1.9963,1.999,2.0088,2.0205,2.0241,2.034,2.0429,2.0465,2.0499,2.0515,2.0508,2.0463,2.0531,2.0623,2.0612,2.0672,2.0859,2.0623,2.0438,2.0289,2.0246,2.0182,2.0155,2.0108,2.004,1.999,1.9816,1.9612,1.8961,1.861,1.7997,1.7405,1.6835,1.658,1.6825,1.6589,1.592,1.5562,1.5188,1.4559,1.3709,1.3015,1.271,1.2113,1.1696,1.1833,1.1232,1.0812,1.0878,1.086,1.0835,1.1541,1.1733,1.2041,1.2524,1.2807,1.2904,1.3065,1.34,1.3585,1.3594,1.3644,1.379,1.3871,1.3983,1.4194,1.4362,1.4744,1.5074,1.5289,1.5513,1.5736,1.5869,1.5925,1.5969,1.5881,1.5836,1.5656,1.521,1.4956,1.4711,1.4449,1.422,1.406,1.3936,1.3941,1.385,1.3924,1.381,1.3716,1.3508,1.3143,1.292,1.2676,1.2607,1.2479,1.218,1.2052,1.2096,1.1982,1.1835,1.155,1.1326,1.1302,1.1343,1.1314,1.1292,1.1229,1.1195,1.1354,1.1459,1.983,1.988,1.9926,1.9993,2.0087,2.0126,2.0169,2.0246,2.0288,2.0352,2.0439,2.0476,2.0499,2.0506,2.0512,2.0497,2.0482,2.0908,2.0879,2.0508,2.0669,2.0594,2.0446,2.0237,2.0192,2.0145,2.0127,2.0098,1.9861,1.9482,1.9263,1.8374,1.7977,1.7245,1.6354,1.5415,1.4573,1.4515,1.4702,1.496,1.4602,1.397,1.3485,1.3017,1.2165,1.1663,1.1595,1.0999,1.1015,1.1227,1.0656,1.0567,1.0607,1.0587,1.1015,1.1603,1.1809,1.2173,1.2645,1.2897,1.2981,1.3207,1.3694,1.3902,1.3994,1.4016,1.4083,1.4193,1.429,1.4408,1.4512,1.4673,1.48,1.4926,1.5165,1.539,1.548,1.557,1.5525,1.548,1.539,1.5244,1.4994,1.4731,1.4501,1.419,1.3993,1.3841,1.369,1.3601,1.3476,1.3379,1.3142,1.2968,1.2792,1.2767,1.271,1.2637,1.265,1.2458,1.2173,1.21,1.2221,1.2149,1.2027,1.1831,1.1625,1.15,1.1527,1.1448,1.1357,1.1271,1.1295,1.1487,1.1551,1.9877,1.9982,1.9993,2.0077,2.0192,2.0186,2.0235,2.0292,2.0302,2.0363,2.0482,2.051,2.0492,2.0483,2.0478,2.0507,2.0612,2.0954,2.0876,2.0375,2.0834,2.0792,2.0389,2.0201,2.0173,2.0126,2.0002,1.9793,1.942,1.8611,1.7439,1.6659,1.6193,1.5468,1.4383,1.3912,1.3091,1.2159,1.2844,1.3449,1.3427,1.2981,1.2422,1.2107,1.1217,1.043,1.0736,1.0702,1.0508,1.0611,1.0624,1.0582,1.0582,1.0643,1.1178,1.1595,1.183,1.2287,1.273,1.2991,1.3155,1.3486,1.4035,1.4007,1.3946,1.4246,1.4336,1.4255,1.4305,1.4326,1.4373,1.443,1.4569,1.4754,1.4937,1.5119,1.5222,1.5255,1.521,1.5165,1.5028,1.488,1.464,1.4362,1.4071,1.3858,1.3631,1.3536,1.3369,1.3213,1.3135,1.288,1.2672,1.2553,1.2641,1.2641,1.2609,1.26,1.2668,1.2657,1.2503,1.2436,1.2432,1.2295,1.2159,1.2184,1.2061,1.182,1.1613,1.1551,1.1437,1.1355,1.1448,1.1589,1.1612,1.9971,1.9993,2.0039,2.0126,2.0208,2.0195,2.0238,2.0302,2.0288,2.0354,2.0423,2.0468,2.0463,2.0443,2.0478,2.0495,2.0594,2.0737,2.0619,2.0137,2.0302,1.9573,2.0,1.9437,1.9754,2.0136,1.9903,1.9072,1.8052,1.6799,1.5758,1.5242,1.4763,1.3982,1.311,1.2743,1.1659,1.0467,1.0724,1.1242,1.1094,1.102,1.0636,1.0765,1.0349,1.0438,1.0593,1.0463,1.0488,1.0593,1.0365,1.0472,1.071,1.0938,1.1376,1.1872,1.207,1.2444,1.2792,1.3101,1.324,1.3338,1.3563,1.361,1.3789,1.428,1.443,1.4291,1.4186,1.4186,1.4186,1.4244,1.4302,1.4534,1.4708,1.4857,1.496,1.4903,1.4891,1.4789,1.4697,1.4512,1.4222,1.3988,1.3695,1.3467,1.32,1.3008,1.2859,1.2758,1.2814,1.2608,1.2295,1.2211,1.2377,1.2451,1.2517,1.2703,1.285,1.2802,1.2794,1.2794,1.2697,1.2404,1.2282,1.2323,1.2208,1.1785,1.1582,1.1631,1.1557,1.147,1.1563,1.1707,1.1579,1.9993,2.0057,2.0126,2.0208,2.0222,2.025,2.0275,2.0341,2.034,2.0379,2.0392,2.0438,2.0448,2.0448,2.0495,2.0472,2.0458,2.0465,1.9207,1.8531,1.8095,1.6853,1.7115,1.7711,1.7147,1.7392,1.8109,1.7573,1.6541,1.6144,1.5469,1.4327,1.3666,1.2804,1.2043,1.1067,1.0424,0.9467,0.9213,0.9197,0.9217,0.9443,0.9681,0.9855,0.9973,1.0119,1.03,1.0166,1.0303,1.0435,1.0377,1.0699,1.1003,1.1196,1.1593,1.2091,1.2397,1.2627,1.2948,1.3162,1.3238,1.3296,1.342,1.3563,1.3457,1.3847,1.3952,1.381,1.3858,1.3847,1.3941,1.3952,1.4104,1.4255,1.4534,1.4719,1.4719,1.4719,1.4569,1.428,1.414,1.3952,1.3716,1.3478,1.324,1.3164,1.2895,1.2753,1.2545,1.2431,1.2493,1.2436,1.2201,1.2066,1.2149,1.229,1.2373,1.2613,1.3014,1.3083,1.31,1.3064,1.2954,1.2714,1.2571,1.2596,1.238,1.1943,1.1729,1.173,1.173,1.1624,1.172,1.1747,1.1643,1.9988,2.0136,2.0244,2.0292,2.03,2.0301,2.0328,2.0386,2.038,2.041,2.0402,2.0416,2.0457,2.0488,2.0508,2.0458,2.0084,1.9242,1.7671,1.6369,1.5395,1.511,1.4635,1.4205,1.4541,1.4838,1.5366,1.5718,1.5512,1.4768,1.3813,1.3271,1.2299,1.1084,0.9817,0.9159,0.8869,0.857,0.8411,0.8577,0.8646,0.8781,0.9182,0.9286,0.9318,0.9479,0.9811,1.0026,1.0132,1.036,1.058,1.0998,1.1268,1.1515,1.1853,1.2261,1.2522,1.2667,1.2929,1.3036,1.3075,1.3162,1.343,1.3467,1.3314,1.3324,1.343,1.3467,1.3525,1.3563,1.361,1.3716,1.3868,1.402,1.4302,1.4477,1.4488,1.4441,1.4093,1.3752,1.3621,1.344,1.3248,1.3017,1.2907,1.2768,1.2668,1.2609,1.2488,1.2439,1.2453,1.2442,1.2307,1.219,1.2193,1.2276,1.2443,1.2839,1.3237,1.3322,1.3312,1.3246,1.3135,1.303,1.2943,1.2679,1.2583,1.2277,1.2097,1.1819,1.1735,1.1636,1.1611,1.1622,1.163,2.0069,2.0202,2.0214,2.0254,2.0304,2.0288,2.034,2.0379,2.0392,2.0437,2.0408,2.0413,2.0438,2.0478,2.0507,2.0215,1.9321,1.7928,1.6801,1.5744,1.3281,1.349,1.3389,1.2071,1.3216,1.3604,1.3601,1.3457,1.3714,1.2396,1.122,1.0899,1.0323,0.9515,0.9044,0.8521,0.8365,0.8071,0.8175,0.8435,0.8482,0.8743,0.9188,0.9541,0.9987,1.0078,1.0253,1.0327,1.046,1.0671,1.0939,1.1329,1.1608,1.1737,1.2024,1.2307,1.2529,1.2676,1.2832,1.2929,1.2978,1.3027,1.32,1.319,1.3094,1.3113,1.3162,1.3152,1.319,1.3276,1.3362,1.3467,1.3621,1.3821,1.4057,1.414,1.4186,1.3847,1.3505,1.3324,1.32,1.3017,1.2832,1.2681,1.267,1.2518,1.2352,1.2264,1.2364,1.2372,1.2396,1.2355,1.2378,1.2575,1.2631,1.2559,1.2712,1.3174,1.345,1.3407,1.3407,1.3321,1.3268,1.305,1.2744,1.2435,1.2367,1.2367,1.205,1.1787,1.167,1.1608,1.156,1.1619,1.1607]},{"header":{"parameterUnit":"m.s-1","parameterCategory":1,"la1":31.0,"la2":29.5877,"lo1":-88.7671,"lo2":-86.6584,"dy":0.0162,"dx":0.0185,"nx":115,"ny":88,"refTime":"2023-08-18T12:00:00:Z","depth":0,"parameterNumber":3,"parameterNumberName":"V-component_of_WINDS"},"data":[0.0,0.0,0.0,0.0,0.0,0.0,0.0,0.0,0.0,0.0,0.0,0.0,0.0,0.0,0.0,0.0,0.0,0.0,0.0,0.0,0.0,0.0,0.0,0.0,0.0,0.0,0.0,0.0,0.0,0.0,0.0,0.0,0.0,0.0,0.0,0.0,0.0,0.0,0.0,0.0,0.0,0.0,0.0,0.0,0.0,0.0,0.0,0.0,0.0,0.0,0.0,0.0,0.0,0.0,0.0,0.0,0.0,0.0,0.0,0.0,0.0,0.0,0.0,0.0,0.0,0.0,0.0,0.0,0.0,0.0,0.0,0.0,0.0,0.0,0.0,0.0,0.0,0.0,0.0,0.0,0.0,0.0,0.0,0.0,0.0,0.0,0.0,0.0,0.0,0.0,0.0,0.0,0.0,0.0,0.0,0.0,0.0,0.0,0.0,0.0,0.0,0.0,0.0,0.0,0.0,0.0,0.0,0.0,0.0,0.0,0.0,0.0,0.0,0.0,0.0,0.0,0.0,0.0,0.0,0.0,0.0,0.0,0.0,0.0,0.0,0.0,0.0,0.0,0.0,0.0,0.0,0.0,0.0,0.0,0.0,0.0,0.0,0.0,0.0,0.0,0.0,0.0,0.0,0.0,0.0,0.0,0.0,0.0,0.0,0.0,0.0,0.0,0.0,0.0,0.0,0.0,0.0,0.0,0.0,0.0,0.0,0.0,0.0,0.0,0.0,0.0,0.0,0.0,0.0,0.0,0.0,0.0,0.0,0.0,0.0,0.0,0.0,0.0,0.0,0.0,0.0,0.0,0.0,0.0,0.0,0.0,0.0,0.0,0.0,0.0,0.0,0.0,0.0,0.0,0.0,0.0,0.0,0.0,0.0,0.0,0.0,0.0,0.0,0.0,0.0,0.0,0.0,0.0,0.0,0.0,0.0,0.0,0.0,0.0,0.0,0.0,0.0,0.0,0.0,0.0,0.0,0.0,0.0,0.0,0.0,0.0,0.0,0.0,0.0,0.0,0.0,0.0,0.0,0.0,0.0,0.0,0.0,0.0,0.0,0.0,0.0,0.0,0.0,0.0,0.0,0.0,0.0,0.0,0.0,0.0,0.0,0.0,0.0,0.0,0.0,0.0,0.0,0.0,0.0,0.0,0.0,0.0,0.0,0.0,0.0,0.0,0.0,0.0,0.0,0.0,0.0,0.0,0.0,0.0,0.0,0.0,0.0,0.0,0.0,0.0,0.0,0.0,0.0,0.0,0.0,0.0,0.0,0.0,0.0,0.0,0.0,0.0,0.0,0.0,0.0,0.0,0.0,0.0,0.0,0.0,0.0,0.0,0.0,0.0,0.0,0.0,0.0,0.0,0.0,0.0,0.0,0.0,0.0,0.0,0.0,0.0,0.0,0.0,0.0,0.0,0.0,0.0,0.0,0.0,0.0,0.0,0.0,0.0,0.0,0.0,0.0,0.0,0.0,0.0,0.0,0.0,0.0,0.0,0.0,0.0,0.0,0.0,0.0,0.0,0.0,0.0,0.0,0.0,0.0,0.0,0.0,0.0,0.0,0.0,0.0,0.0,0.0,0.0,0.0,0.0,0.0,0.0,0.0,0.0,0.0,0.0,0.0,0.0,0.0,0.0,0.0,0.0,0.0,0.0,0.0,0.0,0.0,0.0,0.0,0.0,0.0,0.0,0.0,0.0,0.0,0.0,0.0,0.0,0.0,0.0,0.0,0.0,0.0,0.0,0.0,0.0,0.0,0.0,0.0,0.0,0.0,0.0,0.0,0.0,0.0,0.0,0.0,0.0,0.0,0.0,0.0,0.0,0.0,0.0,0.0,0.0,0.0,0.0,0.0,0.0,0.0,0.0,0.0,0.0,0.0,0.0,0.0,0.0,0.0,0.0,0.0,0.0,0.0,0.0,0.0,0.0,0.0,0.0,0.0,0.0,0.0,0.0,0.0,0.0,0.0,0.0,0.0,0.0,0.0,0.0,0.0,0.0,0.0,0.0,0.0,0.0,0.0,0.0,0.0,0.0,0.0,0.0,0.0,0.0,0.0,0.0,0.0,0.0,0.0,0.0,0.0,0.0,0.0,0.0,0.0,0.0,0.0,0.0,0.0,0.0,0.0,0.0,0.0,0.0,0.0,0.0,0.0,0.0,0.0,0.0,0.0,0.0,0.0,0.0,0.0,0.0,0.0,0.0,0.0,0.0,0.0,0.0,0.0,0.0,0.0,0.0,0.0,0.0,0.0,0.0,0.0,0.0,0.0,0.0,0.0,0.0,0.0,0.0,0.0,0.0,0.0,0.0,0.0,0.0,0.0,0.0,0.0,0.0,0.0,0.0,0.0,0.0,0.0,0.0,0.0,0.0,0.0,0.0,0.0,0.0,0.0,0.0,0.0,0.0,0.0,0.0,0.0,0.0,0.0,0.0,0.0,0.0,0.0,0.0,0.0,0.0,0.0,0.0,0.0,0.0,0.0,0.0,0.0,0.0,0.0,0.0,0.0,0.0,0.0,0.0,0.0,0.0,0.0,0.0,0.0,0.0,0.0,0.0,0.0,0.0,0.0,0.0,0.0,0.0,0.0,0.0,0.0,0.0,0.0,0.0,0.0,0.0,0.0,0.0,0.0,0.0,0.0,0.0,0.0,0.0,0.0,0.0,0.0,0.0,0.0,0.0,0.0,0.0,0.0,0.0,0.0,0.0,0.0,0.0,0.0,0.0,0.0,0.0,0.0,0.0,0.0,0.0,0.0,0.0,0.0,0.0,0.0,0.0,0.0,0.0,0.0,0.0,0.0,0.0,0.0,0.0,0.0,0.0,0.0,0.0,0.0,0.0,0.0,0.0,0.0,0.0,0.0,0.0,0.0,0.0,0.0,0.0,0.0,0.0,0.0,0.0,0.0,0.0,0.0,0.0,0.0,0.0,0.0,0.0,0.0,0.0,0.0,0.0,0.0,0.0,0.0,0.0,0.0,0.0,0.0,0.0,0.0,0.0,0.0,0.0,0.0,0.0,0.0,0.0,0.0,0.0,0.0,0.0,0.0,0.0,0.0,0.0,0.0,0.0,0.0,0.0,0.0,0.0,0.0,0.0,0.0,0.0,0.0,0.0,0.0,0.0,0.0,0.0,0.0,0.0,0.0,0.0,0.0,0.0,0.0,0.0,0.0,0.0,0.0,0.0,0.0,0.0,0.0,0.0,0.0,0.0,0.0,0.0,0.0,0.0,0.0,0.0,0.0,0.0,0.0,0.0,0.0,0.0,0.0,0.0,0.0,0.0,0.0,0.0,0.0,0.0,0.0,0.0,0.0,0.0,0.0,0.0,0.0,0.0,0.0,0.0,0.0,0.0,0.0,0.0,0.0,0.0,0.0,0.0,0.0,0.0,0.0,0.0,0.0,0.0,0.0,0.0,0.0,0.0,0.0,0.0,0.0,0.0,0.0,0.0,0.0,0.0,0.0,0.0,0.0,0.0,0.0,0.0,0.0,0.0,0.0,0.0,0.0,0.0,0.0,0.0,0.0,0.0,0.0,0.0,0.0,0.0,0.0,0.0,0.0,0.0,0.0,0.0,0.0,0.0,0.0,0.0,0.0,0.0,0.0,0.0,0.0,0.0,0.0,0.0,0.0,0.0,0.0,0.0,0.0,0.0,0.0,0.0,0.0,0.0,0.0,0.0,0.0,0.0,0.0,0.0,0.0,0.0,0.0,0.0,0.0,0.0,0.0,0.0,0.0,0.0,0.0,0.0,0.0,0.0,0.0,0.0,0.0,0.0,0.0,0.0,0.0,0.0,0.0,0.0,0.0,0.0,0.0,0.0,0.0,0.0,0.0,0.0,0.0,0.0,0.0,0.0,0.0,0.0,0.0,0.0,0.0,0.0,0.0,0.0,0.0,0.0,0.0,0.0,0.0,0.0,0.0,0.0,0.0,0.0,0.0,0.0,0.0,0.0,0.0,0.0,0.0,0.0,0.0,0.0,0.0,0.0,0.0,0.0,0.0,0.0,0.0,0.0,0.0,0.0,0.0,0.0,0.0,0.0,0.0,0.0,0.0,0.0,0.0,0.0,0.0,0.0,0.0,0.0,0.0,0.0,0.0,0.0,0.0,0.0,0.0,0.0,0.0,0.0,0.0,0.0,0.0,0.0,0.0,0.0,0.0,0.0,0.0,0.0,0.0,0.0,0.0,0.0,0.0,0.0,0.0,0.0,0.0,0.0,0.0,0.0,0.0,0.0,0.0,0.0,0.0,0.0,0.0,0.0,0.0,0.0,0.9451,0.0,0.0,0.0,0.0,0.0,0.0,0.0,0.0,0.0,0.0,0.0,0.0,0.0,0.0,0.0,0.0,0.0,0.0,0.0,0.0,0.0,0.0,0.0,0.0,0.0,0.0,0.0,0.0,0.0,0.0,0.0,0.0,0.0,0.0,0.0,0.0,0.0,0.0,0.0,0.0,0.0,0.0,0.0,0.0,0.0,0.0,0.0,0.0,0.0,0.0,0.0,0.0,0.0,0.0,0.0,0.0,0.0,0.0,0.0,0.0,0.0,0.0,0.0,0.0,0.0,0.0,0.0,0.0,0.0,0.0,0.0,0.0,0.0,0.0,0.0,0.0,0.0,0.0,0.0,0.0,0.0,0.0,0.0,0.0,0.0,0.0,0.0,0.0,0.0,0.0,0.0,0.0,0.0,0.0,0.0,0.0,0.0,0.0,0.0,0.0,0.0,0.0,0.0,0.0,0.0,0.0,0.0,0.0,0.0,0.0,0.9044,0.9376,0.9239,0.9314,0.9684,0.0,0.0,0.0,0.0,0.0,0.0,0.0,0.0,0.0,0.0,0.0,0.0,0.0,0.0,0.0,0.0,0.0,0.0,0.0,0.0,0.0,0.0,0.0,0.0,0.0,0.0,0.0,0.0,0.0,0.0,0.0,0.0,0.0,0.0,0.0,0.0,0.0,0.0,0.0,0.0,0.0,0.0,0.0,0.0,0.0,0.0,0.0,0.0,0.0,0.0,0.0,0.0,0.0,0.0,0.0,0.0,0.0,0.0,0.0,0.0,0.0,0.0,0.0,0.0,0.0,0.0,0.0,0.0,0.0,0.0,0.0,0.0,0.0,0.0,0.0,0.0,0.0,0.0,0.0,0.0,0.0,0.0,0.0,0.0,0.0,0.0,0.0,0.0,0.0,0.0,0.0,0.0,0.0,0.0,0.0,0.0,0.0,0.0,0.0,0.0,0.0,0.0,0.0,0.0,0.0,0.0,0.0,0.0,0.0,0.0,0.0,0.0,0.9627,0.9767,0.981,0.0,0.0,0.0,0.0,0.0,0.0,0.0,0.0,0.0,0.0,0.0,0.0,0.0,0.0,0.0,0.0,0.0,0.0,0.0,0.0,0.0,0.0,0.0,0.0,0.0,0.0,0.0,0.0,0.0,0.0,0.0,0.0,0.0,0.0,0.0,0.0,0.0,0.0,0.0,0.0,0.0,0.0,0.0,0.0,0.0,0.0,0.0,0.0,0.0,0.0,0.0,0.0,0.0,0.0,0.0,0.0,0.0,0.0,0.0,0.0,0.0,0.0,0.0,0.0,0.0,0.0,0.0,0.0,0.0,0.0,0.0,0.0,0.0,0.0,0.0,0.0,0.0,0.0,0.0,0.0,0.0,0.0,0.0,0.0,0.0,0.0,0.0,0.0,0.0,0.0,0.0,0.0,0.0,0.0,0.0,0.0,0.0,0.0,0.0,0.0,0.0,0.0,0.0,0.0,0.0,0.0,0.0,0.0,0.0,0.0,0.9253,0.9752,1.0054,0.0,1.0466,0.0,0.0,0.0,0.0,0.0,0.0,0.0,0.0,0.0,0.0,0.0,0.0,0.0,0.0,0.0,0.0,0.0,0.0,0.0,0.0,0.0,0.0,0.0,0.0,0.0,0.0,0.0,0.0,0.0,0.0,0.0,0.0,0.0,0.0,0.0,0.0,0.0,0.0,0.0,0.0,0.0,0.0,0.0,0.0,0.0,0.0,0.0,0.0,0.0,0.0,0.0,0.0,0.0,0.0,0.0,0.0,0.0,0.0,0.0,0.0,0.0,0.0,0.0,0.0,0.0,0.0,0.0,0.0,0.0,0.0,0.0,0.0,0.0,0.0,0.0,0.0,0.0,0.0,0.0,0.0,0.0,0.0,0.0,0.0,0.0,0.0,0.0,0.0,0.0,0.0,0.0,0.0,0.0,0.0,0.0,0.0,0.0,0.0,0.0,0.0,0.0,0.0,0.0,0.0,0.0,0.0,0.0,0.0,0.0,0.0,0.9027,0.9681,0.9967,1.0008,0.0,0.0,0.0,0.0,0.0,0.0,0.0,0.0,0.0,0.0,0.0,0.0,0.0,0.0,0.0,0.0,0.0,0.0,0.0,0.0,0.0,0.0,0.0,0.0,0.0,0.0,0.0,0.0,0.0,0.0,0.0,0.0,0.0,0.0,0.0,0.0,0.0,0.0,0.0,0.0,0.0,0.0,0.0,0.0,0.0,0.0,0.0,0.0,0.0,0.0,0.0,0.0,0.0,0.0,0.0,0.0,0.0,0.0,0.0,0.0,0.0,0.0,0.0,0.0,0.0,0.0,0.0,0.0,0.0,0.0,0.0,0.0,0.0,0.0,0.0,0.0,0.0,0.0,0.0,0.0,0.0,0.0,0.0,0.0,0.0,0.0,0.0,0.0,0.0,0.0,0.0,0.0,0.0,0.0,0.0,0.0,0.0,0.0,0.0,0.0,0.0,0.0,0.0,0.0,0.0,0.0,0.0,0.0,0.0,0.0,0.8719,0.9091,0.9856,0.9706,0.9564,0.9439,0.0,0.0,0.0,0.0,0.0,0.0,0.0,0.0,0.0,0.0,0.0,0.0,0.0,0.0,0.0,0.0,0.0,0.0,0.0,0.0,0.0,0.0,0.0,0.0,0.0,0.0,0.0,0.0,0.0,0.0,0.0,0.0,0.0,0.0,0.0,0.0,0.0,0.0,0.0,0.0,0.0,0.0,0.0,0.0,0.0,0.0,0.0,0.0,0.0,0.0,0.0,0.0,0.0,0.0,0.0,0.0,0.0,0.0,0.0,0.0,0.0,0.0,0.0,0.0,0.0,0.0,0.0,0.0,0.0,0.0,0.0,0.0,0.0,0.0,0.0,0.0,0.0,0.0,0.0,0.0,0.0,0.0,0.0,0.0,0.0,0.0,0.0,0.0,0.0,0.0,0.0,0.0,0.0,0.0,0.0,0.0,0.0,0.0,0.0,0.0,0.0,0.0,0.0,0.0,0.0,0.0,0.0,0.0,0.9453,0.931,0.9697,1.0534,0.9343,0.9089,0.0,0.0,0.0,0.0,0.0,0.0,0.0,0.0,0.0,0.0,0.0,0.0,0.0,0.0,0.0,0.0,0.0,0.0,0.0,0.0,0.0,0.0,0.0,0.0,0.0,0.0,0.0,0.0,0.0,0.0,0.0,0.0,0.0,0.0,0.0,0.0,0.0,0.0,0.0,0.0,0.0,0.0,0.0,0.0,0.0,0.0,0.0,0.0,0.0,0.0,0.0,0.0,0.0,0.0,0.0,0.0,0.0,0.0,0.0,0.0,0.0,0.0,0.0,0.0,0.0,0.0,0.0,0.0,0.0,0.0,0.0,0.0,0.0,0.0,0.0,0.0,0.0,0.0,0.0,0.0,0.0,0.0,0.0,0.0,0.0,0.0,0.0,0.0,0.0,0.0,0.0,0.0,0.0,0.0,0.0,0.0,0.0,0.0,0.0,0.0,0.0,0.0,0.0,0.0,0.0,0.0,0.0,0.0,0.0,0.7927,0.8537,0.9049,0.9452,0.9182,0.9267,0.0,0.0,0.0,0.0,0.0,0.0,0.0,0.0,0.0,0.0,0.0,0.0,0.0,0.0,0.0,0.0,0.0,0.0,0.0,0.0,0.0,0.0,0.0,0.0,0.0,0.0,0.0,0.0,0.0,0.0,0.0,0.0,0.0,0.0,0.0,0.0,0.0,0.0,0.0,0.0,0.0,0.0,0.0,0.0,0.0,0.0,0.0,0.0,0.0,0.0,0.0,0.0,0.0,0.0,0.0,0.0,0.0,0.0,0.0,0.0,0.0,0.0,0.0,0.0,0.0,0.0,0.0,0.0,0.0,0.0,0.0,0.0,0.0,0.0,0.0,0.0,0.0,0.0,0.0,0.0,0.0,0.0,0.0,0.0,0.0,0.0,0.0,0.0,0.0,0.0,0.0,0.0,0.0,0.0,0.0,0.0,0.0,0.0,0.0,0.0,0.0,0.0,0.0,0.0,0.0,0.0,0.0,0.0,0.0,0.7136,0.0,0.8316,0.8748,0.8728,0.8889,0.0,0.0,0.0,0.0,0.0,0.0,0.0,0.0,0.0,0.0,0.0,0.0,0.0,0.0,0.0,0.0,0.0,0.0,0.0,0.0,0.0,0.0,0.0,0.0,0.0,0.0,0.0,0.0,0.0,0.0,0.0,0.0,0.0,0.0,0.0,0.0,0.0,0.0,0.0,0.0,0.0,0.0,0.0,0.0,0.0,0.0,0.0,0.0,0.0,0.0,0.0,0.0,0.0,0.0,0.0,0.0,0.0,0.0,0.0,0.0,0.0,0.0,0.0,0.0,0.0,0.0,0.0,0.0,0.0,0.0,0.0,0.0,0.0,0.0,0.0,0.0,0.0,0.0,0.0,0.0,0.0,0.0,0.0,0.0,0.0,0.0,0.0,0.0,0.0,0.0,0.0,0.0,0.0,0.0,0.0,0.0,0.0,0.0,0.0,0.0,0.0,0.0,0.0,0.0,0.0,0.0,0.0,0.0,0.6277,0.7282,0.7162,0.758,0.8625,0.7927,0.7914,0.0,0.0,0.0,0.0,0.0,0.0,0.0,0.0,0.0,0.0,0.0,0.0,0.0,0.0,0.0,0.0,0.0,0.0,0.0,0.0,0.0,0.0,0.0,0.0,0.0,0.0,0.0,0.0,0.0,0.0,0.0,0.0,0.0,0.0,0.0,0.0,0.0,0.0,0.0,0.0,0.0,0.0,0.0,0.0,0.0,0.0,0.0,0.0,0.0,0.0,0.0,0.0,0.0,0.0,0.0,0.0,0.0,0.0,0.0,0.0,0.0,0.0,0.0,0.0,0.0,0.0,0.0,0.0,0.0,0.0,0.0,0.0,0.0,0.0,0.0,0.0,0.0,0.0,0.0,0.0,0.0,0.0,0.0,0.0,0.0,0.0,0.0,0.0,0.0,0.0,0.0,0.0,0.0,0.0,0.0,0.0,0.0,0.0,0.0,0.0,0.0,0.0,0.0,0.0,0.0,0.0,0.0,0.0,0.0,0.5711,0.5829,0.6529,0.7852,0.7354,0.762,0.0,0.0,0.0,0.0,0.0,0.0,0.0,0.0,0.0,0.0,0.0,0.0,0.0,0.0,0.0,0.0,0.0,0.0,0.0,0.0,0.0,0.0,0.0,0.0,0.0,0.0,0.0,0.0,0.0,0.0,0.0,0.0,0.0,0.0,0.0,0.0,0.0,0.0,0.0,0.0,0.0,0.0,0.0,0.0,0.0,0.0,0.0,0.0,0.0,0.0,0.0,0.0,0.0,0.0,0.0,0.0,0.0,0.0,0.0,0.0,0.0,0.0,0.0,0.0,0.0,0.0,0.0,0.0,0.0,0.0,0.0,0.0,0.0,0.0,0.0,0.0,0.0,0.0,0.0,0.0,0.0,0.0,0.0,0.0,0.0,0.0,0.0,0.0,0.0,0.0,0.0,0.0,0.0,0.0,0.0,0.0,0.0,0.0,0.0,0.0,0.0,0.0,0.0,0.0,0.0,0.0,0.0,0.0,0.0,0.4364,0.4656,0.5373,0.6497,0.6467,0.7092,0.8516,0.0,0.0,0.0,0.0,0.0,0.0,0.0,0.0,0.0,0.0,0.0,0.0,0.0,0.0,0.0,0.0,0.0,0.0,0.0,0.0,0.0,0.0,0.0,0.0,0.0,0.0,0.0,0.0,0.0,0.0,0.0,0.0,0.0,0.0,0.0,0.0,0.0,0.0,0.0,0.0,0.0,0.0,0.0,0.0,0.0,0.0,0.0,0.0,0.0,0.0,0.0,0.0,0.0,0.0,0.0,0.0,0.0,0.0,0.0,0.0,0.0,0.0,0.0,0.0,0.0,0.0,0.0,0.0,0.0,0.0,0.0,0.0,0.0,0.0,0.0,0.0,0.0,0.0,0.0,0.0,0.0,0.0,0.0,0.0,0.0,0.0,0.0,0.0,0.0,0.0,0.0,0.0,0.0,0.0,0.0,0.0,0.0,0.0,0.0,0.0,0.0,0.0,0.0,0.0,0.0,0.0,0.0,0.0,0.3314,0.3693,0.4184,0.4725,0.5396,0.6412,0.0,0.0,0.0,0.0,0.0,0.0,0.0,0.0,0.0,0.0,0.0,0.0,0.0,0.0,0.0,0.0,0.0,0.0,0.0,0.0,0.0,0.0,0.0,0.0,0.0,0.0,0.0,0.0,0.0,0.0,0.0,0.0,0.0,0.0,0.0,0.0,0.0,0.0,0.0,0.0,0.0,0.0,0.0,0.0,0.0,0.0,0.0,0.0,0.0,0.0,0.0,0.0,0.0,0.0,0.0,0.0,0.0,0.0,0.0,0.0,0.0,0.0,0.0,0.0,0.0,0.0,0.0,0.0,0.0,0.0,0.0,0.0,0.0,0.0,0.0,0.0,0.0,0.0,0.0,0.0,0.0,0.0,0.0,0.0,0.0,0.0,0.0,0.0,0.0,0.0,0.0,0.0,0.0,0.0,0.0,0.0,0.0,0.0,0.0,0.0,0.0,0.0,0.0,0.0,0.0,0.0,0.0,0.0,0.0,0.2294,0.2534,0.3283,0.4583,0.4989,0.5684,0.0,0.0,0.0,0.0,0.0,0.0,0.0,0.0,0.0,0.0,0.0,0.0,0.0,0.0,0.0,0.0,0.0,0.0,0.0,0.0,0.0,0.0,0.0,0.0,0.0,0.0,0.0,0.0,0.0,0.0,0.0,0.0,0.0,0.0,0.0,0.0,0.0,0.0,0.0,0.0,0.0,0.0,0.0,0.0,0.0,0.0,0.0,0.0,0.0,0.0,0.0,0.0,0.0,0.0,0.0,0.0,0.0,0.0,0.0,0.0,0.0,0.0,0.0,0.0,0.0,0.0,0.0,0.0,0.0,0.0,0.0,0.0,0.0,0.0,0.0,0.0,0.0,0.0,0.0,0.0,0.0,0.0,0.0,0.0,0.0,0.0,0.0,0.0,0.0,0.0,0.0,0.0,0.0,0.0,0.0,0.0,0.0,0.0,0.0,0.0,0.0,0.0,0.0,0.0,0.0,0.0,0.0,0.0,0.1704,0.1924,0.176,0.2298,0.3603,0.4677,0.5576,0.0,0.0,0.0,0.0,0.0,0.0,0.0,0.0,0.0,0.0,0.0,0.0,0.0,0.0,0.0,0.0,0.0,0.0,0.0,0.0,0.0,0.0,0.0,0.0,0.0,0.0,0.0,0.0,0.0,0.0,0.0,0.0,0.0,0.0,0.0,0.0,0.0,0.0,0.0,0.0,0.0,0.0,0.0,0.0,0.0,0.0,0.0,0.0,0.0,0.0,0.0,0.0,0.0,0.0,0.0,0.0,0.0,0.0,0.0,0.0,0.0,0.0,0.0,0.0,0.0,0.0,0.0,0.0,0.0,0.0,0.0,0.0,0.0,0.0,0.0,0.0,0.0,0.0,0.0,0.0,0.0,0.0,0.0,0.0,0.0,0.0,0.0,0.0,0.0,0.0,0.0,0.0,0.0,0.0,0.0,0.0,0.0,0.0,0.0,0.0,0.0,0.0,0.0,0.0,0.0,0.0,0.0,0.0,0.1388,0.1721,0.1169,0.1301,0.2299,0.4281,0.5669,0.0,0.0,0.0,0.0,0.0,0.0,0.0,0.0,0.0,0.0,0.0,0.0,0.0,0.0,0.0,0.0,0.0,0.0,0.0,0.0,0.0,0.0,0.0,0.0,0.0,0.0,0.0,0.0,0.0,0.0,0.0,0.0,0.0,0.0,0.0,0.0,0.0,0.0,0.0,0.0,0.0,0.0,0.0,0.0,0.0,0.0,0.0,0.0,0.0,0.0,0.0,0.0,0.0,0.0,0.0,0.0,0.0,0.0,0.0,0.0,0.0,0.0,0.0,0.0,0.0,0.0,0.0,0.0,0.0,0.0,0.0,0.0,0.0,0.0,0.0,0.0,0.0,0.0,0.0,0.0,0.0,0.0,0.0,0.0,0.0,0.0,0.0,0.0,0.0,0.0,0.0,0.0,0.0,0.0,0.0,0.0,0.0,0.0,0.0,0.0,0.0,0.0,0.0,0.0,0.0,0.0,0.0,0.0,0.0426,0.027,0.0354,0.0967,0.2103,0.371,0.507,0.0,0.0,0.0,0.0,0.0,0.0,0.0,0.0,0.0,0.0,0.0,0.0,0.0,0.0,0.0,0.0,0.0,0.0,0.0,0.0,0.0,0.0,0.0,0.0,0.0,0.0,0.0,0.0,0.0,0.0,0.0,0.0,0.0,0.0,0.0,0.0,0.0,0.0,0.0,0.0,0.0,0.0,0.0,0.0,0.0,0.0,0.0,0.0,1.0608,0.0,0.0,0.0,0.0,0.0,0.0,0.0,0.0,0.0,0.0,0.0,0.0,0.0,0.0,0.0,0.0,0.0,0.0,0.0,0.0,0.0,0.0,0.0,0.0,0.0,0.0,0.0,0.0,0.0,0.0,0.0,0.0,0.0,0.0,0.0,0.0,0.0,0.0,0.0,0.0,0.0,0.0,0.0,0.0,0.0,0.0,0.0,0.0,0.0,0.0,0.0,0.0,0.0,0.0,0.0,0.0,0.0,0.0,0.0,-0.0057,-0.0425,-0.0323,0.0367,0.1733,0.3062,0.432,0.0,0.0,0.0,0.0,0.0,0.0,0.0,0.0,0.0,0.0,0.0,0.0,0.0,0.0,0.0,0.0,0.0,0.0,0.0,0.0,0.0,0.0,0.0,0.0,0.0,0.0,0.0,0.0,0.0,0.0,0.0,0.0,0.0,0.0,0.0,0.0,0.0,0.0,0.0,0.0,0.0,0.0,0.0,0.0,0.0,0.0,0.0,0.0,0.0,0.0,0.0,0.0,0.0,0.0,0.0,0.0,0.0,0.0,0.0,0.0,0.0,0.0,0.0,0.0,0.0,0.0,0.0,0.0,0.0,0.0,0.0,0.0,0.0,0.0,0.0,0.0,0.0,0.0,0.0,0.0,0.0,0.0,0.0,0.0,0.0,0.0,0.0,0.0,0.0,0.0,0.0,0.0,0.0,0.0,0.0,0.0,0.0,0.0,0.0,0.0,0.0,0.0,0.0,0.0,0.0,0.0,0.0,0.0,-0.0374,-0.0977,-0.0941,-0.02,0.1371,0.2356,0.3545,0.4884,0.0,0.0,0.0,0.0,0.0,0.0,0.0,0.0,0.0,0.0,0.0,0.0,0.0,0.0,0.0,0.0,0.0,0.0,0.0,0.0,0.0,0.0,0.0,0.0,0.0,0.0,0.0,0.0,0.0,0.0,0.0,0.0,0.0,0.0,0.0,0.0,0.0,0.0,0.9092,0.939,0.0,0.0,0.0,0.0,0.0,0.0,0.0,0.0,1.0261,0.0,0.0,0.0,0.0,0.0,0.0,0.0,0.0,0.0,0.0,0.0,0.0,0.0,0.0,0.0,0.0,0.0,0.0,0.0,0.0,0.0,0.0,0.0,0.0,0.0,0.0,0.0,0.0,0.0,0.0,0.0,0.0,0.0,0.0,0.0,0.0,0.0,0.0,0.0,0.0,0.0,0.0,0.0,0.0,0.0,0.0,0.0,0.0,0.0,0.0,0.0,0.0,0.0,0.0,0.0,0.0,-0.0959,-0.0231,-0.0678,-0.2311,-0.1495,-0.0234,0.1464,0.1807,0.2772,0.4498,0.0,0.0,0.0,0.0,0.0,0.0,0.0,0.0,0.0,0.0,0.0,0.0,0.0,0.0,0.0,0.0,0.0,0.0,0.0,0.0,0.0,0.0,0.0,0.0,0.0,0.0,0.0,0.0,0.0,0.0,0.0,0.0,0.0,0.0,0.0,0.0,0.0,0.0,0.0,0.9286,0.9487,0.0,0.0,0.0,0.0,0.0,0.0,0.0,0.0,1.0449,0.0,0.0,0.0,0.0,0.0,0.0,0.0,0.0,0.0,0.0,0.0,0.0,0.0,0.0,0.0,0.0,0.0,0.0,0.0,0.0,0.0,0.0,0.0,0.0,0.0,0.0,0.0,0.0,0.0,0.0,0.0,0.0,0.0,0.0,0.0,0.0,0.0,0.0,0.0,0.0,0.0,0.0,0.0,0.0,0.0,0.0,0.0,0.0,0.0,0.0,0.0,0.0,0.0,0.0,0.0,-0.166,-0.1501,-0.1979,-0.324,-0.2168,-0.0681,0.1161,0.1555,0.2542,0.0,0.0,0.0,0.0,0.0,0.0,0.0,0.0,0.0,0.0,0.0,0.0,0.0,0.0,0.0,0.0,0.0,0.0,0.0,0.0,0.0,0.0,0.0,0.0,0.0,0.0,0.0,0.0,0.0,0.0,0.0,0.0,0.0,0.0,0.0,0.0,0.0,0.0,0.0,0.0,0.926,0.9412,0.9455,0.0,0.0,0.0,0.0,0.0,0.0,1.025,1.0211,0.0,0.0,0.0,0.0,0.0,0.0,0.0,0.0,0.0,0.0,0.0,0.0,0.0,0.0,0.0,0.0,0.0,0.0,0.0,0.0,0.0,0.0,0.0,0.0,0.0,0.0,0.0,0.0,0.0,0.0,0.0,0.0,0.0,0.0,0.0,0.0,0.0,0.0,0.0,0.0,0.0,0.0,0.0,0.0,0.0,0.0,0.0,0.0,0.0,0.0,0.0,0.0,0.0,0.0,0.0,-0.2134,-0.2609,-0.3168,-0.3839,-0.2668,-0.1132,0.0726,0.1282,0.2423,0.0,0.0,0.0,0.0,0.0,0.0,0.0,0.0,0.0,0.0,0.0,0.0,0.0,0.0,0.0,0.0,0.0,0.0,0.0,0.0,0.0,0.0,0.0,0.0,0.0,0.0,0.0,0.0,0.0,0.0,0.0,0.0,0.0,0.0,0.0,0.0,0.0,0.0,0.0,0.0,0.0,0.9304,0.932,0.9711,0.0,0.0,0.0,0.0,1.0493,1.0336,0.0,0.0,0.0,0.0,0.0,0.0,0.0,0.0,0.0,0.0,0.0,0.0,0.0,0.0,0.0,0.0,0.0,0.0,0.0,0.0,0.0,0.0,0.0,0.0,0.0,0.0,0.0,0.0,0.0,0.0,0.0,0.0,0.0,0.0,0.0,0.0,0.0,0.0,0.0,0.0,0.0,0.0,0.0,0.0,0.0,0.0,0.0,0.0,0.0,0.0,0.0,0.0,0.0,0.0,0.0,0.0,-0.1983,-0.2613,-0.3249,-0.3879,-0.2742,-0.1289,0.0396,0.0913,0.2057,0.0,0.0,0.0,0.0,0.0,0.0,0.0,0.0,0.0,0.0,0.0,0.0,0.0,0.0,0.0,0.0,0.0,0.0,0.0,0.0,0.0,0.0,0.0,0.0,0.0,0.0,0.0,0.0,0.0,0.0,0.0,0.0,0.0,0.0,0.0,0.0,0.0,0.0,0.0,0.0,0.0,0.9185,0.9288,0.9351,0.9436,0.0,0.0,1.0616,1.0161,1.0724,0.0,0.0,0.0,0.0,0.0,0.0,0.0,0.0,0.0,0.0,0.0,0.0,0.0,0.0,0.0,0.0,0.0,0.0,0.0,0.0,0.0,0.0,0.0,0.0,0.0,0.0,0.0,0.0,0.0,0.0,0.0,0.0,0.0,0.0,0.0,0.0,0.0,0.0,0.0,0.0,0.0,0.0,0.0,0.0,0.0,0.0,0.0,0.0,0.0,0.0,0.0,0.0,0.0,0.0,0.0,-0.2166,-0.2706,-0.4018,-0.4765,-0.4808,-0.3109,-0.1517,-0.003,0.0632,0.1896,0.0,0.0,0.0,0.0,0.0,0.0,0.0,0.0,0.0,0.0,0.0,0.0,0.0,0.0,0.0,0.0,0.0,0.0,0.0,0.0,0.0,0.0,0.0,0.0,0.0,0.0,0.0,0.0,0.0,0.0,0.0,0.0,0.0,0.0,0.0,0.0,0.0,0.0,0.0,0.0,0.0,0.0,0.9238,0.9691,0.0,0.0,0.0,1.0676,1.0679,0.0,0.0,0.0,0.0,0.0,0.0,0.0,0.0,0.0,0.0,0.0,0.0,0.0,0.0,0.0,0.0,0.0,0.0,0.0,0.0,0.0,0.0,0.0,0.0,0.0,0.0,0.0,0.0,0.0,0.0,0.0,0.0,0.0,0.0,0.0,0.0,0.0,0.0,0.0,0.0,0.0,0.0,0.0,0.0,0.0,0.0,0.0,0.0,0.0,0.0,0.0,0.0,0.0,0.0,0.0,0.0,0.0,-0.3313,-0.5294,-0.6081,-0.5462,-0.3683,-0.1949,-0.0437,0.0386,0.0,0.0,0.0,0.0,0.0,0.0,0.0,0.0,0.0,0.0,0.0,0.0,0.0,0.0,0.0,0.0,0.0,0.0,0.0,0.0,0.0,0.0,0.0,0.0,0.0,0.0,0.0,0.831,0.0,0.0,0.0,0.0,0.0,0.0,0.0,0.0,0.0,0.0,0.0,0.0,0.0,0.0,0.9517,0.9382,0.994,1.0232,0.0,0.0,1.0691,1.0661,1.0005,0.9618,0.0,0.0,0.0,0.0,0.0,0.0,0.0,0.0,0.0,0.0,0.0,0.0,0.0,0.0,0.0,0.0,0.0,0.0,0.0,0.0,0.0,0.0,0.0,0.0,0.0,0.0,0.0,0.0,0.0,0.0,0.0,0.0,0.0,0.0,0.0,0.0,0.0,0.0,0.0,0.0,0.0,0.0,0.0,0.0,0.0,0.0,0.0,0.0,0.0,0.0,0.0,0.0,0.0,0.0,0.0,-0.3553,-0.5822,-0.6533,-0.5534,-0.4394,-0.2769,-0.066,0.0126,0.1352,0.0,0.0,0.0,0.0,0.0,0.0,0.0,0.0,0.0,0.0,0.0,0.0,0.0,0.0,0.0,0.0,0.0,0.0,0.0,0.0,0.0,0.0,0.0,0.0,0.0,0.0,0.0,0.0,0.0,0.0,0.0,0.0,0.0,0.0,0.0,0.0,0.0,0.0,0.0,0.0,0.0,0.977,0.9766,0.9754,0.9592,0.0,0.0,1.051,0.9337,0.9864,1.0135,0.9384,0.0,0.0,0.0,0.0,0.0,0.0,0.0,0.0,0.0,0.0,0.0,0.0,0.0,0.0,0.0,0.0,0.0,0.0,0.0,0.0,0.0,0.0,0.0,0.0,0.0,0.0,0.0,0.0,0.0,0.0,0.0,0.0,0.0,0.0,0.0,0.0,0.0,0.0,0.0,0.0,0.0,0.0,0.0,0.0,0.0,0.0,0.0,0.0,0.0,0.0,0.0,0.0,0.0,-0.3705,-0.3898,-0.6083,-0.6856,-0.6041,-0.4604,-0.302,-0.1321,-0.0292,0.0998,0.0,0.0,0.0,0.0,0.0,0.0,0.0,0.0,0.0,0.0,0.0,0.0,0.0,0.0,0.0,0.0,0.0,0.0,0.0,0.0,0.0,0.0,0.0,0.0,0.0,0.0,0.0,0.0,0.7729,0.7802,0.7791,0.0,0.0,0.0,0.0,0.0,0.0,0.0,0.0,0.0,0.0,0.9483,0.9336,0.9441,0.0,0.0,0.9706,1.0175,1.0329,1.0211,1.0183,1.0391,1.059,0.0,0.0,0.0,0.0,0.0,0.0,0.0,0.0,0.0,0.0,0.0,0.0,0.0,0.0,0.0,0.0,0.0,0.0,0.0,0.0,0.0,0.0,0.0,0.0,0.0,0.0,0.0,0.0,0.0,0.0,0.0,0.0,0.0,0.0,0.0,0.0,0.0,0.0,0.0,0.0,0.0,0.0,0.0,0.0,0.0,0.0,0.0,0.0,0.0,0.0,0.0,0.0,-0.3811,-0.411,-0.6166,-0.6969,-0.6385,-0.4711,-0.3149,-0.1797,-0.0504,0.1087,0.0,0.0,0.0,0.0,0.0,0.0,0.0,0.0,0.0,0.0,0.0,0.0,0.0,0.0,0.0,0.0,0.0,0.0,0.0,0.0,0.0,0.0,0.0,0.0,0.0,0.0,0.0,0.0,0.7718,0.7803,0.7739,0.0,0.0,0.0,0.0,0.0,0.0,0.0,0.0,0.0,0.0,0.9244,0.9168,0.9376,0.9527,0.9469,0.9753,1.0157,1.0718,1.0365,1.0182,1.0554,0.0,0.0,0.0,0.0,0.0,0.0,0.0,0.0,0.0,0.0,0.0,0.0,0.0,0.0,0.0,0.0,0.0,0.0,0.0,0.0,0.0,0.0,0.0,0.0,0.0,0.0,0.0,0.0,0.0,0.0,0.1789,0.0,0.0,0.0,0.0,0.0,0.0,0.0,0.0,0.0,0.0,0.0,0.0,0.0,0.0,0.0,0.0,0.0,0.0,0.0,0.0,0.0,0.0,-0.3832,-0.4118,-0.6077,-0.6863,-0.6358,-0.4691,-0.319,-0.1902,-0.041,0.1742,0.464,0.0,0.0,0.0,0.0,0.0,0.0,0.0,0.0,0.0,0.0,0.0,0.0,0.0,0.0,0.0,0.0,0.0,0.0,0.0,0.0,0.0,0.0,0.0,0.0,0.0,0.0,0.8109,0.7839,0.7646,0.0,0.0,0.0,0.0,0.0,0.0,0.0,0.0,0.0,0.0,0.9531,0.9164,0.9521,0.957,0.9658,0.9758,1.0399,1.0648,0.9963,1.018,1.0146,0.0,0.0,0.0,0.0,0.0,0.0,0.0,0.0,0.0,0.0,0.0,0.0,0.0,0.0,0.0,0.0,0.0,0.0,0.0,0.0,0.0,0.0,0.0,0.0,0.0,0.0,0.0,0.1282,0.1282,0.0,0.0,0.0,0.0,0.0,0.0,0.0,0.0,0.0,0.0,0.0,-0.1666,-0.1689,0.0,0.0,0.0,0.0,0.0,0.0,0.0,0.0,0.0,0.0,0.0,0.0,-0.4088,-0.4152,-0.6201,-0.6868,-0.5929,-0.4471,-0.3067,-0.1802,-0.0768,0.1919,0.6373,0.0,0.0,0.0,0.0,0.0,0.0,0.0,0.0,0.0,0.0,0.0,0.0,0.0,0.0,0.0,0.0,0.0,0.0,0.0,0.0,0.0,0.0,0.0,0.0,0.0,0.8011,0.0,0.0,0.0,0.0,0.0,0.0,0.0,0.0,0.0,0.0,0.0,0.9028,0.8866,0.9374,0.9637,0.9368,0.9588,0.9658,0.0,0.0,0.0,0.0,0.0,0.0,0.0,0.0,0.0,0.0,0.0,0.0,0.0,0.0,1.1249,1.0922,1.0404,1.0169,1.052,0.0,0.0,0.0,0.0,0.0,0.0,0.0,0.0,0.0,0.0,0.0,0.0,0.0,0.0,0.0734,0.0,0.0973,0.0,0.0,0.0,0.0,0.0,0.0,0.0,0.0,-0.2177,-0.2554,-0.3014,-0.3219,-0.3235,0.0,-0.3731,-0.3003,0.0,0.0,0.0,0.0,0.0,0.0,0.0,0.0,-0.35,-0.3775,-0.5747,-0.6397,-0.551,-0.398,-0.2735,-0.1804,-0.0094,0.2334,0.5522,0.588,0.5523,0.0,0.0,0.0,0.0,0.0,0.0,0.0,0.0,0.0,0.0,0.0,0.0,0.0,0.0,0.0,0.0,0.0,0.0,0.0,0.0,0.0,0.0,0.0,0.7691,0.0,0.0,0.0,0.0,0.0,0.0,0.0,0.0,0.0,0.7938,0.8392,0.8606,0.8345,0.8875,0.9319,0.9257,0.0,0.0,0.0,0.0,0.0,0.0,0.0,1.1153,1.1162,1.1259,1.1308,1.1297,1.1287,1.1239,1.1143,0.0,0.0,1.0848,1.039,1.0122,1.0567,1.0794,1.0931,1.0976,1.11,1.1075,0.0,0.0,0.0,0.0,0.0,0.0,0.0,0.0,0.0318,0.0028,0.0,0.05,0.0,0.0,0.0,0.0,0.0,-0.1771,0.0,0.0,-0.4285,-0.4616,-0.4718,-0.4988,-0.5016,-0.4842,-0.6236,-0.6014,-0.4242,-0.3036,0.0,0.0,0.0,0.0,0.0,0.0,-0.2185,-0.3317,-0.494,-0.5543,-0.5136,-0.3408,-0.2272,-0.1861,0.1439,0.2973,0.2427,0.4139,0.4509,0.3289,0.453,0.0,0.0,0.0,0.0,0.0,0.0,0.0,0.0,0.0,0.0,0.0,0.0,0.0,0.0,0.0,0.0,0.0,0.0,0.0,0.0,0.6725,0.0,0.0,0.0,0.0,0.0,0.0,0.0,0.0,0.0,0.0,0.8183,0.8112,0.8185,0.8641,0.0,0.0,0.0,0.0,0.9512,1.0485,1.0937,1.1185,1.1309,1.105,1.0668,0.9956,0.0,0.0,1.0079,1.0588,1.0908,1.0768,1.0264,1.0298,1.1656,1.1586,1.1572,1.1965,1.2013,1.2093,1.1888,1.1833,1.1837,1.1599,0.0,0.0,0.0,0.0,0.1946,0.0295,0.0163,-0.0193,-0.0312,-0.0301,-0.0127,0.0,0.0,0.0,0.0,0.0,0.0,-0.3364,-0.4277,-0.4287,-0.4667,-0.5264,-0.5003,-0.5173,-0.5636,-0.595,-0.6117,-0.6096,-0.5592,-0.3996,-0.152,0.0,0.0,0.0,0.0,-0.2266,-0.4394,-0.5528,-0.5576,-0.4587,-0.3538,-0.2296,-0.0937,0.2001,0.3082,0.1996,0.3882,0.4415,0.3265,0.3314,0.0,0.0,0.0,0.0,0.0,0.0,0.0,0.0,0.0,0.0,0.0,0.0,0.0,0.0,0.0,0.0,0.0,0.0,0.0,0.7118,0.6438,0.629,0.0,0.0,0.0,0.0,0.0,0.0,0.0,0.0,0.0,0.7564,0.7916,0.8295,0.0,0.0,0.9377,0.9774,0.9795,0.9873,1.004,1.0283,0.0,0.0,1.0293,1.034,1.0098,0.9944,0.9815,0.9697,0.957,0.9433,0.9394,0.9361,0.9694,1.052,1.0174,0.9874,1.0097,1.0443,1.0688,1.0596,1.0895,1.1062,0.9254,0.6429,0.9636,0.9065,0.5732,0.1777,-0.0101,-0.0437,-0.0538,-0.0626,-0.0705,-0.0779,-0.1019,-0.1435,-0.2062,0.0,0.0,0.0,-0.4058,-0.4502,-0.4561,-0.4984,-0.5645,-0.5274,-0.5493,-0.6271,-0.6375,-0.6615,-0.7005,-0.6585,-0.5263,-0.3089,0.0,0.0,-0.2279,-0.2759,-0.3536,-0.4527,-0.5124,-0.4947,-0.4071,-0.3016,-0.1769,-0.0335,0.1475,0.2193,0.1764,0.2695,0.3181,0.2954,0.28,0.3178,0.0,0.0,0.0,0.0,0.0,0.0,0.0,0.0,0.0,0.0,0.0,0.9209,0.9119,0.0,0.0,0.0,0.6658,0.649,0.6443,0.6072,0.0,0.0,0.0,0.0,0.0,0.0,0.0,0.7792,0.7829,0.7817,0.7715,0.7908,0.815,0.8259,0.8703,0.9177,0.9506,0.0,0.9567,0.9695,0.9843,0.9913,0.9658,0.9667,0.9716,0.9628,0.943,0.9231,0.9007,0.8967,0.8829,0.8635,0.9047,0.9576,0.9804,0.962,0.9524,0.976,1.0069,1.0243,1.0167,1.0332,1.039,0.6991,0.2408,0.4518,0.5797,0.6069,0.1887,-0.0337,-0.0982,-0.0813,-0.0951,-0.1266,-0.1398,-0.1597,-0.1947,-0.261,0.0,-0.2947,-0.4209,-0.4707,-0.4693,-0.5098,-0.556,-0.6011,-0.5702,-0.5998,-0.6841,-0.7241,-0.7408,-0.728,-0.669,-0.5952,-0.5183,-0.5346,-0.4814,-0.3725,-0.5222,-0.5346,-0.3941,-0.4071,-0.3958,-0.3598,-0.2137,-0.0943,-0.0067,0.0235,0.0771,0.1442,0.1074,0.1342,0.2443,0.2652,0.3039,0.3704,0.0,0.0,0.0,0.0,0.0,0.0,0.0,0.0,0.0,0.0,0.0,0.0,0.0,0.0,0.0,0.5764,0.0,0.5358,0.5773,0.0,0.0,0.0,0.7575,0.7947,0.7961,0.8016,0.813,0.0,0.0,0.8245,0.8024,0.7795,0.7874,0.7912,0.8209,0.883,0.8854,0.8918,0.9399,0.9588,0.9667,0.9509,0.9248,0.9016,0.8846,0.8602,0.848,0.8332,0.8659,0.8692,0.8193,0.9047,0.9813,0.9386,0.9855,1.0351,1.0514,1.0562,1.0495,1.0244,1.0127,1.0059,0.8182,1.114,0.3917,0.0336,-0.0491,-0.0687,-0.1269,-0.1985,-0.1426,-0.1427,-0.1892,-0.188,-0.2588,-0.3916,-0.4946,-0.5481,-0.5593,-0.5905,-0.6045,-0.6023,-0.6084,-0.6224,-0.6343,-0.5931,-0.6334,-0.7364,-0.7158,-0.7403,-0.8086,-0.795,-0.7143,-0.5759,-0.5275,-0.4525,-0.3619,-0.4997,-0.51,-0.3904,-0.3703,-0.3323,-0.2765,-0.1742,-0.0841,-0.0168,0.0202,0.0504,0.0671,0.0941,0.1272,0.1672,0.2091,0.2567,0.3118,0.4248,0.0,0.0,0.0,0.0,0.0,0.0,0.0,0.0,0.0,0.8358,0.7891,0.0,0.7278,0.0,0.5311,0.5251,0.5966,0.5826,0.0,0.0,0.6851,0.7091,0.7784,0.7785,0.7687,0.7648,0.7833,0.7837,0.7583,0.7759,0.7814,0.7641,0.8111,0.8643,0.9056,0.8943,0.8984,0.9248,0.9039,0.8878,0.9016,0.8886,0.8773,0.8822,0.8529,0.8291,0.834,0.825,0.8275,0.8504,0.8926,0.9448,0.9991,1.0127,1.0166,1.039,1.0418,1.0312,0.9941,0.998,0.9961,0.8443,1.1511,0.3924,-0.0913,-0.3438,-0.2507,-0.2276,-0.2543,-0.2301,-0.2338,-0.2607,-0.2812,-0.3463,-0.4381,-0.5658,-0.6146,-0.6065,-0.6617,-0.6579,-0.6005,-0.6392,-0.6536,-0.6467,-0.6301,-0.6772,-0.7733,-0.7598,-0.7816,-0.8294,-0.8302,-0.7721,-0.6584,-0.6149,-0.5314,-0.4137,-0.4587,-0.4307,-0.3143,-0.2682,-0.22,-0.1707,-0.1108,-0.0638,-0.0201,0.087,0.1373,0.1235,0.1671,0.212,0.2509,0.2713,0.308,0.3688,0.4426,0.47,0.0,0.0,0.0,0.0,0.0,0.0,0.0,0.0,0.0,0.0,0.0,0.7135,0.6156,0.535,0.5166,0.5903,0.5828,0.5992,0.6662,0.6663,0.6915,0.7574,0.7474,0.7346,0.7441,0.7554,0.7549,0.7382,0.7554,0.7663,0.7572,0.8028,0.8406,0.8602,0.8627,0.87,0.8765,0.8643,0.8521,0.8692,0.857,0.8529,0.8627,0.8422,0.8216,0.8167,0.8242,0.8357,0.8578,0.911,0.9686,1.0127,1.0283,1.0283,1.0322,1.0351,1.0235,0.9902,0.9902,0.9823,0.7786,0.8324,0.4125,0.016,-0.3344,-0.352,-0.3368,-0.3025,-0.3381,-0.3483,-0.3496,-0.4074,-0.439,-0.4552,-0.5676,-0.607,-0.5895,-0.6979,-0.6842,-0.5763,-0.6591,-0.6839,-0.6607,-0.6845,-0.7297,-0.7865,-0.8222,-0.8287,-0.8193,-0.8198,-0.7908,-0.7275,-0.71,-0.6197,-0.4701,-0.4152,-0.324,-0.1971,-0.1447,-0.1016,-0.0578,-0.0439,-0.0268,0.0067,0.1769,0.2606,0.2461,0.2695,0.3135,0.3787,0.3735,0.3922,0.4558,0.4643,0.4791,0.0,0.5545,0.0,0.0,0.0,0.0,0.0,0.0,0.0,0.0,0.7437,0.7016,0.6581,0.5557,0.5131,0.5585,0.5823,0.6062,0.6357,0.6555,0.6841,0.7287,0.7154,0.7112,0.7335,0.7293,0.7251,0.7363,0.7412,0.7503,0.7628,0.7878,0.8002,0.7919,0.8201,0.8406,0.825,0.8406,0.8521,0.848,0.8365,0.8291,0.8332,0.8216,0.8085,0.7961,0.8324,0.8561,0.8496,0.9262,1.001,0.9932,1.0244,1.039,1.0196,1.0196,1.0166,1.0019,0.9832,0.9713,0.4858,0.9297,0.398,0.1742,0.1506,-0.2894,-0.4504,-0.4133,-0.4456,-0.4708,-0.493,-0.5303,-0.5879,-0.6518,-0.6365,-0.6889,-0.7903,-0.7939,-0.7947,-0.7797,-0.7769,-0.7758,-0.7717,-0.7766,-0.7752,-0.7764,-0.8166,-0.823,-0.7964,-0.8246,-0.7764,-0.6592,-0.6129,-0.5235,-0.3978,0.0,0.0,0.0,-0.1,-0.0823,-0.0,0.0206,0.0536,0.1003,0.2142,0.0,0.3175,0.3097,0.303,0.3039,0.3549,0.0,0.0,0.0,0.0,0.0,0.0,0.0,0.0,0.0,0.0,0.0,0.6083,0.6137,0.6308,0.623,0.6168,0.6113,0.5846,0.5669,0.5598,0.561,0.5789,0.633,0.6442,0.6633,0.7029,0.7118,0.716,0.707,0.7245,0.7335,0.73,0.7461,0.7587,0.7545,0.7953,0.8126,0.7795,0.8167,0.8447,0.848,0.8561,0.8602,0.8447,0.8373,0.8291,0.8258,0.7961,0.7927,0.8085,0.8085,0.8283,0.8504,0.8967,0.9368,0.9567,0.9744,0.9892,0.9746,0.9843,0.9941,0.998,0.9832,0.9674,0.1548,0.0,-0.0025,-0.165,0.0,-0.3673,-0.4958,-0.5124,-0.527,-0.5531,-0.5898,-0.6593,-0.6859,-0.6821,-0.6907,-0.7446,-0.8193,-0.7946,-0.7897,-0.807,-0.8152,-0.8028,-0.7697,-0.7953,-0.8026,-0.7864,-0.8135,-0.823,-0.8039,-0.8057,-0.7706,-0.703,-0.6501,-0.5856,-0.5045,-0.4618,-0.3343,-0.1134,-0.1145,-0.084,-0.0274,0.0336,0.0718,0.0942,0.0,0.0,0.0,0.0,0.0,0.0,0.0,0.0,0.0,0.0,0.0,0.5228,0.5568,0.5751,0.5595,0.5518,0.5554,0.5765,0.5721,0.5793,0.6072,0.6007,0.5909,0.5891,0.5819,0.5664,0.5402,0.5474,0.5711,0.6046,0.6241,0.6419,0.667,0.6865,0.695,0.6999,0.7245,0.737,0.7363,0.7538,0.767,0.767,0.7878,0.8044,0.8002,0.8283,0.8521,0.8602,0.857,0.8529,0.8406,0.8283,0.816,0.8002,0.7878,0.7878,0.8044,0.8118,0.8316,0.8675,0.8958,0.9248,0.9567,0.9646,0.9637,0.9725,0.9813,0.9862,0.9872,0.9793,0.9674,-0.1861,-0.0178,-0.3853,-0.4905,-0.411,-0.4564,-0.5187,-0.5916,0.0,0.0,0.0,-0.7653,-0.7612,-0.7029,-0.7356,-0.7702,-0.8077,-0.7863,-0.7814,-0.7938,-0.8275,-0.8118,-0.7621,-0.7953,-0.8088,-0.7962,-0.8102,-0.8118,-0.8074,-0.7787,-0.765,-0.7621,-0.7083,-0.6617,-0.6196,-0.5503,-0.4201,-0.2408,-0.1659,-0.1089,-0.0755,0.0319,0.0835,0.0725,0.1924,0.2658,0.2952,0.3228,0.3547,0.3988,0.4264,0.4648,0.5188,0.5689,0.5789,0.5439,0.5554,0.557,0.5403,0.5339,0.5377,0.5517,0.5435,0.5651,0.6233,0.6144,0.6006,0.5902,0.5729,0.5523,0.5288,0.5462,0.5711,0.5902,0.6097,0.6313,0.6538,0.6653,0.6852,0.6992,0.7251,0.7454,0.7482,0.7663,0.7795,0.7878,0.7961,0.8002,0.8258,0.8447,0.8561,0.8683,0.857,0.8414,0.8373,0.816,0.7946,0.7787,0.7836,0.7878,0.7953,0.8242,0.8521,0.8626,0.903,0.9319,0.9496,0.9607,0.9637,0.9695,0.9902,0.999,0.9793,0.9832,0.9734,-0.5224,-0.3818,-0.3126,-0.2217,-0.148,-0.4152,-0.5672,-0.639,-0.7364,-0.7929,-0.8184,-0.8047,-0.8358,-0.8812,-0.7366,-0.751,-0.8975,-0.8839,-0.8757,0.0,-0.857,-0.8431,-0.8349,-0.8152,-0.7916,-0.7757,-0.791,-0.7855,-0.7694,-0.7587,-0.7545,-0.7447,-0.6829,-0.611,-0.5486,-0.501,-0.4316,-0.339,-0.245,-0.1618,-0.0963,0.0423,0.1316,0.1701,0.2332,0.2701,0.2812,0.3301,0.3595,0.3672,0.414,0.4552,0.4845,0.5201,0.5498,0.5679,0.5302,0.5125,0.5349,0.4882,0.4657,0.4887,0.4952,0.5345,0.6111,0.6165,0.6208,0.6222,0.5955,0.5795,0.5785,0.5801,0.5943,0.6331,0.641,0.6611,0.6999,0.6992,0.707,0.7286,0.7377,0.7454,0.7565,0.7773,0.7946,0.7995,0.8193,0.857,0.8667,0.861,0.861,0.8781,0.8651,0.8488,0.8332,0.8126,0.7912,0.7878,0.7795,0.7829,0.7987,0.8201,0.8414,0.8332,0.8805,0.9047,0.8822,0.9377,0.9616,0.9496,0.9813,1.0127,0.999,0.998,0.9883,-0.8999,-0.7546,-0.7153,-0.596,-0.4447,-0.6569,-0.7501,-0.7629,-0.8604,-0.8849,-0.8584,-0.8907,-0.891,-0.8537,-0.7881,-0.7962,-0.8699,-0.8521,-0.8578,-0.8781,-0.861,-0.839,-0.8226,-0.8028,-0.7919,-0.7782,-0.7665,-0.7658,-0.7709,-0.7369,-0.7189,-0.7112,-0.6179,-0.5534,-0.5173,-0.4705,-0.423,-0.3646,-0.2647,-0.1648,-0.0564,0.0163,0.0856,0.1555,0.1817,0.2074,0.2317,0.2679,0.2976,0.315,0.3658,0.4043,0.4371,0.4884,0.5264,0.539,0.4884,0.482,0.5383,0.4947,0.4731,0.49,0.5152,0.5533,0.6092,0.6058,0.6085,0.6253,0.6233,0.6289,0.6289,0.6288,0.6425,0.6761,0.6689,0.6774,0.7118,0.7238,0.7314,0.7412,0.767,0.7836,0.7863,0.8077,0.8234,0.8234,0.8472,0.8602,0.8667,0.8651,0.8643,0.8773,0.8683,0.848,0.8201,0.8028,0.7912,0.7836,0.7829,0.7912,0.807,0.825,0.825,0.8258,0.861,0.8765,0.861,0.9208,0.9536,0.9634,0.9892,1.0127,0.995,0.9872,0.9823,-1.1752,-1.0166,-1.0674,-0.9558,-0.7596,-0.8849,-0.9047,-0.8567,-0.9497,-0.9559,-0.9079,-0.9653,-0.9328,-0.8472,-0.8659,-0.8691,-0.8496,-0.8349,-0.8431,-0.8683,-0.8561,-0.8357,-0.8062,-0.7863,-0.7787,-0.7746,-0.7447,-0.7405,-0.7621,-0.7091,-0.6761,-0.6568,-0.5615,-0.5091,-0.5087,-0.4487,-0.4057,-0.3734,-0.2822,-0.1709,-0.0489,-0.0084,0.0484,0.1184,0.1375,0.1573,0.1936,0.2256,0.2552,0.28,0.3237,0.3658,0.4021,0.4596,0.4973,0.5074,0.4628,0.4564,0.5068,0.5074,0.4944,0.4882,0.5282,0.5658,0.5974,0.6009,0.6097,0.6348,0.6632,0.6748,0.6807,0.6791,0.693,0.7224,0.714,0.7231,0.7454,0.7614,0.769,0.7704,0.801,0.825,0.8291,0.8373,0.8496,0.857,0.861,0.857,0.8488,0.8602,0.8683,0.8643,0.8643,0.8521,0.8118,0.8021,0.7946,0.7836,0.7953,0.8077,0.8209,0.825,0.825,0.8291,0.8529,0.8724,0.8854,0.9288,0.9616,0.9753,1.0098,1.0283,1.001,0.9902,0.9832,-1.2191,-1.08,-1.0635,-0.9509,-0.8134,-0.9437,-0.9372,-0.8604,-0.9753,-1.0186,-0.9845,-0.9774,-0.9683,-0.9554,-0.9576,-0.9408,-0.9088,-0.9088,-0.8926,-0.8683,-0.8488,-0.8373,-0.8291,-0.7753,-0.7489,-0.7482,-0.7043,-0.6972,-0.7258,-0.6793,-0.641,-0.6062,-0.5432,-0.513,-0.5082,-0.4287,-0.391,-0.4056,-0.3125,-0.2137,-0.1103,-0.0158,0.0641,0.1218,0.1569,0.1869,0.2104,0.2594,0.283,0.2851,0.327,0.3723,0.4108,0.4269,0.4596,0.5182,0.4788,0.4462,0.4436,0.4922,0.5074,0.4628,0.5014,0.5419,0.5801,0.6078,0.646,0.6826,0.6974,0.712,0.7363,0.7294,0.7467,0.8039,0.8047,0.8144,0.8275,0.8398,0.8398,0.8332,0.8299,0.8373,0.8447,0.857,0.8683,0.8773,0.879,0.8741,0.8643,0.8643,0.8651,0.8496,0.8455,0.8447,0.8357,0.8193,0.807,0.8126,0.8167,0.825,0.834,0.8406,0.8439,0.8447,0.8846,0.9088,0.9088,0.9408,1.001,1.001,1.0244,1.0505,1.0341,1.0273,1.0166,-1.2026,-1.1088,-1.147,-1.0976,-1.0109,-1.0339,-1.0028,-0.9417,-1.007,-1.0273,-1.0049,-0.9862,-0.9664,-0.9496,-0.9695,-0.9545,-0.9033,-0.9033,-0.8862,-0.8602,-0.8488,-0.8234,-0.7863,-0.7614,-0.7363,-0.7182,-0.6852,-0.6816,-0.6943,-0.6575,-0.6019,-0.5404,-0.4783,-0.4565,-0.4648,-0.3803,-0.3644,-0.4284,-0.3609,-0.25,-0.1066,-0.0041,0.0803,0.1424,0.1711,0.1974,0.2316,0.2713,0.3,0.3199,0.3434,0.3761,0.421,0.4248,0.4403,0.4788,0.4953,0.4762,0.4344,0.4985,0.5408,0.53,0.5561,0.5922,0.657,0.6767,0.7038,0.7419,0.753,0.7572,0.7739,0.7938,0.8211,0.8464,0.8423,0.8472,0.8765,0.8561,0.8414,0.8299,0.8209,0.8234,0.8447,0.8692,0.8846,0.8814,0.8822,0.883,0.8643,0.8602,0.861,0.8659,0.8578,0.8357,0.8267,0.8308,0.8275,0.825,0.8291,0.8414,0.8414,0.8529,0.8602,0.8602,0.9088,0.9399,0.9319,0.9755,1.0264,1.0273,1.039,1.0611,1.0687,1.0495,1.0351,-1.2012,-1.1359,-1.171,-1.1611,-1.1148,-1.0698,-1.0271,-0.9913,-1.007,-1.0156,-1.0079,-0.9892,-0.9655,-0.9328,-0.9567,-0.9377,-0.8992,-0.8862,-0.87,-0.8447,-0.8357,-0.807,-0.7523,-0.7363,-0.7147,-0.6901,-0.6617,-0.6532,-0.6605,-0.6355,-0.5744,-0.4961,-0.4303,-0.4089,-0.4176,-0.3385,-0.3347,-0.3924,-0.3337,-0.2166,-0.0756,0.0252,0.1039,0.1621,0.1863,0.2206,0.2676,0.2913,0.3216,0.3517,0.363,0.3858,0.4248,0.4253,0.4312,0.4494,0.4915,0.4953,0.4409,0.4985,0.5455,0.5705,0.5943,0.643,0.7075,0.7351,0.7648,0.7995,0.8167,0.8283,0.8324,0.8561,0.8805,0.8886,0.8837,0.8886,0.9016,0.8814,0.8651,0.8414,0.8316,0.8267,0.8488,0.8773,0.8935,0.8814,0.8822,0.879,0.8561,0.8561,0.8643,0.8781,0.8651,0.848,0.8267,0.839,0.8439,0.8365,0.8406,0.8439,0.8447,0.8643,0.8773,0.8854,0.9328,0.9646,0.9755,1.0147,1.0495,1.0505,1.0621,1.0736,1.0774,1.0659,1.0611,-1.2438,-1.1306,-1.0796,-1.0619,-1.0612,-1.0251,-0.9893,-0.9533,-0.962,-0.9827,-1.006,-1.0019,-0.9704,-0.9217,-0.9288,-0.9199,-0.8975,-0.8765,-0.8529,-0.8209,-0.8044,-0.778,-0.7474,-0.7118,-0.6781,-0.652,-0.6233,-0.6024,-0.5852,-0.589,-0.562,-0.4778,-0.4077,-0.3778,-0.3788,-0.3255,-0.2943,-0.2976,-0.2031,-0.0999,-0.0252,0.0793,0.1442,0.1683,0.2104,0.2624,0.3098,0.3371,0.3517,0.3616,0.3761,0.4021,0.4248,0.4188,0.4253,0.45,0.4788,0.482,0.4666,0.494,0.5196,0.5368,0.6055,0.6593,0.7165,0.7732,0.8144,0.8373,0.8781,0.9056,0.9056,0.9016,0.9136,0.9395,0.9457,0.9359,0.9217,0.9279,0.9257,0.8952,0.8732,0.8643,0.8675,0.8846,0.8943,0.8903,0.8911,0.8822,0.8602,0.8594,0.8635,0.8643,0.8643,0.8675,0.8675,0.8635,0.8602,0.857,0.857,0.8521,0.8602,0.8724,0.8895,0.9177,0.9686,1.0079,1.0244,1.0438,1.0631,1.0736,1.085,1.0964,1.0975,1.0926,1.0954,-1.2504,-1.1521,-1.0551,-1.0164,-1.0147,-0.9554,-0.9273,-0.9281,-0.9477,-0.9808,-0.9992,-0.9813,-0.9567,-0.9368,-0.8967,-0.8692,-0.8488,-0.8496,-0.8365,-0.8077,-0.7878,-0.7587,-0.7286,-0.695,-0.6611,-0.6313,-0.6105,-0.5895,-0.5674,-0.5399,-0.4826,-0.4128,-0.3778,-0.3476,-0.3173,-0.3126,-0.2953,-0.2492,-0.1539,-0.0456,0.0628,0.1428,0.1815,0.1928,0.2338,0.273,0.3195,0.3419,0.3624,0.3808,0.3896,0.4091,0.4382,0.435,0.4415,0.4672,0.4864,0.496,0.494,0.5509,0.6044,0.6392,0.6789,0.7363,0.7904,0.8171,0.8332,0.87,0.8984,0.9217,0.9386,0.9435,0.9515,0.9594,0.9674,0.9695,0.9695,0.9527,0.9248,0.9177,0.9007,0.8926,0.9016,0.9096,0.9105,0.8984,0.8952,0.8822,0.8724,0.8773,0.8822,0.8781,0.8895,0.8975,0.8822,0.8822,0.8822,0.8822,0.8781,0.8781,0.8862,0.9217,0.9457,0.9616,1.0118,1.0467,1.0631,1.0784,1.0947,1.1088,1.1201,1.1191,1.1212,1.1341,1.1479,-1.2147,-1.1437,-1.0151,-0.9721,-0.9796,-0.906,-0.8846,-0.9124,-0.9419,-0.9686,-0.9787,-0.9527,-0.9328,-0.9088,-0.861,-0.8283,-0.8126,-0.8209,-0.816,-0.7946,-0.7704,-0.7419,-0.7118,-0.6781,-0.6435,-0.6142,-0.5976,-0.5674,-0.5275,-0.4918,-0.4264,-0.3388,-0.3211,-0.299,-0.2687,-0.2637,-0.242,-0.1934,-0.1111,-0.0,0.1111,0.1688,0.2022,0.2224,0.2477,0.2782,0.3159,0.346,0.3664,0.3832,0.3961,0.4156,0.4479,0.4576,0.4704,0.4966,0.5017,0.5081,0.5272,0.5875,0.6456,0.6998,0.7439,0.7976,0.8626,0.87,0.883,0.9065,0.9266,0.9466,0.9594,0.9713,0.9793,0.9723,0.9753,0.9774,0.9843,0.9527,0.9328,0.9279,0.9168,0.9136,0.9217,0.9257,0.9217,0.9128,0.9056,0.8975,0.8926,0.8975,0.9024,0.9024,0.9065,0.9105,0.9073,0.9024,0.8943,0.8935,0.9065,0.9065,0.9226,0.9625,0.9971,1.0166,1.0438,1.0784,1.1012,1.1136,1.1287,1.1437,1.1463,1.1442,1.1601,1.187,1.1957,-1.133,-1.0911,-0.9587,-0.9326,-0.9573,-0.8892,-0.8752,-0.9124,-0.9346,-0.9393,-0.9341,-0.9217,-0.8935,-0.8496,-0.8332,-0.8085,-0.7953,-0.7987,-0.7987,-0.787,-0.7538,-0.7286,-0.7021,-0.6568,-0.6233,-0.5933,-0.5766,-0.5231,-0.4565,-0.4478,-0.3913,-0.2904,-0.2546,-0.2462,-0.2382,-0.188,-0.1564,-0.1373,-0.0573,0.0341,0.099,0.1598,0.2034,0.2374,0.2597,0.2836,0.3093,0.3436,0.3647,0.3733,0.3928,0.4188,0.457,0.48,0.5087,0.5264,0.5194,0.5327,0.5666,0.5911,0.6376,0.6986,0.7733,0.8329,0.869,0.9217,0.9506,0.9448,0.9616,0.9783,0.9783,0.9971,0.9971,0.9762,0.9793,0.9704,0.9527,0.9469,0.9478,0.9359,0.9328,0.9279,0.9288,0.9368,0.9408,0.9328,0.9248,0.9248,0.9168,0.9217,0.9248,0.9217,0.9226,0.9306,0.9274,0.9274,0.9145,0.9056,0.9217,0.9337,0.9576,0.9922,1.0273,1.0505,1.0899,1.1201,1.1341,1.1463,1.1538,1.1638,1.1664,1.1799,1.2029,1.2246,1.2425,-1.0465,-1.034,-0.9626,-0.9418,-0.952,-0.8818,-0.8714,-0.905,-0.8901,-0.8935,-0.9004,-0.8805,-0.861,-0.8365,-0.8152,-0.7953,-0.7753,-0.7795,-0.7787,-0.767,-0.7321,-0.7112,-0.6894,-0.6307,-0.5804,-0.5545,-0.5415,-0.5009,-0.4434,-0.3997,-0.3344,-0.2815,-0.2593,-0.2464,-0.2245,-0.2059,-0.1679,-0.0772,-0.0,0.0796,0.1573,0.2015,0.2337,0.2529,0.2709,0.2943,0.3145,0.3419,0.3632,0.3798,0.3993,0.4253,0.4672,0.4858,0.5074,0.5358,0.539,0.5627,0.6142,0.6471,0.6861,0.7462,0.8171,0.8598,0.874,0.9306,0.9585,0.9448,0.9616,0.9783,0.9862,1.0088,1.0127,0.9971,1.0088,1.0079,0.9922,0.9853,0.9774,0.9695,0.9655,0.9616,0.9576,0.9616,0.9496,0.9466,0.9377,0.9319,0.9328,0.9457,0.9496,0.9408,0.9448,0.9496,0.9496,0.9545,0.9536,0.9527,0.9646,0.9725,0.9961,1.0225,1.0572,1.0916,1.1266,1.1538,1.1675,1.1748,1.1822,1.1993,1.2138,1.2282,1.2461,1.2638,1.2849,-1.0698,-1.0547,-0.9575,-0.9281,-0.9402,-0.8838,-0.88,-0.9021,-0.8835,-0.8841,-0.882,-0.8472,-0.8283,-0.816,-0.7904,-0.7746,-0.767,-0.767,-0.767,-0.7545,-0.716,-0.6943,-0.6768,-0.583,-0.5226,-0.4966,-0.4705,-0.4395,-0.3993,-0.3429,-0.2857,-0.2284,-0.2239,-0.2105,-0.1841,-0.1611,-0.0967,0.0172,0.0688,0.1263,0.1871,0.2249,0.2518,0.2664,0.2857,0.3038,0.3246,0.3457,0.363,0.3831,0.4058,0.442,0.4838,0.4992,0.5207,0.5491,0.5638,0.588,0.6476,0.683,0.7292,0.7893,0.8556,0.895,0.8999,0.9417,0.9536,0.9527,0.9655,0.9783,0.9932,1.0205,1.0322,1.0118,1.0235,1.0312,1.0166,0.9932,0.9823,0.9774,0.9774,0.9774,0.9783,0.9783,0.9674,0.9634,0.9616,0.9558,0.9567,0.9695,0.9695,0.9686,0.9655,0.9695,0.9725,0.9804,0.9932,1.004,1.0147,1.0225,1.0341,1.0687,1.1029,1.1292,1.1638,1.1822,1.1968,1.2041,1.2102,1.2318,1.2651,1.2743,1.2883,1.3126,1.331,-1.1606,-1.1256,-0.9552,-0.905,-0.9301,-0.8976,-0.8911,-0.9026,-0.9042,-0.8901,-0.8602,-0.8226,-0.7979,-0.787,-0.7579,-0.7545,-0.7628,-0.7587,-0.7496,-0.7286,-0.695,-0.6696,-0.6386,-0.5265,-0.4657,-0.4395,-0.3957,-0.3605,-0.3293,-0.2857,-0.2237,-0.1612,-0.1658,-0.1526,-0.1348,-0.0716,-0.0045,0.089,0.1294,0.1632,0.2049,0.2393,0.2653,0.2847,0.3025,0.3177,0.3408,0.3569,0.3667,0.3803,0.4226,0.4608,0.496,0.5182,0.5467,0.5795,0.5833,0.6136,0.6656,0.7008,0.7451,0.8175,0.8788,0.9217,0.9248,0.9408,0.9646,0.9734,0.9793,0.9872,1.0127,1.039,1.0428,1.0235,1.0235,1.0205,1.0059,0.9686,0.9686,0.9902,0.9774,0.9646,0.998,0.998,0.9902,0.9862,0.9932,0.9883,0.9892,0.9932,0.9971,0.9971,0.9922,1.0,1.004,1.0186,1.0351,1.0611,1.0753,1.0867,1.0905,1.1207,1.1431,1.17,1.1957,1.215,1.2294,1.2365,1.2675,1.3104,1.3243,1.3235,1.3518,1.3912,1.3984,-1.0643,-1.0132,-0.9704,-0.9591,-0.9598,-0.9284,-0.9147,-0.9077,-0.8795,-0.857,-0.8324,-0.8103,-0.7863,-0.7712,-0.7496,-0.7377,-0.7335,-0.7167,-0.7034,-0.6816,-0.6441,-0.6099,-0.5701,-0.4918,-0.4351,-0.4132,-0.3737,-0.33,-0.2632,-0.2366,-0.1925,-0.1433,-0.1569,-0.1658,-0.1479,-0.0895,-0.0268,0.0537,0.1479,0.2043,0.2478,0.2827,0.3089,0.324,0.3438,0.3555,0.3621,0.3819,0.3999,0.4226,0.4517,0.48,0.5074,0.5264,0.5505,0.5751,0.5924,0.6169,0.6663,0.7093,0.7617,0.8302,0.8859,0.9226,0.9208,0.9536,0.9734,0.9813,0.9892,1.0049,1.0312,1.0467,1.0505,1.0467,1.0312,1.0235,1.0312,1.0118,1.0,1.0166,1.0127,1.0079,1.0079,1.0098,1.0059,1.001,1.0049,1.0118,1.0127,1.0205,1.0312,1.0273,1.0273,1.0351,1.0428,1.0572,1.0802,1.1132,1.1394,1.1653,1.1689,1.1847,1.1993,1.2138,1.233,1.252,1.2674,1.278,1.3281,1.39,1.3877,1.393,1.4699,1.5211,1.4964,-1.0651,-1.015,-0.9734,-0.9583,-0.9549,-0.9368,-0.9208,-0.9056,-0.8724,-0.8439,-0.8167,-0.7904,-0.7697,-0.7468,-0.7202,-0.7076,-0.7047,-0.6823,-0.6647,-0.6343,-0.5475,-0.5048,-0.4744,-0.4089,-0.3693,-0.3829,-0.3164,-0.2857,-0.2635,-0.2101,-0.1746,-0.1569,-0.1299,-0.1074,-0.0895,-0.0582,0.0089,0.0851,0.1612,0.218,0.271,0.3058,0.3258,0.3471,0.3708,0.3822,0.3858,0.4053,0.4294,0.4507,0.4672,0.489,0.5289,0.5352,0.5578,0.5938,0.6108,0.6376,0.7018,0.7364,0.7843,0.8496,0.8943,0.9217,0.9377,0.9576,0.9616,1.001,0.9922,1.004,1.0273,1.039,1.0428,1.0438,1.0312,1.0264,1.0495,1.0225,1.0196,1.0244,1.0244,1.0235,1.0225,1.0273,1.0283,1.0244,1.0351,1.0351,1.0351,1.0495,1.0572,1.0544,1.0572,1.0649,1.0764,1.0878,1.1319,1.1653,1.2219,1.2496,1.2318,1.2413,1.2437,1.2544,1.2757,1.2994,1.3318,1.3657,1.4159,1.4527,1.4537,1.4919,1.5662,1.6107,1.5903,-1.1091,-1.0651,-0.9638,-0.923,-0.9301,-0.9217,-0.9096,-0.8935,-0.8724,-0.8439,-0.8036,-0.7648,-0.7363,-0.7125,-0.6872,-0.6738,-0.6787,-0.652,-0.6173,-0.5561,-0.4557,-0.3818,-0.4001,-0.312,-0.3031,-0.3341,-0.2279,-0.237,-0.2504,-0.188,-0.1614,-0.1569,-0.0851,-0.0268,-0.0268,0.0045,0.0716,0.1478,0.1792,0.2253,0.2775,0.3122,0.3387,0.3652,0.3898,0.4081,0.4183,0.4368,0.4607,0.4875,0.471,0.5011,0.5515,0.5484,0.5727,0.6175,0.6321,0.6714,0.7448,0.7609,0.7992,0.8683,0.8943,0.9257,0.9585,0.9536,0.9567,1.0059,0.9765,0.9755,1.0069,1.0108,1.0205,1.0244,1.0244,1.0312,1.038,1.0273,1.0205,1.0322,1.0273,1.0302,1.0418,1.0534,1.0621,1.0438,1.0544,1.0659,1.0697,1.0812,1.0812,1.0746,1.0812,1.0916,1.1067,1.1207,1.1715,1.2246,1.3009,1.3328,1.285,1.2803,1.284,1.2995,1.3332,1.3808,1.4351,1.4725,1.5112,1.5488,1.5716,1.6091,1.6573,1.678,1.6733,-1.0318,-0.96,-0.9379,-0.9248,-0.9208,-0.9226,-0.9007,-0.8773,-0.8529,-0.8152,-0.7697,-0.737,-0.7076,-0.6774,-0.6587,-0.6422,-0.6313,-0.6002,-0.5567,-0.46,-0.3416,-0.2981,-0.3031,-0.246,-0.2546,-0.2815,-0.2504,-0.2239,-0.2109,-0.166,-0.1254,-0.1389,-0.0895,-0.0537,-0.0134,0.0179,0.0581,0.1518,0.201,0.2448,0.2912,0.3325,0.3581,0.3871,0.4102,0.4392,0.4611,0.4795,0.5018,0.519,0.5118,0.5113,0.5404,0.5474,0.5737,0.6127,0.6456,0.6812,0.7332,0.7769,0.8132,0.8699,0.9016,0.9315,0.9643,0.9496,0.9487,0.9695,0.9506,0.9487,0.9785,0.9991,1.0118,1.0166,1.0283,1.0467,1.0697,1.0621,1.0544,1.0669,1.0774,1.0791,1.0746,1.0926,1.0888,1.0659,1.0736,1.0926,1.105,1.1126,1.1126,1.105,1.1153,1.1292,1.1505,1.1752,1.2294,1.2864,1.3649,1.3994,1.3501,1.3503,1.3664,1.3829,1.3993,1.4539,1.5201,1.5625,1.5955,1.6428,1.6931,1.7236,1.7523,1.7612,1.7763,-1.0079,-0.9248,-0.9136,-0.9056,-0.9016,-0.8886,-0.8765,-0.8529,-0.8283,-0.7912,-0.7447,-0.7167,-0.6872,-0.6568,-0.6331,-0.6153,-0.5879,-0.5351,-0.447,-0.3419,-0.2541,-0.2254,-0.2052,-0.2035,-0.2205,-0.2741,-0.2484,-0.2301,-0.2111,-0.131,-0.085,-0.1252,-0.0537,0.0134,0.0358,0.0582,0.1206,0.1875,0.2277,0.2635,0.3173,0.3442,0.3884,0.418,0.4517,0.4772,0.4979,0.5319,0.5488,0.5562,0.5469,0.5418,0.5561,0.5637,0.592,0.6391,0.6716,0.7188,0.7674,0.8011,0.8349,0.8814,0.9088,0.9368,0.9576,0.9478,0.9448,0.9536,0.9457,0.9368,0.9755,1.0176,1.0302,1.0351,1.0544,1.0812,1.0954,1.0916,1.0888,1.1061,1.1136,1.1136,1.1174,1.1276,1.1239,1.1061,1.1105,1.1266,1.1287,1.14,1.1474,1.1501,1.1575,1.1712,1.1945,1.233,1.2906,1.3509,1.4158,1.4346,1.4126,1.4311,1.4612,1.4669,1.4721,1.5332,1.5928,1.6336,1.6959,1.7595,1.8049,1.8341,1.8481,1.8528,1.8767,-1.0,-0.9257,-0.8984,-0.8822,-0.8683,-0.8521,-0.8406,-0.825,-0.7953,-0.7628,-0.7293,-0.6956,-0.6623,-0.6325,-0.6062,-0.5841,-0.5351,-0.4517,-0.3419,-0.2497,-0.2055,-0.1634,-0.1383,-0.1563,-0.198,-0.2701,-0.2553,-0.255,-0.2089,-0.119,-0.0723,-0.0895,0.0134,0.0717,0.0985,0.1343,0.1834,0.2455,0.2591,0.286,0.3353,0.3575,0.3965,0.457,0.4952,0.5217,0.5437,0.5769,0.6042,0.5964,0.5907,0.5957,0.6014,0.6036,0.6222,0.6846,0.716,0.76,0.8061,0.8398,0.8692,0.9065,0.9288,0.9478,0.9667,0.9637,0.9567,0.9607,0.9607,0.9716,1.001,1.0495,1.0677,1.0725,1.0992,1.1217,1.1292,1.1217,1.1303,1.1325,1.14,1.1437,1.1448,1.1485,1.1448,1.1485,1.1527,1.159,1.1612,1.1708,1.1844,1.1943,1.2052,1.2354,1.2626,1.2916,1.3501,1.3973,1.4641,1.4787,1.4874,1.5626,1.5909,1.5387,1.5517,1.6214,1.6898,1.7464,1.8115,1.8774,1.8907,1.8904,1.9096,1.9362,1.9609,-0.9716,-0.9664,-0.9007,-0.8537,-0.8236,-0.8226,-0.8085,-0.7795,-0.7587,-0.7293,-0.6963,-0.6623,-0.6325,-0.6062,-0.5852,-0.5323,-0.4517,-0.3551,-0.276,-0.2101,-0.166,-0.1138,-0.1108,-0.1449,-0.1795,-0.204,-0.2326,-0.2388,-0.1893,-0.1248,-0.0639,-0.0225,0.0358,0.0805,0.1206,0.1428,0.2053,0.2812,0.2948,0.317,0.3486,0.3748,0.4136,0.487,0.525,0.5652,0.5993,0.6259,0.6492,0.671,0.668,0.6736,0.6757,0.6478,0.6567,0.6979,0.7516,0.7984,0.8391,0.8814,0.9128,0.9408,0.9607,0.9853,1.0,0.9892,0.9734,0.9892,1.0118,1.0264,0.9962,1.0743,1.1019,1.1067,1.1255,1.159,1.17,1.1774,1.1726,1.1675,1.1712,1.1723,1.1734,1.1771,1.1808,1.1844,1.1895,1.192,1.192,1.2077,1.2269,1.2413,1.252,1.2931,1.3331,1.3622,1.4013,1.4409,1.4943,1.5417,1.5839,1.7018,1.7241,1.6607,1.6718,1.7476,1.8106,1.8504,1.8817,1.9161,1.9265,1.9339,1.9508,1.9711,1.9925,-0.9567,-0.9332,-0.87,-0.8162,-0.7803,-0.7897,-0.7712,-0.7328,-0.7112,-0.6907,-0.6617,-0.627,-0.6013,-0.5793,-0.5318,-0.4526,-0.3463,-0.276,-0.2142,-0.1658,-0.1188,-0.0938,-0.0944,-0.1481,-0.1498,-0.1649,-0.2016,-0.2211,-0.162,-0.1103,-0.0411,0.0315,0.0806,0.1252,0.1741,0.2053,0.2455,0.3081,0.33,0.348,0.3751,0.4008,0.4574,0.512,0.5603,0.6007,0.6482,0.6724,0.699,0.7232,0.7158,0.7209,0.7198,0.7189,0.7149,0.7461,0.7904,0.8398,0.878,0.9177,0.9448,0.9734,0.9971,1.0088,1.0118,0.9922,0.9843,0.9922,1.0341,1.0677,1.0771,1.1308,1.1579,1.1763,1.1909,1.2102,1.2246,1.2354,1.2282,1.2126,1.2102,1.2066,1.1979,1.2052,1.2125,1.2197,1.2294,1.2282,1.227,1.2461,1.272,1.2988,1.3195,1.3501,1.3914,1.4163,1.4452,1.483,1.5361,1.5837,1.6474,1.75,1.7829,1.7555,1.8047,1.868,1.8665,1.8825,1.9177,1.9487,1.9581,1.9675,1.9854,2.0015,2.0292,-0.9377,-0.8913,-0.834,-0.7833,-0.7376,-0.7509,-0.7363,-0.6985,-0.6774,-0.6611,-0.6367,-0.5922,-0.5701,-0.5486,-0.4696,-0.3686,-0.245,-0.2097,-0.1654,-0.1304,-0.1151,-0.1005,-0.1171,-0.1403,-0.1574,-0.1267,-0.1377,-0.1645,-0.1209,-0.0692,0.0136,0.0851,0.1389,0.1791,0.2281,0.2591,0.304,0.3394,0.366,0.388,0.4144,0.4578,0.5096,0.5615,0.5973,0.6445,0.6862,0.7113,0.7351,0.7558,0.7606,0.7568,0.7694,0.7843,0.7991,0.8148,0.8455,0.8812,0.9168,0.9567,0.9873,1.0118,1.039,1.0457,1.0562,1.0552,1.035,1.0167,1.0695,1.1244,1.1542,1.1909,1.2174,1.2389,1.2532,1.2685,1.2768,1.2838,1.2861,1.2708,1.2555,1.2461,1.2437,1.2496,1.2603,1.2579,1.265,1.2826,1.2849,1.2953,1.3195,1.3622,1.3888,1.4163,1.4433,1.4592,1.4859,1.5133,1.5795,1.6421,1.7037,1.7794,1.8076,1.857,1.9064,1.9542,1.9371,1.9226,1.9581,1.9833,1.9874,2.0,2.0224,2.053,2.078,-0.8981,-0.8756,-0.816,-0.7592,-0.7099,-0.7085,-0.7034,-0.6865,-0.6605,-0.6489,-0.6325,-0.5707,-0.5437,-0.5091,-0.4081,-0.307,-0.223,-0.1609,-0.1299,-0.1123,-0.1325,-0.1457,-0.1478,-0.165,-0.1599,-0.1201,-0.0927,-0.0452,-0.0273,-0.0,0.0599,0.1396,0.1834,0.2235,0.264,0.2948,0.3306,0.3578,0.3888,0.428,0.4753,0.5318,0.575,0.6161,0.6613,0.7017,0.7217,0.7423,0.7665,0.7867,0.7949,0.8041,0.8261,0.8504,0.8666,0.8795,0.895,0.9088,0.9527,1.003,1.038,1.0611,1.0916,1.1207,1.1335,1.1605,1.1568,1.133,1.1836,1.2126,1.2198,1.2461,1.2685,1.2839,1.2981,1.3015,1.3119,1.3538,1.3534,1.3344,1.3216,1.3022,1.2908,1.3,1.3091,1.3069,1.3082,1.3254,1.3425,1.3514,1.3689,1.4117,1.4461,1.4711,1.5128,1.5256,1.5572,1.5743,1.6368,1.7075,1.7591,1.8312,1.9259,1.9743,2.0172,2.0311,2.0172,2.0104,2.0154,2.0204,2.0379,2.053,2.0679,2.0974,2.1308,-0.8013,-0.8144,-0.7787,-0.7398,-0.7036,-0.6972,-0.6865,-0.6617,-0.6398,-0.6227,-0.6013,-0.562,-0.5048,-0.426,-0.3334,-0.2497,-0.17,-0.1211,-0.0988,-0.1139,-0.1447,-0.169,-0.1617,-0.1791,-0.1748,-0.1292,-0.0743,-0.018,0.027,0.0681,0.1136,0.1846,0.2192,0.2546,0.2951,0.3258,0.3612,0.3968,0.4364,0.4849,0.5361,0.5787,0.6124,0.6537,0.6949,0.7264,0.7556,0.7588,0.7876,0.8123,0.8275,0.8398,0.8651,0.8886,0.9088,0.943,0.9677,0.9913,1.0147,1.0705,1.1019,1.1282,1.1579,1.1861,1.202,1.2283,1.2366,1.1875,1.2342,1.2638,1.2766,1.2941,1.3173,1.3373,1.3576,1.3676,1.3805,1.4111,1.4288,1.4072,1.3848,1.3648,1.348,1.3514,1.3535,1.3467,1.3535,1.3702,1.3901,1.4098,1.431,1.4627,1.493,1.5215,1.5703,1.6078,1.6555,1.6817,1.7304,1.7884,1.8161,1.8858,1.9797,2.0304,2.0429,2.0588,2.0813,2.0763,2.0597,2.073,2.0878,2.1055,2.1245,2.1491,2.1807,-0.716,-0.7587,-0.7419,-0.7202,-0.7021,-0.6937,-0.6647,-0.6276,-0.6184,-0.5922,-0.5529,-0.5183,-0.4303,-0.3249,-0.2672,-0.2053,-0.1211,-0.0899,-0.0899,-0.115,-0.1518,-0.1805,-0.1805,-0.1958,-0.1803,-0.1491,-0.0416,0.0269,0.0849,0.1256,0.1798,0.2286,0.2679,0.2948,0.3303,0.37,0.4096,0.4574,0.4893,0.5415,0.6013,0.6337,0.667,0.6989,0.7256,0.7576,0.7822,0.7926,0.8134,0.8334,0.8683,0.8886,0.8975,0.9297,0.9567,0.9972,1.0427,1.1004,1.1228,1.1571,1.1802,1.2103,1.2461,1.2834,1.2636,1.2916,1.3079,1.274,1.2916,1.3251,1.3365,1.3454,1.3689,1.4054,1.4441,1.4512,1.4614,1.4862,1.4889,1.4621,1.4399,1.4254,1.4124,1.4059,1.4026,1.3914,1.4,1.4149,1.4356,1.4606,1.4885,1.5145,1.5585,1.5901,1.6336,1.6832,1.7346,1.7897,1.8361,1.8687,1.8952,1.9421,2.021,2.0528,2.0735,2.1036,2.1337,2.1197,2.1055,2.126,2.143,2.1598,2.1823,2.2039,2.2198,-0.6865,-0.7419,-0.7251,-0.7118,-0.6985,-0.6787,-0.6398,-0.5927,-0.5976,-0.5583,-0.4927,-0.426,-0.347,-0.2497,-0.2144,-0.1655,-0.0944,-0.09,-0.1081,-0.135,-0.1673,-0.2018,-0.2089,-0.1989,-0.1628,-0.0949,-0.0,0.0851,0.1606,0.2144,0.2415,0.2551,0.3078,0.3439,0.3748,0.4144,0.4666,0.5145,0.5507,0.5981,0.6611,0.7056,0.7474,0.7565,0.7923,0.8193,0.7953,0.8212,0.844,0.857,0.9191,0.9491,0.9609,1.0108,1.0484,1.0843,1.1614,1.2165,1.2494,1.2657,1.2798,1.3085,1.3504,1.3868,1.3657,1.4044,1.4136,1.3848,1.3861,1.4007,1.3993,1.3967,1.4326,1.4855,1.5337,1.5446,1.5488,1.5482,1.549,1.5189,1.5065,1.5007,1.4879,1.4883,1.4516,1.4397,1.447,1.4627,1.4916,1.5174,1.54,1.5757,1.6275,1.6697,1.7031,1.7547,1.8206,1.8763,1.9248,1.9515,1.9736,2.0258,2.075,2.105,2.1301,2.1625,2.1836,2.1718,2.1688,2.1836,2.1982,2.2113,2.2215,2.2354,2.2426,-0.6738,-0.7083,-0.6865,-0.6823,-0.6914,-0.6623,-0.6276,-0.5927,-0.5755,-0.5318,-0.4618,-0.4045,-0.3296,-0.2541,-0.1878,-0.1479,-0.1034,-0.1167,-0.1363,-0.1664,-0.2009,-0.2332,-0.2401,-0.204,-0.1597,-0.0562,0.0411,0.1253,0.1966,0.2677,0.3075,0.33,0.3565,0.3748,0.406,0.4626,0.5183,0.5658,0.6136,0.6653,0.7237,0.7655,0.8021,0.8118,0.8406,0.8545,0.8422,0.8659,0.8854,0.927,0.9934,1.0329,1.0641,1.1337,1.1797,1.2107,1.2926,1.3408,1.3781,1.3918,1.4068,1.4306,1.4603,1.4741,1.4603,1.4878,1.4909,1.4786,1.4721,1.4847,1.5244,1.518,1.5349,1.5889,1.6235,1.6401,1.6457,1.6423,1.627,1.6097,1.6082,1.6067,1.5895,1.5703,1.5294,1.4896,1.4994,1.5163,1.5475,1.5801,1.6099,1.6548,1.7105,1.7729,1.8084,1.8609,1.9122,1.9593,2.0083,2.0258,2.0447,2.0858,2.1303,2.1598,2.1823,2.2027,2.2141,2.2198,2.2254,2.2281,2.2409,2.2571,2.2642,2.2659,2.2718,-0.6568,-0.6738,-0.6526,-0.6568,-0.6745,-0.6496,-0.6153,-0.5712,-0.5539,-0.4966,-0.4268,-0.3653,-0.299,-0.2322,-0.1701,-0.1345,-0.1167,-0.1259,-0.1506,-0.1798,-0.2096,-0.2235,-0.1961,-0.1423,-0.06,0.0139,0.0958,0.188,0.2502,0.3025,0.3426,0.3697,0.3921,0.41,0.436,0.5009,0.5701,0.6246,0.6598,0.7189,0.7699,0.7953,0.8013,0.8152,0.848,0.8901,0.9044,0.9455,0.9983,1.0479,1.1094,1.1656,1.2142,1.2651,1.3303,1.3728,1.4124,1.4553,1.4886,1.5079,1.5197,1.5375,1.5389,1.5448,1.5433,1.5463,1.5463,1.5492,1.5551,1.5843,1.6371,1.6203,1.6422,1.6937,1.7235,1.7383,1.7461,1.7483,1.7263,1.7079,1.6979,1.6784,1.6737,1.6474,1.6036,1.5558,1.5344,1.5654,1.6204,1.6533,1.6894,1.7425,1.8007,1.8639,1.9246,1.9624,1.9972,2.0162,2.0607,2.0878,2.1132,2.1493,2.1705,2.1895,2.2096,2.2354,2.248,2.2544,2.2588,2.2632,2.2738,2.2825,2.2799,2.2825,2.3023,-0.6349,-0.6477,-0.6313,-0.6307,-0.6483,-0.641,-0.5933,-0.5231,-0.5149,-0.4618,-0.3605,-0.2901,-0.2281,-0.1701,-0.1346,-0.1212,-0.1345,-0.1345,-0.1627,-0.2054,-0.205,-0.1585,-0.0816,-0.0182,0.059,0.1349,0.2061,0.2684,0.317,0.3466,0.3822,0.4144,0.4412,0.4583,0.4705,0.5399,0.6295,0.7085,0.7076,0.7503,0.7934,0.8118,0.8136,0.8326,0.8947,0.9594,1.005,1.0654,1.1235,1.186,1.257,1.3032,1.337,1.3728,1.4173,1.4518,1.4949,1.5344,1.566,1.5821,1.6024,1.6136,1.6022,1.5981,1.5839,1.5898,1.6146,1.6283,1.6619,1.6834,1.7029,1.7136,1.7558,1.7967,1.8273,1.8325,1.839,1.8419,1.8202,1.8043,1.7644,1.7325,1.7363,1.7239,1.6796,1.6323,1.5846,1.6112,1.6877,1.7515,1.796,1.8408,1.8999,1.9452,2.0051,2.0463,2.0782,2.0958,2.1119,2.137,2.1584,2.1823,2.2027,2.2209,2.2392,2.2588,2.2764,2.2893,2.2868,2.2842,2.2902,2.2952,2.2927,2.2928,2.3094,-0.6367,-0.6404,-0.605,-0.5964,-0.5976,-0.5933,-0.5588,-0.5058,-0.4443,-0.3825,-0.312,-0.2281,-0.1882,-0.157,-0.1391,-0.1345,-0.1615,-0.1927,-0.2209,-0.2653,-0.2234,-0.1467,-0.0504,0.0678,0.1701,0.2556,0.3185,0.3445,0.3796,0.3953,0.4216,0.4583,0.5019,0.5323,0.5577,0.6136,0.6937,0.7502,0.769,0.7942,0.8401,0.8766,0.8993,0.9223,1.0192,1.0957,1.1402,1.2095,1.2682,1.3185,1.3856,1.4359,1.4681,1.5022,1.556,1.5786,1.6083,1.6154,1.6541,1.6865,1.6991,1.6763,1.6615,1.655,1.6301,1.6877,1.7074,1.7293,1.7764,1.8188,1.8765,1.8573,1.8849,1.9241,1.9441,1.9256,1.9228,1.925,1.9161,1.9016,1.8723,1.8392,1.8282,1.8332,1.7968,1.7776,1.7425,1.7422,1.8034,1.8732,1.9278,1.9561,2.0019,2.0369,2.0767,2.1023,2.1229,2.1339,2.1554,2.1794,2.2015,2.2158,2.2439,2.2664,2.2763,2.2816,2.2893,2.297,2.302,2.3028,2.3052,2.314,2.3195,2.31,2.3022,-0.6147,-0.6062,-0.5798,-0.5626,-0.5545,-0.5588,-0.528,-0.4574,-0.3825,-0.3208,-0.2546,-0.1925,-0.1614,-0.1569,-0.1435,-0.1567,-0.1928,-0.2236,-0.2355,-0.2721,-0.185,-0.0873,0.0229,0.1454,0.2511,0.336,0.3803,0.4108,0.4064,0.4272,0.4739,0.5298,0.5701,0.6362,0.6784,0.7328,0.7551,0.7998,0.8218,0.8414,0.8928,0.9381,0.9695,1.044,1.1402,1.2484,1.2964,1.3538,1.411,1.4541,1.5022,1.5574,1.5982,1.63,1.6789,1.6866,1.685,1.6927,1.7295,1.7599,1.7647,1.759,1.7513,1.7305,1.7164,1.7666,1.8007,1.8349,1.8901,1.9333,1.9688,1.9529,1.9801,2.0189,1.998,1.9803,1.9696,1.9702,1.9666,1.9566,1.9536,1.9306,1.9129,1.9318,1.9304,1.9185,1.9108,1.9137,1.9088,1.9621,2.0207,2.0493,2.0669,2.0878,2.1117,2.1323,2.1556,2.1738,2.2007,2.2304,2.2343,2.248,2.2832,2.3068,2.3033,2.2971,2.297,2.302,2.3087,2.3137,2.3144,2.3242,2.341,2.3445,2.3393,-0.5631,-0.5496,-0.5491,-0.5366,-0.5236,-0.5366,-0.4792,-0.3744,-0.3473,-0.2857,-0.1971,-0.1837,-0.1614,-0.1479,-0.1435,-0.1701,-0.2109,-0.2463,-0.2305,-0.1784,-0.0872,0.0137,0.1354,0.264,0.3309,0.3615,0.3924,0.424,0.4152,0.4456,0.5168,0.5962,0.6319,0.7183,0.7885,0.8584,0.8736,0.9226,0.9094,0.9509,1.0212,1.0161,1.0709,1.1524,1.2643,1.3754,1.4443,1.5052,1.5719,1.6157,1.6501,1.6799,1.6977,1.7068,1.7305,1.7451,1.7395,1.7581,1.7958,1.8281,1.8464,1.8611,1.8997,1.8534,1.8197,1.8387,1.8808,1.9199,1.9645,1.9824,2.0019,2.0241,2.0469,2.0426,2.0204,2.0065,1.994,1.9904,1.9904,1.9884,1.9919,1.9782,1.9664,1.9803,2.0127,2.021,2.0145,2.0268,2.0203,2.0061,2.0587,2.1019,2.1179,2.1244,2.1481,2.1741,2.1857,2.2061,2.2496,2.276,2.2804,2.298,2.3458,2.365,2.3274,2.3125,2.3063,2.3112,2.3214,2.3256,2.3517,2.3404,2.359,2.4028,2.4282,-0.5588,-0.5631,-0.5453,-0.5246,-0.5024,-0.4753,-0.4316,-0.3836,-0.3296,-0.2768,-0.2373,-0.1835,-0.1658,-0.1705,-0.1794,-0.2061,-0.2339,-0.2395,-0.1939,-0.1129,0.0,0.1307,0.2464,0.3486,0.3935,0.406,0.4192,0.4412,0.4535,0.4753,0.5356,0.5996,0.7231,0.8092,0.912,1.0049,1.0725,1.0974,1.0667,1.1032,1.178,1.1995,1.2465,1.3282,1.432,1.5442,1.6342,1.6596,1.7178,1.7627,1.7461,1.7472,1.7408,1.7465,1.7595,1.8029,1.8067,1.8192,1.8833,1.9442,1.9682,1.9646,2.015,1.9766,1.9236,1.9128,1.9695,1.9996,2.0346,2.0556,2.0606,2.0767,2.0843,2.0662,2.0494,2.0323,2.022,2.02,2.0166,2.0235,2.027,2.0311,2.0184,2.0397,2.0719,2.0926,2.1082,2.1142,2.1154,2.0963,2.1024,2.1442,2.1678,2.1738,2.1936,2.2202,2.2265,2.2405,2.298,2.347,2.3649,2.3912,2.4261,2.4296,2.3998,2.3551,2.3095,2.3302,2.3781,2.3989,2.4215,2.3943,2.3872,2.4488,2.4999,-0.5453,-0.542,-0.5246,-0.4985,-0.4591,-0.4232,-0.3921,-0.3615,-0.3123,-0.2679,-0.2284,-0.1701,-0.1658,-0.202,-0.2156,-0.229,-0.2424,-0.1921,-0.1277,-0.0045,0.0767,0.2119,0.3376,0.398,0.4108,0.4236,0.4324,0.4456,0.4952,0.5817,0.6445,0.7799,0.872,0.9856,1.1135,1.2372,1.3237,1.3243,1.3064,1.2948,1.3322,1.3789,1.421,1.5107,1.6071,1.7129,1.7854,1.7861,1.8332,1.8592,1.8272,1.8211,1.8188,1.8245,1.8423,1.8843,1.8991,1.9293,1.9849,2.0245,2.0376,2.0533,2.0986,2.0708,2.0457,2.0299,2.049,2.0651,2.0988,2.1261,2.1214,2.1151,2.1038,2.0925,2.0777,2.061,2.0543,2.0475,2.0509,2.0543,2.061,2.0695,2.0828,2.1039,2.1198,2.1337,2.1444,2.1519,2.1592,2.1556,2.1566,2.1832,2.2089,2.2237,2.2496,2.2914,2.3168,2.3519,2.4043,2.445,2.455,2.4673,2.4918,2.491,2.4796,2.4392,2.4101,2.4247,2.458,2.4832,2.5066,2.502,2.5073,2.5501,2.5943,-0.528,-0.5029,-0.4985,-0.4635,-0.4108,-0.3832,-0.3568,-0.335,-0.3034,-0.2591,-0.2062,-0.1524,-0.1748,-0.2243,-0.2288,-0.2201,-0.1939,-0.1327,-0.0319,0.1202,0.1869,0.2922,0.3595,0.4064,0.4104,0.4232,0.4526,0.4981,0.5752,0.7051,0.8838,1.0159,1.1025,1.2085,1.3472,1.4095,1.4861,1.5633,1.4972,1.4485,1.4717,1.4802,1.4869,1.614,1.7191,1.8065,1.8225,1.8629,1.9253,1.9241,1.9166,1.919,1.919,1.9201,1.9459,1.9782,1.9984,2.0348,2.0672,2.0993,2.1259,2.1374,2.1509,2.1364,2.1171,2.0923,2.0956,2.1035,2.1308,2.134,2.1309,2.1294,2.1199,2.1071,2.0941,2.081,2.076,2.0711,2.0744,2.0777,2.0876,2.0958,2.1103,2.1293,2.1462,2.1648,2.1814,2.1873,2.2249,2.232,2.2411,2.2536,2.2743,2.312,2.365,2.4026,2.4351,2.4729,2.5132,2.5247,2.5215,2.5357,2.5489,2.549,2.5491,2.5544,2.5429,2.5348,2.5336,2.5793,2.5993,2.6115,2.633,2.6652,2.6706,-0.5072,-0.4985,-0.4626,-0.4232,-0.3928,-0.3788,-0.3432,-0.3034,-0.3123,-0.2951,-0.2734,-0.2196,-0.2061,-0.242,-0.2107,-0.1928,-0.144,-0.0452,0.0495,0.1983,0.3034,0.4205,0.4069,0.4711,0.447,0.428,0.4778,0.6151,0.7709,0.9456,1.083,1.1643,1.2608,1.386,1.4688,1.5186,1.6346,1.7248,1.6997,1.6589,1.6922,1.7133,1.7442,1.8185,1.8961,1.9734,2.0027,2.0315,2.0807,2.1016,2.0563,2.0333,2.0142,2.0041,2.0313,2.0772,2.0906,2.1231,2.1502,2.159,2.1711,2.1766,2.1811,2.1781,2.1645,2.1371,2.1294,2.1388,2.1433,2.1433,2.1433,2.1419,2.1404,2.1247,2.1103,2.1022,2.0973,2.099,2.0974,2.1023,2.1087,2.1214,2.1386,2.154,2.1705,2.1869,2.2077,2.2417,2.3198,2.3498,2.3601,2.3712,2.3744,2.4094,2.4689,2.511,2.5382,2.5617,2.5915,2.596,2.5943,2.5943,2.6033,2.6153,2.6189,2.6277,2.618,2.5859,2.6015,2.6591,2.69,2.7022,2.7407,2.7749,2.7612,-0.4985,-0.4723,-0.4232,-0.3928,-0.3748,-0.348,-0.3211,-0.2904,-0.2768,-0.2773,-0.2821,-0.2464,-0.2375,-0.2375,-0.1928,-0.1207,-0.067,0.0402,0.3085,0.4792,0.5274,0.6724,0.6699,0.6272,0.719,0.716,0.7317,0.8524,0.9939,1.0889,1.1924,1.3014,1.409,1.5058,1.5624,1.68,1.7434,1.7994,1.8278,1.8548,1.8691,1.8534,1.8499,1.9135,2.0561,2.1335,2.1118,2.1313,2.1723,2.1877,2.1515,2.1226,2.1025,2.0946,2.1241,2.1591,2.18,2.187,2.2091,2.2123,2.2032,2.202,2.1899,2.1811,2.1853,2.1631,2.1587,2.1678,2.1648,2.1631,2.157,2.1587,2.1511,2.1435,2.1247,2.1119,2.1119,2.1119,2.1199,2.1371,2.1464,2.1587,2.1738,2.1886,2.2144,2.2801,2.2909,2.3367,2.4098,2.453,2.4652,2.4943,2.5015,2.5297,2.5906,2.6207,2.6383,2.6594,2.6683,2.6823,2.6858,2.6637,2.656,2.6806,2.6959,2.7012,2.6854,2.6667,2.6974,2.7633,2.7803,2.789,2.8294,2.8536,2.8283,-0.4845,-0.4372,-0.3843,-0.3578,-0.3534,-0.317,-0.2993,-0.2865,-0.2457,-0.237,-0.2595,-0.2642,-0.2467,-0.2199,-0.1794,-0.067,0.0745,0.2576,0.5657,0.746,0.8403,0.8593,0.9012,0.9536,0.9808,1.0341,1.071,1.0854,1.1478,1.2781,1.4056,1.4674,1.5672,1.6905,1.7894,1.8371,1.8491,1.8696,1.9003,1.9378,1.9305,1.9158,1.9359,2.0494,2.1952,2.2605,2.2036,2.1874,2.2362,2.2344,2.2306,2.2059,2.1878,2.1771,2.1945,2.2234,2.2245,2.2275,2.2282,2.2242,2.2197,2.2123,2.1915,2.1869,2.194,2.1957,2.1915,2.1869,2.1857,2.1811,2.1781,2.1738,2.1664,2.1589,2.1404,2.1262,2.1278,2.131,2.1495,2.1691,2.1797,2.1932,2.2049,2.2209,2.2813,2.3515,2.4078,2.4614,2.5048,2.5224,2.5392,2.594,2.6393,2.6748,2.7068,2.7095,2.7147,2.7222,2.7291,2.7619,2.7754,2.7309,2.7232,2.7628,2.7756,2.7662,2.7771,2.7736,2.8156,2.8358,2.833,2.8265,2.8381,2.8587,2.8605,-0.4495,-0.4156,-0.3792,-0.3571,-0.3398,-0.3123,-0.304,-0.3046,-0.2821,-0.2781,-0.2551,-0.2506,-0.2464,-0.2288,-0.2201,-0.0883,0.169,0.4304,0.6032,0.7551,1.0283,1.0073,1.0367,1.2071,1.159,1.2036,1.2907,1.3694,1.3714,1.5445,1.6792,1.7025,1.7266,1.799,1.834,1.8697,1.8788,1.9129,1.9615,1.9993,2.0227,2.035,2.088,2.1813,2.2833,2.3177,2.3164,2.3195,2.3221,2.3147,2.2935,2.2723,2.2538,2.2427,2.2496,2.2432,2.2487,2.2405,2.2338,2.2282,2.2254,2.2225,2.2077,2.2061,2.2118,2.2152,2.2123,2.2106,2.2061,2.1986,2.1911,2.1869,2.1797,2.1694,2.1542,2.1464,2.1433,2.1631,2.1823,2.1957,2.2077,2.2209,2.2338,2.276,2.3457,2.4046,2.4373,2.5006,2.6215,2.6233,2.6135,2.6801,2.7477,2.7753,2.7877,2.7717,2.7733,2.7776,2.773,2.7795,2.7795,2.7771,2.7818,2.7986,2.8126,2.8094,2.8273,2.8273,2.8388,2.8456,2.8525,2.8551,2.8612,2.8757,2.8909]}]]